Meramec River (Missouri), Eureka (07019000)

StateMissouriLatestUnknown (3260 cfs)
RiverMeramec RiverRatingObservedEstimated
Updated2021-02-27 15:30 (28 minutes ago)Flood - The river is flooding. Obstacles can be treacherous or deadly. The river should be avoided at this stage for casual trips and definitely for the inexperienced. Trips should be attempted only with protective gear and equipment.Flood(none)(none)
Discharge3260 cfs (median: 2360 cfs)High - The river is high and potentially dangerous, especially for the young and / or inexperienced. Normal stream obstacles are sometimes difficult to navigate. Extended distances can be attempted, but canoe travel may not be advisable.High(none)(none)
Height5.21 feetGood - Conditions are ideal for a canoe or kayak. Boats typically will drag on fewer than one-quarter of riffles, if at all, and portages are unnecessary or rare. Normal float lengths can be attempted without a problem.Good(none)(none)
TrendSteady (falling over 24 hours)Low - River is low but can still be floated. Some riffles are okay but most come with significant dragging and might need a portage. Float lengths should be reduced to accommodate low flow, dragging, and portages.Low(none)(none)
USGSExternal icon USGS Site (External icon Google Maps)Poor - River is too low to float comfortably. Most or all riffles will drag or must be portaged and some obstacles (such as slick shelf rock) cause undue problems. Avoid the river at this stage for casual paddling trips.Poor(none)(none)

Trending Data

Plot Image

Trips for Meramec River (Missouri), Eureka (07019000)

DateStartEndDistanceConditionDischargeHeightFishingDetails

A total of 0 rows are displayed.

Condition Descriptions

Fishing Conditions

Fish Species

Notes

Classic Trip List

The classic River Trips application is still available for use. It is updated with the new system using a data retrofit. It is no longer maintained. The original River Trips application is no longer updated (as of 1 Dec 2016) but can be checked for errors or for the condition of the data before it was converted to the new system.

Gauge Data Table

ObservationHeightDischargeMaximum
Discharge
Minimum
Discharge
Mean
Discharge
P05P10P20P25P50
(Median)
P75P80P90P95
2021-02-27 15:30 5.21 3260 62900 (1985) 517 (1954) 5470 742 960 1260 1520 2360 5010 5920 14600 21700
2021-02-27 15:00 5.21 3260 62900 (1985) 517 (1954) 5470 742 960 1260 1520 2360 5010 5920 14600 21700
2021-02-27 14:30 5.21 3260 62900 (1985) 517 (1954) 5470 742 960 1260 1520 2360 5010 5920 14600 21700
2021-02-27 14:00 5.22 3270 62900 (1985) 517 (1954) 5470 742 960 1260 1520 2360 5010 5920 14600 21700
2021-02-27 13:30 5.23 3290 62900 (1985) 517 (1954) 5470 742 960 1260 1520 2360 5010 5920 14600 21700
2021-02-27 13:00 5.24 3300 62900 (1985) 517 (1954) 5470 742 960 1260 1520 2360 5010 5920 14600 21700
2021-02-27 12:30 5.23 3290 62900 (1985) 517 (1954) 5470 742 960 1260 1520 2360 5010 5920 14600 21700
2021-02-27 12:00 5.24 3300 62900 (1985) 517 (1954) 5470 742 960 1260 1520 2360 5010 5920 14600 21700
2021-02-27 11:30 5.25 3320 62900 (1985) 517 (1954) 5470 742 960 1260 1520 2360 5010 5920 14600 21700
2021-02-27 11:00 5.24 3300 62900 (1985) 517 (1954) 5470 742 960 1260 1520 2360 5010 5920 14600 21700
2021-02-27 10:30 5.27 3350 62900 (1985) 517 (1954) 5470 742 960 1260 1520 2360 5010 5920 14600 21700
2021-02-27 10:00 5.25 3320 62900 (1985) 517 (1954) 5470 742 960 1260 1520 2360 5010 5920 14600 21700
2021-02-27 09:30 5.27 3350 62900 (1985) 517 (1954) 5470 742 960 1260 1520 2360 5010 5920 14600 21700
2021-02-27 09:00 5.28 3360 62900 (1985) 517 (1954) 5470 742 960 1260 1520 2360 5010 5920 14600 21700
2021-02-27 08:30 5.27 3350 62900 (1985) 517 (1954) 5470 742 960 1260 1520 2360 5010 5920 14600 21700
2021-02-27 08:00 5.28 3360 62900 (1985) 517 (1954) 5470 742 960 1260 1520 2360 5010 5920 14600 21700
2021-02-27 07:30 5.28 3360 62900 (1985) 517 (1954) 5470 742 960 1260 1520 2360 5010 5920 14600 21700
2021-02-27 07:00 5.29 3380 62900 (1985) 517 (1954) 5470 742 960 1260 1520 2360 5010 5920 14600 21700
2021-02-27 06:30 5.30 3390 62900 (1985) 517 (1954) 5470 742 960 1260 1520 2360 5010 5920 14600 21700
2021-02-27 06:00 5.30 3390 62900 (1985) 517 (1954) 5470 742 960 1260 1520 2360 5010 5920 14600 21700
2021-02-27 05:30 5.31 3410 62900 (1985) 517 (1954) 5470 742 960 1260 1520 2360 5010 5920 14600 21700
2021-02-27 05:00 5.29 3380 62900 (1985) 517 (1954) 5470 742 960 1260 1520 2360 5010 5920 14600 21700
2021-02-27 04:30 5.32 3430 62900 (1985) 517 (1954) 5470 742 960 1260 1520 2360 5010 5920 14600 21700
2021-02-27 04:00 5.32 3430 62900 (1985) 517 (1954) 5470 742 960 1260 1520 2360 5010 5920 14600 21700
2021-02-27 03:30 5.33 3440 62900 (1985) 517 (1954) 5470 742 960 1260 1520 2360 5010 5920 14600 21700
2021-02-27 03:00 5.33 3440 62900 (1985) 517 (1954) 5470 742 960 1260 1520 2360 5010 5920 14600 21700
2021-02-27 02:30 5.34 3460 62900 (1985) 517 (1954) 5470 742 960 1260 1520 2360 5010 5920 14600 21700
2021-02-27 02:00 5.33 3440 62900 (1985) 517 (1954) 5470 742 960 1260 1520 2360 5010 5920 14600 21700
2021-02-27 01:30 5.35 3470 62900 (1985) 517 (1954) 5470 742 960 1260 1520 2360 5010 5920 14600 21700
2021-02-27 01:00 5.34 3460 62900 (1985) 517 (1954) 5470 742 960 1260 1520 2360 5010 5920 14600 21700
2021-02-27 00:30 5.37 3500 62900 (1985) 517 (1954) 5470 742 960 1260 1520 2360 5010 5920 14600 21700
2021-02-27 00:00 5.35 3470 62900 (1985) 517 (1954) 5470 742 960 1260 1520 2360 5010 5920 14600 21700
2021-02-26 23:30 5.36 3490 73700 (1985) 542 (1954) 5450 739 953 1230 1380 2320 5480 6460 13500 18700
2021-02-26 23:00 5.37 3500 73700 (1985) 542 (1954) 5450 739 953 1230 1380 2320 5480 6460 13500 18700
2021-02-26 22:30 5.36 3490 73700 (1985) 542 (1954) 5450 739 953 1230 1380 2320 5480 6460 13500 18700
2021-02-26 22:00 5.38 3520 73700 (1985) 542 (1954) 5450 739 953 1230 1380 2320 5480 6460 13500 18700
2021-02-26 21:30 5.40 3550 73700 (1985) 542 (1954) 5450 739 953 1230 1380 2320 5480 6460 13500 18700
2021-02-26 21:00 5.40 3550 73700 (1985) 542 (1954) 5450 739 953 1230 1380 2320 5480 6460 13500 18700
2021-02-26 20:30 5.39 3530 73700 (1985) 542 (1954) 5450 739 953 1230 1380 2320 5480 6460 13500 18700
2021-02-26 20:00 5.40 3550 73700 (1985) 542 (1954) 5450 739 953 1230 1380 2320 5480 6460 13500 18700
2021-02-26 19:30 5.40 3550 73700 (1985) 542 (1954) 5450 739 953 1230 1380 2320 5480 6460 13500 18700
2021-02-26 19:00 5.40 3550 73700 (1985) 542 (1954) 5450 739 953 1230 1380 2320 5480 6460 13500 18700
2021-02-26 18:30 5.42 3580 73700 (1985) 542 (1954) 5450 739 953 1230 1380 2320 5480 6460 13500 18700
2021-02-26 18:00 5.42 3580 73700 (1985) 542 (1954) 5450 739 953 1230 1380 2320 5480 6460 13500 18700
2021-02-26 17:30 5.41 3560 73700 (1985) 542 (1954) 5450 739 953 1230 1380 2320 5480 6460 13500 18700
2021-02-26 17:00 5.43 3590 73700 (1985) 542 (1954) 5450 739 953 1230 1380 2320 5480 6460 13500 18700
2021-02-26 16:30 5.43 3590 73700 (1985) 542 (1954) 5450 739 953 1230 1380 2320 5480 6460 13500 18700
2021-02-26 16:00 5.44 3610 73700 (1985) 542 (1954) 5450 739 953 1230 1380 2320 5480 6460 13500 18700
2021-02-26 15:30 5.45 3620 73700 (1985) 542 (1954) 5450 739 953 1230 1380 2320 5480 6460 13500 18700
2021-02-26 15:00 5.45 3620 73700 (1985) 542 (1954) 5450 739 953 1230 1380 2320 5480 6460 13500 18700
2021-02-26 14:30 5.45 3620 73700 (1985) 542 (1954) 5450 739 953 1230 1380 2320 5480 6460 13500 18700
2021-02-26 14:00 5.47 3650 73700 (1985) 542 (1954) 5450 739 953 1230 1380 2320 5480 6460 13500 18700
2021-02-26 13:30 5.47 3650 73700 (1985) 542 (1954) 5450 739 953 1230 1380 2320 5480 6460 13500 18700
2021-02-26 13:00 5.47 3650 73700 (1985) 542 (1954) 5450 739 953 1230 1380 2320 5480 6460 13500 18700
2021-02-26 12:30 5.48 3670 73700 (1985) 542 (1954) 5450 739 953 1230 1380 2320 5480 6460 13500 18700
2021-02-26 12:00 5.49 3690 73700 (1985) 542 (1954) 5450 739 953 1230 1380 2320 5480 6460 13500 18700
2021-02-26 11:30 5.50 3700 73700 (1985) 542 (1954) 5450 739 953 1230 1380 2320 5480 6460 13500 18700
2021-02-26 11:00 5.49 3690 73700 (1985) 542 (1954) 5450 739 953 1230 1380 2320 5480 6460 13500 18700
2021-02-26 10:30 5.49 3690 73700 (1985) 542 (1954) 5450 739 953 1230 1380 2320 5480 6460 13500 18700
2021-02-26 10:00 5.50 3700 73700 (1985) 542 (1954) 5450 739 953 1230 1380 2320 5480 6460 13500 18700
2021-02-26 09:30 5.53 3750 73700 (1985) 542 (1954) 5450 739 953 1230 1380 2320 5480 6460 13500 18700
2021-02-26 09:00 5.51 3720 73700 (1985) 542 (1954) 5450 739 953 1230 1380 2320 5480 6460 13500 18700
2021-02-26 08:30 5.52 3730 73700 (1985) 542 (1954) 5450 739 953 1230 1380 2320 5480 6460 13500 18700
2021-02-26 08:00 5.51 3720 73700 (1985) 542 (1954) 5450 739 953 1230 1380 2320 5480 6460 13500 18700
2021-02-26 07:30 5.54 3760 73700 (1985) 542 (1954) 5450 739 953 1230 1380 2320 5480 6460 13500 18700
2021-02-26 07:00 5.53 3750 73700 (1985) 542 (1954) 5450 739 953 1230 1380 2320 5480 6460 13500 18700
2021-02-26 06:30 5.54 3760 73700 (1985) 542 (1954) 5450 739 953 1230 1380 2320 5480 6460 13500 18700
2021-02-26 06:00 5.54 3760 73700 (1985) 542 (1954) 5450 739 953 1230 1380 2320 5480 6460 13500 18700
2021-02-26 05:30 5.56 3790 73700 (1985) 542 (1954) 5450 739 953 1230 1380 2320 5480 6460 13500 18700
2021-02-26 05:00 5.57 3810 73700 (1985) 542 (1954) 5450 739 953 1230 1380 2320 5480 6460 13500 18700
2021-02-26 04:30 5.57 3810 73700 (1985) 542 (1954) 5450 739 953 1230 1380 2320 5480 6460 13500 18700
2021-02-26 04:00 5.57 3810 73700 (1985) 542 (1954) 5450 739 953 1230 1380 2320 5480 6460 13500 18700
2021-02-26 03:30 5.57 3810 73700 (1985) 542 (1954) 5450 739 953 1230 1380 2320 5480 6460 13500 18700
2021-02-26 03:00 5.58 3830 73700 (1985) 542 (1954) 5450 739 953 1230 1380 2320 5480 6460 13500 18700
2021-02-26 02:30 5.59 3840 73700 (1985) 542 (1954) 5450 739 953 1230 1380 2320 5480 6460 13500 18700
2021-02-26 02:00 5.59 3840 73700 (1985) 542 (1954) 5450 739 953 1230 1380 2320 5480 6460 13500 18700
2021-02-26 01:30 5.58 3830 73700 (1985) 542 (1954) 5450 739 953 1230 1380 2320 5480 6460 13500 18700
2021-02-26 01:00 5.58 3830 73700 (1985) 542 (1954) 5450 739 953 1230 1380 2320 5480 6460 13500 18700
2021-02-26 00:30 5.58 3830 73700 (1985) 542 (1954) 5450 739 953 1230 1380 2320 5480 6460 13500 18700
2021-02-26 00:00 5.58 3830 73700 (1985) 542 (1954) 5450 739 953 1230 1380 2320 5480 6460 13500 18700
2021-02-25 23:30 5.58 3830 62500 (1985) 560 (1954) 5030 729 901 1230 1350 2290 5270 6970 10100 15900
2021-02-25 23:00 5.61 3870 62500 (1985) 560 (1954) 5030 729 901 1230 1350 2290 5270 6970 10100 15900
2021-02-25 22:30 5.60 3860 62500 (1985) 560 (1954) 5030 729 901 1230 1350 2290 5270 6970 10100 15900
2021-02-25 22:00 5.60 3860 62500 (1985) 560 (1954) 5030 729 901 1230 1350 2290 5270 6970 10100 15900
2021-02-25 21:30 5.60 3860 62500 (1985) 560 (1954) 5030 729 901 1230 1350 2290 5270 6970 10100 15900
2021-02-25 21:00 5.60 3860 62500 (1985) 560 (1954) 5030 729 901 1230 1350 2290 5270 6970 10100 15900
2021-02-25 20:30 5.61 3870 62500 (1985) 560 (1954) 5030 729 901 1230 1350 2290 5270 6970 10100 15900
2021-02-25 20:00 5.61 3870 62500 (1985) 560 (1954) 5030 729 901 1230 1350 2290 5270 6970 10100 15900
2021-02-25 19:30 5.60 3860 62500 (1985) 560 (1954) 5030 729 901 1230 1350 2290 5270 6970 10100 15900
2021-02-25 19:00 5.60 3860 62500 (1985) 560 (1954) 5030 729 901 1230 1350 2290 5270 6970 10100 15900
2021-02-25 18:30 5.61 3870 62500 (1985) 560 (1954) 5030 729 901 1230 1350 2290 5270 6970 10100 15900
2021-02-25 18:00 5.60 3860 62500 (1985) 560 (1954) 5030 729 901 1230 1350 2290 5270 6970 10100 15900
2021-02-25 17:30 5.60 3860 62500 (1985) 560 (1954) 5030 729 901 1230 1350 2290 5270 6970 10100 15900
2021-02-25 17:00 5.60 3860 62500 (1985) 560 (1954) 5030 729 901 1230 1350 2290 5270 6970 10100 15900
2021-02-25 16:30 5.61 3870 62500 (1985) 560 (1954) 5030 729 901 1230 1350 2290 5270 6970 10100 15900
2021-02-25 16:00 5.60 3860 62500 (1985) 560 (1954) 5030 729 901 1230 1350 2290 5270 6970 10100 15900
2021-02-25 15:30 5.59 3840 62500 (1985) 560 (1954) 5030 729 901 1230 1350 2290 5270 6970 10100 15900
2021-02-25 15:00 5.62 3890 62500 (1985) 560 (1954) 5030 729 901 1230 1350 2290 5270 6970 10100 15900
2021-02-25 14:30 5.60 3860 62500 (1985) 560 (1954) 5030 729 901 1230 1350 2290 5270 6970 10100 15900
2021-02-25 14:00 5.60 3860 62500 (1985) 560 (1954) 5030 729 901 1230 1350 2290 5270 6970 10100 15900
2021-02-25 13:30 5.61 3870 62500 (1985) 560 (1954) 5030 729 901 1230 1350 2290 5270 6970 10100 15900
2021-02-25 13:00 5.60 3860 62500 (1985) 560 (1954) 5030 729 901 1230 1350 2290 5270 6970 10100 15900
2021-02-25 12:30 5.60 3860 62500 (1985) 560 (1954) 5030 729 901 1230 1350 2290 5270 6970 10100 15900
2021-02-25 12:00 5.59 3840 62500 (1985) 560 (1954) 5030 729 901 1230 1350 2290 5270 6970 10100 15900
2021-02-25 11:30 5.61 3870 62500 (1985) 560 (1954) 5030 729 901 1230 1350 2290 5270 6970 10100 15900
2021-02-25 11:00 5.58 3830 62500 (1985) 560 (1954) 5030 729 901 1230 1350 2290 5270 6970 10100 15900
2021-02-25 10:30 5.59 3840 62500 (1985) 560 (1954) 5030 729 901 1230 1350 2290 5270 6970 10100 15900
2021-02-25 10:00 5.59 3840 62500 (1985) 560 (1954) 5030 729 901 1230 1350 2290 5270 6970 10100 15900
2021-02-25 09:30 5.58 3830 62500 (1985) 560 (1954) 5030 729 901 1230 1350 2290 5270 6970 10100 15900
2021-02-25 09:00 5.60 3860 62500 (1985) 560 (1954) 5030 729 901 1230 1350 2290 5270 6970 10100 15900
2021-02-25 08:30 5.59 3840 62500 (1985) 560 (1954) 5030 729 901 1230 1350 2290 5270 6970 10100 15900
2021-02-25 08:00 5.59 3840 62500 (1985) 560 (1954) 5030 729 901 1230 1350 2290 5270 6970 10100 15900
2021-02-25 07:30 5.58 3830 62500 (1985) 560 (1954) 5030 729 901 1230 1350 2290 5270 6970 10100 15900
2021-02-25 07:00 5.59 3840 62500 (1985) 560 (1954) 5030 729 901 1230 1350 2290 5270 6970 10100 15900
2021-02-25 06:30 5.56 3790 62500 (1985) 560 (1954) 5030 729 901 1230 1350 2290 5270 6970 10100 15900
2021-02-25 06:00 5.58 3830 62500 (1985) 560 (1954) 5030 729 901 1230 1350 2290 5270 6970 10100 15900
2021-02-25 05:30 5.58 3830 62500 (1985) 560 (1954) 5030 729 901 1230 1350 2290 5270 6970 10100 15900
2021-02-25 05:00 5.57 3810 62500 (1985) 560 (1954) 5030 729 901 1230 1350 2290 5270 6970 10100 15900
2021-02-25 04:30 5.57 3810 62500 (1985) 560 (1954) 5030 729 901 1230 1350 2290 5270 6970 10100 15900
2021-02-25 04:00 5.57 3810 62500 (1985) 560 (1954) 5030 729 901 1230 1350 2290 5270 6970 10100 15900
2021-02-25 03:30 5.57 3810 62500 (1985) 560 (1954) 5030 729 901 1230 1350 2290 5270 6970 10100 15900
2021-02-25 03:00 5.56 3790 62500 (1985) 560 (1954) 5030 729 901 1230 1350 2290 5270 6970 10100 15900
2021-02-25 02:30 5.55 3780 62500 (1985) 560 (1954) 5030 729 901 1230 1350 2290 5270 6970 10100 15900
2021-02-25 02:00 5.57 3810 62500 (1985) 560 (1954) 5030 729 901 1230 1350 2290 5270 6970 10100 15900
2021-02-25 01:30 5.57 3810 62500 (1985) 560 (1954) 5030 729 901 1230 1350 2290 5270 6970 10100 15900
2021-02-25 01:00 5.55 3780 62500 (1985) 560 (1954) 5030 729 901 1230 1350 2290 5270 6970 10100 15900
2021-02-25 00:30 5.56 3790 62500 (1985) 560 (1954) 5030 729 901 1230 1350 2290 5270 6970 10100 15900
2021-02-25 00:00 5.57 3810 62500 (1985) 560 (1954) 5030 729 901 1230 1350 2290 5270 6970 10100 15900
2021-02-24 23:30 5.55 3780 44100 (1985) 532 (1934) 4700 724 901 1230 1400 2390 4720 6220 11400 14400
2021-02-24 23:00 5.56 3790 44100 (1985) 532 (1934) 4700 724 901 1230 1400 2390 4720 6220 11400 14400
2021-02-24 22:30 5.55 3780 44100 (1985) 532 (1934) 4700 724 901 1230 1400 2390 4720 6220 11400 14400
2021-02-24 22:00 5.57 3810 44100 (1985) 532 (1934) 4700 724 901 1230 1400 2390 4720 6220 11400 14400
2021-02-24 21:30 5.56 3790 44100 (1985) 532 (1934) 4700 724 901 1230 1400 2390 4720 6220 11400 14400
2021-02-24 21:00 5.54 3760 44100 (1985) 532 (1934) 4700 724 901 1230 1400 2390 4720 6220 11400 14400
2021-02-24 20:30 5.55 3780 44100 (1985) 532 (1934) 4700 724 901 1230 1400 2390 4720 6220 11400 14400
2021-02-24 20:00 5.55 3780 44100 (1985) 532 (1934) 4700 724 901 1230 1400 2390 4720 6220 11400 14400
2021-02-24 19:30 5.52 3730 44100 (1985) 532 (1934) 4700 724 901 1230 1400 2390 4720 6220 11400 14400
2021-02-24 19:00 5.54 3760 44100 (1985) 532 (1934) 4700 724 901 1230 1400 2390 4720 6220 11400 14400
2021-02-24 18:30 5.53 3750 44100 (1985) 532 (1934) 4700 724 901 1230 1400 2390 4720 6220 11400 14400
2021-02-24 18:00 5.51 3720 44100 (1985) 532 (1934) 4700 724 901 1230 1400 2390 4720 6220 11400 14400
2021-02-24 17:30 5.52 3730 44100 (1985) 532 (1934) 4700 724 901 1230 1400 2390 4720 6220 11400 14400
2021-02-24 17:00 5.51 3720 44100 (1985) 532 (1934) 4700 724 901 1230 1400 2390 4720 6220 11400 14400
2021-02-24 16:30 5.49 3690 44100 (1985) 532 (1934) 4700 724 901 1230 1400 2390 4720 6220 11400 14400
2021-02-24 16:00 5.50 3700 44100 (1985) 532 (1934) 4700 724 901 1230 1400 2390 4720 6220 11400 14400
2021-02-24 15:30 5.48 3670 44100 (1985) 532 (1934) 4700 724 901 1230 1400 2390 4720 6220 11400 14400
2021-02-24 15:00 5.47 3650 44100 (1985) 532 (1934) 4700 724 901 1230 1400 2390 4720 6220 11400 14400
2021-02-24 14:30 5.45 3620 44100 (1985) 532 (1934) 4700 724 901 1230 1400 2390 4720 6220 11400 14400
2021-02-24 14:00 5.45 3620 44100 (1985) 532 (1934) 4700 724 901 1230 1400 2390 4720 6220 11400 14400
2021-02-24 13:30 5.44 3610 44100 (1985) 532 (1934) 4700 724 901 1230 1400 2390 4720 6220 11400 14400
2021-02-24 13:00 5.42 3580 44100 (1985) 532 (1934) 4700 724 901 1230 1400 2390 4720 6220 11400 14400
2021-02-24 12:30 5.40 3550 44100 (1985) 532 (1934) 4700 724 901 1230 1400 2390 4720 6220 11400 14400
2021-02-24 12:00 5.40 3550 44100 (1985) 532 (1934) 4700 724 901 1230 1400 2390 4720 6220 11400 14400
2021-02-24 11:30 5.38 3520 44100 (1985) 532 (1934) 4700 724 901 1230 1400 2390 4720 6220 11400 14400
2021-02-24 11:00 5.37 3500 44100 (1985) 532 (1934) 4700 724 901 1230 1400 2390 4720 6220 11400 14400
2021-02-24 10:30 5.35 3470 44100 (1985) 532 (1934) 4700 724 901 1230 1400 2390 4720 6220 11400 14400
2021-02-24 10:00 5.32 3430 44100 (1985) 532 (1934) 4700 724 901 1230 1400 2390 4720 6220 11400 14400
2021-02-24 09:30 5.30 3390 44100 (1985) 532 (1934) 4700 724 901 1230 1400 2390 4720 6220 11400 14400
2021-02-24 09:00 5.29 3380 44100 (1985) 532 (1934) 4700 724 901 1230 1400 2390 4720 6220 11400 14400
2021-02-24 08:30 5.25 3320 44100 (1985) 532 (1934) 4700 724 901 1230 1400 2390 4720 6220 11400 14400
2021-02-24 08:00 5.25 3320 44100 (1985) 532 (1934) 4700 724 901 1230 1400 2390 4720 6220 11400 14400
2021-02-24 07:30 5.22 3270 44100 (1985) 532 (1934) 4700 724 901 1230 1400 2390 4720 6220 11400 14400
2021-02-24 07:00 5.20 3240 44100 (1985) 532 (1934) 4700 724 901 1230 1400 2390 4720 6220 11400 14400
2021-02-24 06:30 5.16 3180 44100 (1985) 532 (1934) 4700 724 901 1230 1400 2390 4720 6220 11400 14400
2021-02-24 06:00 5.13 3140 44100 (1985) 532 (1934) 4700 724 901 1230 1400 2390 4720 6220 11400 14400
2021-02-24 05:30 5.11 3110 44100 (1985) 532 (1934) 4700 724 901 1230 1400 2390 4720 6220 11400 14400
2021-02-24 05:00 5.09 3080 44100 (1985) 532 (1934) 4700 724 901 1230 1400 2390 4720 6220 11400 14400
2021-02-24 04:30 5.06 3040 44100 (1985) 532 (1934) 4700 724 901 1230 1400 2390 4720 6220 11400 14400
2021-02-24 04:00 5.05 3020 44100 (1985) 532 (1934) 4700 724 901 1230 1400 2390 4720 6220 11400 14400
2021-02-24 03:30 5.01 2960 44100 (1985) 532 (1934) 4700 724 901 1230 1400 2390 4720 6220 11400 14400
2021-02-24 03:00 4.99 2930 44100 (1985) 532 (1934) 4700 724 901 1230 1400 2390 4720 6220 11400 14400
2021-02-24 02:30 4.99 2930 44100 (1985) 532 (1934) 4700 724 901 1230 1400 2390 4720 6220 11400 14400
2021-02-24 02:00 4.96 2890 44100 (1985) 532 (1934) 4700 724 901 1230 1400 2390 4720 6220 11400 14400
2021-02-24 01:30 4.95 2880 44100 (1985) 532 (1934) 4700 724 901 1230 1400 2390 4720 6220 11400 14400
2021-02-24 01:00 4.94 2860 44100 (1985) 532 (1934) 4700 724 901 1230 1400 2390 4720 6220 11400 14400
2021-02-24 00:30 4.93 2850 44100 (1985) 532 (1934) 4700 724 901 1230 1400 2390 4720 6220 11400 14400
2021-02-24 00:00 4.92 2830 44100 (1985) 532 (1934) 4700 724 901 1230 1400 2390 4720 6220 11400 14400
2021-02-23 23:30 4.91 2820 29700 (1985) 562 (1934) 4450 735 906 1180 1410 2470 4420 6270 11200 18200
2021-02-23 23:00 4.92 2830 29700 (1985) 562 (1934) 4450 735 906 1180 1410 2470 4420 6270 11200 18200
2021-02-23 22:30 4.90 2800 29700 (1985) 562 (1934) 4450 735 906 1180 1410 2470 4420 6270 11200 18200
2021-02-23 22:00 4.89 2790 29700 (1985) 562 (1934) 4450 735 906 1180 1410 2470 4420 6270 11200 18200
2021-02-23 21:30 4.89 2790 29700 (1985) 562 (1934) 4450 735 906 1180 1410 2470 4420 6270 11200 18200
2021-02-23 21:00 4.88 2780 29700 (1985) 562 (1934) 4450 735 906 1180 1410 2470 4420 6270 11200 18200
2021-02-23 20:30 4.88 2780 29700 (1985) 562 (1934) 4450 735 906 1180 1410 2470 4420 6270 11200 18200
2021-02-23 20:00 4.88 2780 29700 (1985) 562 (1934) 4450 735 906 1180 1410 2470 4420 6270 11200 18200
2021-02-23 19:30 4.88 2780 29700 (1985) 562 (1934) 4450 735 906 1180 1410 2470 4420 6270 11200 18200
2021-02-23 19:00 4.88 2780 29700 (1985) 562 (1934) 4450 735 906 1180 1410 2470 4420 6270 11200 18200
2021-02-23 18:30 4.88 2780 29700 (1985) 562 (1934) 4450 735 906 1180 1410 2470 4420 6270 11200 18200
2021-02-23 18:00 4.88 2780 29700 (1985) 562 (1934) 4450 735 906 1180 1410 2470 4420 6270 11200 18200
2021-02-23 17:30 4.88 2780 29700 (1985) 562 (1934) 4450 735 906 1180 1410 2470 4420 6270 11200 18200
2021-02-23 17:00 4.89 2790 29700 (1985) 562 (1934) 4450 735 906 1180 1410 2470 4420 6270 11200 18200
2021-02-23 16:30 4.89 2790 29700 (1985) 562 (1934) 4450 735 906 1180 1410 2470 4420 6270 11200 18200
2021-02-23 16:00 4.89 2790 29700 (1985) 562 (1934) 4450 735 906 1180 1410 2470 4420 6270 11200 18200
2021-02-23 15:30 4.90 2800 29700 (1985) 562 (1934) 4450 735 906 1180 1410 2470 4420 6270 11200 18200
2021-02-23 15:00 4.91 2820 29700 (1985) 562 (1934) 4450 735 906 1180 1410 2470 4420 6270 11200 18200
2021-02-23 14:30 4.90 2800 29700 (1985) 562 (1934) 4450 735 906 1180 1410 2470 4420 6270 11200 18200
2021-02-23 14:00 4.92 2830 29700 (1985) 562 (1934) 4450 735 906 1180 1410 2470 4420 6270 11200 18200
2021-02-23 13:30 4.93 2850 29700 (1985) 562 (1934) 4450 735 906 1180 1410 2470 4420 6270 11200 18200
2021-02-23 13:00 4.91 2820 29700 (1985) 562 (1934) 4450 735 906 1180 1410 2470 4420 6270 11200 18200
2021-02-23 12:30 4.92 2830 29700 (1985) 562 (1934) 4450 735 906 1180 1410 2470 4420 6270 11200 18200
2021-02-23 12:00 4.91 2820 29700 (1985) 562 (1934) 4450 735 906 1180 1410 2470 4420 6270 11200 18200
2021-02-23 11:30 4.93 2850 29700 (1985) 562 (1934) 4450 735 906 1180 1410 2470 4420 6270 11200 18200
2021-02-23 11:00 4.92 2830 29700 (1985) 562 (1934) 4450 735 906 1180 1410 2470 4420 6270 11200 18200
2021-02-23 10:30 4.93 2850 29700 (1985) 562 (1934) 4450 735 906 1180 1410 2470 4420 6270 11200 18200
2021-02-23 10:00 4.91 2820 29700 (1985) 562 (1934) 4450 735 906 1180 1410 2470 4420 6270 11200 18200
2021-02-23 09:30 4.91 2820 29700 (1985) 562 (1934) 4450 735 906 1180 1410 2470 4420 6270 11200 18200
2021-02-23 09:00 4.91 2820 29700 (1985) 562 (1934) 4450 735 906 1180 1410 2470 4420 6270 11200 18200
2021-02-23 08:30 4.89 2790 29700 (1985) 562 (1934) 4450 735 906 1180 1410 2470 4420 6270 11200 18200
2021-02-23 08:00 4.88 2780 29700 (1985) 562 (1934) 4450 735 906 1180 1410 2470 4420 6270 11200 18200
2021-02-23 07:30 4.87 2760 29700 (1985) 562 (1934) 4450 735 906 1180 1410 2470 4420 6270 11200 18200
2021-02-23 07:00 4.87 2760 29700 (1985) 562 (1934) 4450 735 906 1180 1410 2470 4420 6270 11200 18200
2021-02-23 06:30 4.86 2750 29700 (1985) 562 (1934) 4450 735 906 1180 1410 2470 4420 6270 11200 18200
2021-02-23 06:00 4.85 2730 29700 (1985) 562 (1934) 4450 735 906 1180 1410 2470 4420 6270 11200 18200
2021-02-23 05:30 4.82 2690 29700 (1985) 562 (1934) 4450 735 906 1180 1410 2470 4420 6270 11200 18200
2021-02-23 05:00 4.81 2680 29700 (1985) 562 (1934) 4450 735 906 1180 1410 2470 4420 6270 11200 18200
2021-02-23 04:30 4.80 2660 29700 (1985) 562 (1934) 4450 735 906 1180 1410 2470 4420 6270 11200 18200
2021-02-23 04:00 4.79 2650 29700 (1985) 562 (1934) 4450 735 906 1180 1410 2470 4420 6270 11200 18200
2021-02-23 03:30 4.77 2620 29700 (1985) 562 (1934) 4450 735 906 1180 1410 2470 4420 6270 11200 18200
2021-02-23 03:00 4.77 2620 29700 (1985) 562 (1934) 4450 735 906 1180 1410 2470 4420 6270 11200 18200
2021-02-23 02:30 4.75 2590 29700 (1985) 562 (1934) 4450 735 906 1180 1410 2470 4420 6270 11200 18200
2021-02-23 02:00 4.75 2590 29700 (1985) 562 (1934) 4450 735 906 1180 1410 2470 4420 6270 11200 18200
2021-02-23 01:30 4.74 2580 29700 (1985) 562 (1934) 4450 735 906 1180 1410 2470 4420 6270 11200 18200
2021-02-23 01:00 4.73 2560 29700 (1985) 562 (1934) 4450 735 906 1180 1410 2470 4420 6270 11200 18200
2021-02-23 00:30 4.71 2530 29700 (1985) 562 (1934) 4450 735 906 1180 1410 2470 4420 6270 11200 18200
2021-02-23 00:00 4.70 2520 29700 (1985) 562 (1934) 4450 735 906 1180 1410 2470 4420 6270 11200 18200
2021-02-22 23:30 4.70 2520 33700 (1951) 562 (1934) 4280 772 941 1140 1350 2490 3760 5000 11900 16900
2021-02-22 23:00 4.69 2510 33700 (1951) 562 (1934) 4280 772 941 1140 1350 2490 3760 5000 11900 16900
2021-02-22 22:30 4.67 2480 33700 (1951) 562 (1934) 4280 772 941 1140 1350 2490 3760 5000 11900 16900
2021-02-22 22:00 4.65 2450 33700 (1951) 562 (1934) 4280 772 941 1140 1350 2490 3760 5000 11900 16900
2021-02-22 21:30 4.65 2450 33700 (1951) 562 (1934) 4280 772 941 1140 1350 2490 3760 5000 11900 16900
2021-02-22 21:00 4.64 2440 33700 (1951) 562 (1934) 4280 772 941 1140 1350 2490 3760 5000 11900 16900
2021-02-22 20:30 4.64 2440 33700 (1951) 562 (1934) 4280 772 941 1140 1350 2490 3760 5000 11900 16900
2021-02-22 20:00 4.61 2400 33700 (1951) 562 (1934) 4280 772 941 1140 1350 2490 3760 5000 11900 16900
2021-02-22 19:30 4.60 2380 33700 (1951) 562 (1934) 4280 772 941 1140 1350 2490 3760 5000 11900 16900
2021-02-22 19:00 4.59 2370 33700 (1951) 562 (1934) 4280 772 941 1140 1350 2490 3760 5000 11900 16900
2021-02-22 18:30 4.58 2350 33700 (1951) 562 (1934) 4280 772 941 1140 1350 2490 3760 5000 11900 16900
2021-02-22 18:00 4.55 2310 33700 (1951) 562 (1934) 4280 772 941 1140 1350 2490 3760 5000 11900 16900
2021-02-22 17:30 4.53 2290 33700 (1951) 562 (1934) 4280 772 941 1140 1350 2490 3760 5000 11900 16900
2021-02-22 17:00 4.50 2240 33700 (1951) 562 (1934) 4280 772 941 1140 1350 2490 3760 5000 11900 16900
2021-02-22 16:30 4.49 2230 33700 (1951) 562 (1934) 4280 772 941 1140 1350 2490 3760 5000 11900 16900
2021-02-22 16:00 4.47 2200 33700 (1951) 562 (1934) 4280 772 941 1140 1350 2490 3760 5000 11900 16900
2021-02-22 15:30 4.45 2180 33700 (1951) 562 (1934) 4280 772 941 1140 1350 2490 3760 5000 11900 16900
2021-02-22 15:00 4.45 2180 33700 (1951) 562 (1934) 4280 772 941 1140 1350 2490 3760 5000 11900 16900
2021-02-22 14:30 4.44 2160 33700 (1951) 562 (1934) 4280 772 941 1140 1350 2490 3760 5000 11900 16900
2021-02-22 14:00 4.43 2150 33700 (1951) 562 (1934) 4280 772 941 1140 1350 2490 3760 5000 11900 16900
2021-02-22 13:30 4.41 2120 33700 (1951) 562 (1934) 4280 772 941 1140 1350 2490 3760 5000 11900 16900
2021-02-22 13:00 4.41 2120 33700 (1951) 562 (1934) 4280 772 941 1140 1350 2490 3760 5000 11900 16900
2021-02-22 12:30 4.41 2120 33700 (1951) 562 (1934) 4280 772 941 1140 1350 2490 3760 5000 11900 16900
2021-02-22 12:00 4.41 2120 33700 (1951) 562 (1934) 4280 772 941 1140 1350 2490 3760 5000 11900 16900
2021-02-22 11:30 4.40 2110 33700 (1951) 562 (1934) 4280 772 941 1140 1350 2490 3760 5000 11900 16900
2021-02-22 11:00 4.41 2120 33700 (1951) 562 (1934) 4280 772 941 1140 1350 2490 3760 5000 11900 16900
2021-02-22 10:30 4.40 2110 33700 (1951) 562 (1934) 4280 772 941 1140 1350 2490 3760 5000 11900 16900
2021-02-22 10:00 4.40 2110 33700 (1951) 562 (1934) 4280 772 941 1140 1350 2490 3760 5000 11900 16900
2021-02-22 09:30 4.41 2120 33700 (1951) 562 (1934) 4280 772 941 1140 1350 2490 3760 5000 11900 16900
2021-02-22 09:00 4.41 2120 33700 (1951) 562 (1934) 4280 772 941 1140 1350 2490 3760 5000 11900 16900
2021-02-22 08:30 4.40 2110 33700 (1951) 562 (1934) 4280 772 941 1140 1350 2490 3760 5000 11900 16900
2021-02-22 08:00 4.41 2120 33700 (1951) 562 (1934) 4280 772 941 1140 1350 2490 3760 5000 11900 16900
2021-02-22 07:30 4.41 2120 33700 (1951) 562 (1934) 4280 772 941 1140 1350 2490 3760 5000 11900 16900
2021-02-22 07:00 4.41 2120 33700 (1951) 562 (1934) 4280 772 941 1140 1350 2490 3760 5000 11900 16900
2021-02-22 06:30 4.41 2120 33700 (1951) 562 (1934) 4280 772 941 1140 1350 2490 3760 5000 11900 16900
2021-02-22 06:00 4.41 2120 33700 (1951) 562 (1934) 4280 772 941 1140 1350 2490 3760 5000 11900 16900
2021-02-22 05:30 4.41 2120 33700 (1951) 562 (1934) 4280 772 941 1140 1350 2490 3760 5000 11900 16900
2021-02-22 05:00 4.42 2140 33700 (1951) 562 (1934) 4280 772 941 1140 1350 2490 3760 5000 11900 16900
2021-02-22 04:30 4.42 2140 33700 (1951) 562 (1934) 4280 772 941 1140 1350 2490 3760 5000 11900 16900
2021-02-22 04:00 4.42 2140 33700 (1951) 562 (1934) 4280 772 941 1140 1350 2490 3760 5000 11900 16900
2021-02-22 03:30 4.42 2140 33700 (1951) 562 (1934) 4280 772 941 1140 1350 2490 3760 5000 11900 16900
2021-02-22 03:00 4.42 2140 33700 (1951) 562 (1934) 4280 772 941 1140 1350 2490 3760 5000 11900 16900
2021-02-22 02:30 4.43 2150 33700 (1951) 562 (1934) 4280 772 941 1140 1350 2490 3760 5000 11900 16900
2021-02-22 02:00 4.43 2150 33700 (1951) 562 (1934) 4280 772 941 1140 1350 2490 3760 5000 11900 16900
2021-02-22 01:30 4.43 2150 33700 (1951) 562 (1934) 4280 772 941 1140 1350 2490 3760 5000 11900 16900
2021-02-22 01:00 4.44 2160 33700 (1951) 562 (1934) 4280 772 941 1140 1350 2490 3760 5000 11900 16900
2021-02-22 00:30 4.45 2180 33700 (1951) 562 (1934) 4280 772 941 1140 1350 2490 3760 5000 11900 16900
2021-02-22 00:00 4.46 2190 33700 (1951) 562 (1934) 4280 772 941 1140 1350 2490 3760 5000 11900 16900
2021-02-21 23:30 4.46 2190 42000 (1938) 562 (1934) 4170 807 925 1150 1410 2380 3760 4490 8630 15900
2021-02-21 23:00 4.47 2200 42000 (1938) 562 (1934) 4170 807 925 1150 1410 2380 3760 4490 8630 15900
2021-02-21 22:30 4.46 2190 42000 (1938) 562 (1934) 4170 807 925 1150 1410 2380 3760 4490 8630 15900
2021-02-21 22:00 4.46 2190 42000 (1938) 562 (1934) 4170 807 925 1150 1410 2380 3760 4490 8630 15900
2021-02-21 21:30 4.47 2200 42000 (1938) 562 (1934) 4170 807 925 1150 1410 2380 3760 4490 8630 15900
2021-02-21 21:00 4.46 2190 42000 (1938) 562 (1934) 4170 807 925 1150 1410 2380 3760 4490 8630 15900
2021-02-21 20:30 4.47 2200 42000 (1938) 562 (1934) 4170 807 925 1150 1410 2380 3760 4490 8630 15900
2021-02-21 20:00 4.47 2200 42000 (1938) 562 (1934) 4170 807 925 1150 1410 2380 3760 4490 8630 15900
2021-02-21 19:30 4.47 2200 42000 (1938) 562 (1934) 4170 807 925 1150 1410 2380 3760 4490 8630 15900
2021-02-21 19:00 4.48 2220 42000 (1938) 562 (1934) 4170 807 925 1150 1410 2380 3760 4490 8630 15900
2021-02-21 18:30 4.49 2230 42000 (1938) 562 (1934) 4170 807 925 1150 1410 2380 3760 4490 8630 15900
2021-02-21 18:00 4.49 2230 42000 (1938) 562 (1934) 4170 807 925 1150 1410 2380 3760 4490 8630 15900
2021-02-21 17:30 4.50 2240 42000 (1938) 562 (1934) 4170 807 925 1150 1410 2380 3760 4490 8630 15900
2021-02-21 17:00 4.50 2240 42000 (1938) 562 (1934) 4170 807 925 1150 1410 2380 3760 4490 8630 15900
2021-02-21 16:30 4.51 2260 42000 (1938) 562 (1934) 4170 807 925 1150 1410 2380 3760 4490 8630 15900
2021-02-21 16:00 4.52 2270 42000 (1938) 562 (1934) 4170 807 925 1150 1410 2380 3760 4490 8630 15900
2021-02-21 15:30 4.53 2290 42000 (1938) 562 (1934) 4170 807 925 1150 1410 2380 3760 4490 8630 15900
2021-02-21 15:00 4.55 2310 42000 (1938) 562 (1934) 4170 807 925 1150 1410 2380 3760 4490 8630 15900
2021-02-21 14:30 4.59 2370 42000 (1938) 562 (1934) 4170 807 925 1150 1410 2380 3760 4490 8630 15900
2021-02-21 14:00 4.62 2410 42000 (1938) 562 (1934) 4170 807 925 1150 1410 2380 3760 4490 8630 15900
2021-02-21 13:30 4.65 2450 42000 (1938) 562 (1934) 4170 807 925 1150 1410 2380 3760 4490 8630 15900
2021-02-21 13:00 4.67 2480 42000 (1938) 562 (1934) 4170 807 925 1150 1410 2380 3760 4490 8630 15900
2021-02-21 12:30 4.68 2490 42000 (1938) 562 (1934) 4170 807 925 1150 1410 2380 3760 4490 8630 15900
2021-02-21 12:00 4.68 2490 42000 (1938) 562 (1934) 4170 807 925 1150 1410 2380 3760 4490 8630 15900
2021-02-21 11:30 4.66 2460 42000 (1938) 562 (1934) 4170 807 925 1150 1410 2380 3760 4490 8630 15900
2021-02-21 11:00 4.63 2420 42000 (1938) 562 (1934) 4170 807 925 1150 1410 2380 3760 4490 8630 15900
2021-02-21 10:30 4.59 2370 42000 (1938) 562 (1934) 4170 807 925 1150 1410 2380 3760 4490 8630 15900
2021-02-21 10:00 4.54 2300 42000 (1938) 562 (1934) 4170 807 925 1150 1410 2380 3760 4490 8630 15900
2021-02-21 09:30 4.51 2260 42000 (1938) 562 (1934) 4170 807 925 1150 1410 2380 3760 4490 8630 15900
2021-02-21 09:00 4.49 2230 42000 (1938) 562 (1934) 4170 807 925 1150 1410 2380 3760 4490 8630 15900
2021-02-21 08:30 4.48 2220 42000 (1938) 562 (1934) 4170 807 925 1150 1410 2380 3760 4490 8630 15900
2021-02-21 08:00 4.49 2230 42000 (1938) 562 (1934) 4170 807 925 1150 1410 2380 3760 4490 8630 15900
2021-02-21 07:30 4.49 2230 42000 (1938) 562 (1934) 4170 807 925 1150 1410 2380 3760 4490 8630 15900
2021-02-21 07:00 4.51 2260 42000 (1938) 562 (1934) 4170 807 925 1150 1410 2380 3760 4490 8630 15900
2021-02-21 06:30 4.51 2260 42000 (1938) 562 (1934) 4170 807 925 1150 1410 2380 3760 4490 8630 15900
2021-02-21 06:00 4.53 2290 42000 (1938) 562 (1934) 4170 807 925 1150 1410 2380 3760 4490 8630 15900
2021-02-21 05:30 4.54 2300 42000 (1938) 562 (1934) 4170 807 925 1150 1410 2380 3760 4490 8630 15900
2021-02-21 05:00 4.56 2330 42000 (1938) 562 (1934) 4170 807 925 1150 1410 2380 3760 4490 8630 15900
2021-02-21 04:30 4.57 2340 42000 (1938) 562 (1934) 4170 807 925 1150 1410 2380 3760 4490 8630 15900
2021-02-21 04:00 4.59 2370 42000 (1938) 562 (1934) 4170 807 925 1150 1410 2380 3760 4490 8630 15900
2021-02-21 03:30 4.60 2380 42000 (1938) 562 (1934) 4170 807 925 1150 1410 2380 3760 4490 8630 15900
2021-02-21 03:00 4.61 2400 42000 (1938) 562 (1934) 4170 807 925 1150 1410 2380 3760 4490 8630 15900
2021-02-21 02:30 4.61 2400 42000 (1938) 562 (1934) 4170 807 925 1150 1410 2380 3760 4490 8630 15900
2021-02-21 02:00 4.63 2420 42000 (1938) 562 (1934) 4170 807 925 1150 1410 2380 3760 4490 8630 15900
2021-02-21 01:30 4.64 2440 42000 (1938) 562 (1934) 4170 807 925 1150 1410 2380 3760 4490 8630 15900
2021-02-21 01:00 4.65 2450 42000 (1938) 562 (1934) 4170 807 925 1150 1410 2380 3760 4490 8630 15900
2021-02-21 00:30 4.66 2460 42000 (1938) 562 (1934) 4170 807 925 1150 1410 2380 3760 4490 8630 15900
2021-02-21 00:00 4.67 2480 42000 (1938) 562 (1934) 4170 807 925 1150 1410 2380 3760 4490 8630 15900
2021-02-20 23:30 4.66 2460 43100 (1938) 532 (1934) 4040 765 907 1120 1190 2230 3730 4410 6670 13000
2021-02-20 23:00 4.66 2460 43100 (1938) 532 (1934) 4040 765 907 1120 1190 2230 3730 4410 6670 13000
2021-02-20 22:30 4.64 2440 43100 (1938) 532 (1934) 4040 765 907 1120 1190 2230 3730 4410 6670 13000
2021-02-20 22:00 4.61 2400 43100 (1938) 532 (1934) 4040 765 907 1120 1190 2230 3730 4410 6670 13000
2021-02-20 21:30 4.58 2350 43100 (1938) 532 (1934) 4040 765 907 1120 1190 2230 3730 4410 6670 13000
2021-02-20 21:00 4.57 2340 43100 (1938) 532 (1934) 4040 765 907 1120 1190 2230 3730 4410 6670 13000
2021-02-20 20:30 4.58 2350 43100 (1938) 532 (1934) 4040 765 907 1120 1190 2230 3730 4410 6670 13000
2021-02-20 20:00 4.59 2370 43100 (1938) 532 (1934) 4040 765 907 1120 1190 2230 3730 4410 6670 13000
2021-02-20 19:30 4.61 2400 43100 (1938) 532 (1934) 4040 765 907 1120 1190 2230 3730 4410 6670 13000
2021-02-20 19:00 4.61 2400 43100 (1938) 532 (1934) 4040 765 907 1120 1190 2230 3730 4410 6670 13000
2021-02-20 18:30 4.62 2410 43100 (1938) 532 (1934) 4040 765 907 1120 1190 2230 3730 4410 6670 13000
2021-02-20 18:00 4.64 2440 43100 (1938) 532 (1934) 4040 765 907 1120 1190 2230 3730 4410 6670 13000
2021-02-20 17:30 4.65 2450 43100 (1938) 532 (1934) 4040 765 907 1120 1190 2230 3730 4410 6670 13000
2021-02-20 17:00 4.66 2460 43100 (1938) 532 (1934) 4040 765 907 1120 1190 2230 3730 4410 6670 13000
2021-02-20 16:30 4.69 2510 43100 (1938) 532 (1934) 4040 765 907 1120 1190 2230 3730 4410 6670 13000
2021-02-20 16:00 4.73 2560 43100 (1938) 532 (1934) 4040 765 907 1120 1190 2230 3730 4410 6670 13000
2021-02-20 15:30 4.78 2630 43100 (1938) 532 (1934) 4040 765 907 1120 1190 2230 3730 4410 6670 13000
2021-02-20 15:00 4.82 2690 43100 (1938) 532 (1934) 4040 765 907 1120 1190 2230 3730 4410 6670 13000
2021-02-20 14:30 4.90 2800 43100 (1938) 532 (1934) 4040 765 907 1120 1190 2230 3730 4410 6670 13000
2021-02-20 14:00 4.95 2880 43100 (1938) 532 (1934) 4040 765 907 1120 1190 2230 3730 4410 6670 13000
2021-02-20 13:30 4.98 2920 43100 (1938) 532 (1934) 4040 765 907 1120 1190 2230 3730 4410 6670 13000
2021-02-20 13:00 4.99 2930 43100 (1938) 532 (1934) 4040 765 907 1120 1190 2230 3730 4410 6670 13000
2021-02-20 12:30 5.00 2950 43100 (1938) 532 (1934) 4040 765 907 1120 1190 2230 3730 4410 6670 13000
2021-02-20 12:00 5.00 2950 43100 (1938) 532 (1934) 4040 765 907 1120 1190 2230 3730 4410 6670 13000
2021-02-20 11:30 4.99 2930 43100 (1938) 532 (1934) 4040 765 907 1120 1190 2230 3730 4410 6670 13000
2021-02-20 11:00 4.96 2890 43100 (1938) 532 (1934) 4040 765 907 1120 1190 2230 3730 4410 6670 13000
2021-02-20 10:30 4.93 2850 43100 (1938) 532 (1934) 4040 765 907 1120 1190 2230 3730 4410 6670 13000
2021-02-20 10:00 4.92 2830 43100 (1938) 532 (1934) 4040 765 907 1120 1190 2230 3730 4410 6670 13000
2021-02-20 09:30 4.94 2860 43100 (1938) 532 (1934) 4040 765 907 1120 1190 2230 3730 4410 6670 13000
2021-02-20 09:00 4.95 2880 43100 (1938) 532 (1934) 4040 765 907 1120 1190 2230 3730 4410 6670 13000
2021-02-20 08:30 4.96 2890 43100 (1938) 532 (1934) 4040 765 907 1120 1190 2230 3730 4410 6670 13000
2021-02-20 08:00 4.97 2910 43100 (1938) 532 (1934) 4040 765 907 1120 1190 2230 3730 4410 6670 13000
2021-02-20 07:30 4.98 2920 43100 (1938) 532 (1934) 4040 765 907 1120 1190 2230 3730 4410 6670 13000
2021-02-20 07:00 4.98 2920 43100 (1938) 532 (1934) 4040 765 907 1120 1190 2230 3730 4410 6670 13000
2021-02-20 06:30 5.00 2950 43100 (1938) 532 (1934) 4040 765 907 1120 1190 2230 3730 4410 6670 13000
2021-02-20 06:00 5.00 2950 43100 (1938) 532 (1934) 4040 765 907 1120 1190 2230 3730 4410 6670 13000
2021-02-20 05:30 5.00 2950 43100 (1938) 532 (1934) 4040 765 907 1120 1190 2230 3730 4410 6670 13000
2021-02-20 05:00 5.00 2950 43100 (1938) 532 (1934) 4040 765 907 1120 1190 2230 3730 4410 6670 13000
2021-02-20 04:30 5.01 2960 43100 (1938) 532 (1934) 4040 765 907 1120 1190 2230 3730 4410 6670 13000
2021-02-20 04:00 5.00 2950 43100 (1938) 532 (1934) 4040 765 907 1120 1190 2230 3730 4410 6670 13000
2021-02-20 03:30 4.99 2930 43100 (1938) 532 (1934) 4040 765 907 1120 1190 2230 3730 4410 6670 13000
2021-02-20 03:00 5.00 2950 43100 (1938) 532 (1934) 4040 765 907 1120 1190 2230 3730 4410 6670 13000
2021-02-20 02:30 4.99 2930 43100 (1938) 532 (1934) 4040 765 907 1120 1190 2230 3730 4410 6670 13000
2021-02-20 02:00 4.99 2930 43100 (1938) 532 (1934) 4040 765 907 1120 1190 2230 3730 4410 6670 13000
2021-02-20 01:30 5.00 2950 43100 (1938) 532 (1934) 4040 765 907 1120 1190 2230 3730 4410 6670 13000
2021-02-20 01:00 5.00 2950 43100 (1938) 532 (1934) 4040 765 907 1120 1190 2230 3730 4410 6670 13000
2021-02-20 00:30 5.00 2950 43100 (1938) 532 (1934) 4040 765 907 1120 1190 2230 3730 4410 6670 13000
2021-02-20 00:00 5.00 2950 43100 (1938) 532 (1934) 4040 765 907 1120 1190 2230 3730 4410 6670 13000
2021-02-19 23:30 5.00 2950 40400 (1982) 532 (1934) 3910 757 855 1070 1170 2440 3740 4490 6820 15000
2021-02-19 23:00 5.02 2980 40400 (1982) 532 (1934) 3910 757 855 1070 1170 2440 3740 4490 6820 15000
2021-02-19 22:30 5.04 3010 40400 (1982) 532 (1934) 3910 757 855 1070 1170 2440 3740 4490 6820 15000
2021-02-19 22:00 5.06 3040 40400 (1982) 532 (1934) 3910 757 855 1070 1170 2440 3740 4490 6820 15000
2021-02-19 21:30 5.06 3040 40400 (1982) 532 (1934) 3910 757 855 1070 1170 2440 3740 4490 6820 15000
2021-02-19 21:00 5.06 3040 40400 (1982) 532 (1934) 3910 757 855 1070 1170 2440 3740 4490 6820 15000
2021-02-19 20:30 5.07 3050 40400 (1982) 532 (1934) 3910 757 855 1070 1170 2440 3740 4490 6820 15000
2021-02-19 20:00 5.08 3070 40400 (1982) 532 (1934) 3910 757 855 1070 1170 2440 3740 4490 6820 15000
2021-02-19 19:30 5.09 3080 40400 (1982) 532 (1934) 3910 757 855 1070 1170 2440 3740 4490 6820 15000
2021-02-19 19:00 5.11 3110 40400 (1982) 532 (1934) 3910 757 855 1070 1170 2440 3740 4490 6820 15000
2021-02-19 18:30 5.12 3130 40400 (1982) 532 (1934) 3910 757 855 1070 1170 2440 3740 4490 6820 15000
2021-02-19 18:00 5.11 3110 40400 (1982) 532 (1934) 3910 757 855 1070 1170 2440 3740 4490 6820 15000
2021-02-19 17:30 5.15 3170 40400 (1982) 532 (1934) 3910 757 855 1070 1170 2440 3740 4490 6820 15000
2021-02-19 17:00 5.20 3240 40400 (1982) 532 (1934) 3910 757 855 1070 1170 2440 3740 4490 6820 15000
2021-02-19 16:30 5.24 3300 40400 (1982) 532 (1934) 3910 757 855 1070 1170 2440 3740 4490 6820 15000
2021-02-19 16:00 5.31 3410 40400 (1982) 532 (1934) 3910 757 855 1070 1170 2440 3740 4490 6820 15000
2021-02-19 15:30 5.36 3490 40400 (1982) 532 (1934) 3910 757 855 1070 1170 2440 3740 4490 6820 15000
2021-02-19 15:00 5.42 3580 40400 (1982) 532 (1934) 3910 757 855 1070 1170 2440 3740 4490 6820 15000
2021-02-19 14:30 5.43 3590 40400 (1982) 532 (1934) 3910 757 855 1070 1170 2440 3740 4490 6820 15000
2021-02-19 14:00 5.46 3640 40400 (1982) 532 (1934) 3910 757 855 1070 1170 2440 3740 4490 6820 15000
2021-02-19 13:30 5.46 3640 40400 (1982) 532 (1934) 3910 757 855 1070 1170 2440 3740 4490 6820 15000
2021-02-19 13:00 5.44 3610 40400 (1982) 532 (1934) 3910 757 855 1070 1170 2440 3740 4490 6820 15000
2021-02-19 12:30 5.40 3550 40400 (1982) 532 (1934) 3910 757 855 1070 1170 2440 3740 4490 6820 15000
2021-02-19 12:00 5.34 3460 40400 (1982) 532 (1934) 3910 757 855 1070 1170 2440 3740 4490 6820 15000
2021-02-19 11:30 5.29 3380 40400 (1982) 532 (1934) 3910 757 855 1070 1170 2440 3740 4490 6820 15000
2021-02-19 11:00 5.28 3360 40400 (1982) 532 (1934) 3910 757 855 1070 1170 2440 3740 4490 6820 15000
2021-02-19 10:30 5.28 3360 40400 (1982) 532 (1934) 3910 757 855 1070 1170 2440 3740 4490 6820 15000
2021-02-19 10:00 5.29 3380 40400 (1982) 532 (1934) 3910 757 855 1070 1170 2440 3740 4490 6820 15000
2021-02-19 09:30 5.30 3390 40400 (1982) 532 (1934) 3910 757 855 1070 1170 2440 3740 4490 6820 15000
2021-02-19 09:00 5.31 3410 40400 (1982) 532 (1934) 3910 757 855 1070 1170 2440 3740 4490 6820 15000
2021-02-19 08:30 5.31 3410 40400 (1982) 532 (1934) 3910 757 855 1070 1170 2440 3740 4490 6820 15000
2021-02-19 08:00 5.32 3430 40400 (1982) 532 (1934) 3910 757 855 1070 1170 2440 3740 4490 6820 15000
2021-02-19 07:30 5.34 3460 40400 (1982) 532 (1934) 3910 757 855 1070 1170 2440 3740 4490 6820 15000
2021-02-19 07:00 5.35 3470 40400 (1982) 532 (1934) 3910 757 855 1070 1170 2440 3740 4490 6820 15000
2021-02-19 06:30 5.35 3470 40400 (1982) 532 (1934) 3910 757 855 1070 1170 2440 3740 4490 6820 15000
2021-02-19 06:00 5.37 3500 40400 (1982) 532 (1934) 3910 757 855 1070 1170 2440 3740 4490 6820 15000
2021-02-19 05:30 5.36 3490 40400 (1982) 532 (1934) 3910 757 855 1070 1170 2440 3740 4490 6820 15000
2021-02-19 05:00 5.38 3520 40400 (1982) 532 (1934) 3910 757 855 1070 1170 2440 3740 4490 6820 15000
2021-02-19 04:30 5.38 3520 40400 (1982) 532 (1934) 3910 757 855 1070 1170 2440 3740 4490 6820 15000
2021-02-19 04:00 5.39 3530 40400 (1982) 532 (1934) 3910 757 855 1070 1170 2440 3740 4490 6820 15000
2021-02-19 03:30 5.40 3550 40400 (1982) 532 (1934) 3910 757 855 1070 1170 2440 3740 4490 6820 15000
2021-02-19 03:00 5.40 3550 40400 (1982) 532 (1934) 3910 757 855 1070 1170 2440 3740 4490 6820 15000
2021-02-19 02:30 5.40 3550 40400 (1982) 532 (1934) 3910 757 855 1070 1170 2440 3740 4490 6820 15000
2021-02-19 02:00 5.41 3560 40400 (1982) 532 (1934) 3910 757 855 1070 1170 2440 3740 4490 6820 15000
2021-02-19 01:30 5.42 3580 40400 (1982) 532 (1934) 3910 757 855 1070 1170 2440 3740 4490 6820 15000
2021-02-19 01:00 5.44 3610 40400 (1982) 532 (1934) 3910 757 855 1070 1170 2440 3740 4490 6820 15000
2021-02-19 00:30 5.44 3610 40400 (1982) 532 (1934) 3910 757 855 1070 1170 2440 3740 4490 6820 15000
2021-02-19 00:00 5.46 3640 40400 (1982) 532 (1934) 3910 757 855 1070 1170 2440 3740 4490 6820 15000
2021-02-18 23:30 5.47 3650 34700 (1982) 517 (1954) 3760 647 890 1060 1180 2430 3960 4450 7210 13200
2021-02-18 23:00 5.50 3700 34700 (1982) 517 (1954) 3760 647 890 1060 1180 2430 3960 4450 7210 13200
2021-02-18 22:30 5.53 3750 34700 (1982) 517 (1954) 3760 647 890 1060 1180 2430 3960 4450 7210 13200
2021-02-18 22:00 5.55 3780 34700 (1982) 517 (1954) 3760 647 890 1060 1180 2430 3960 4450 7210 13200
2021-02-18 21:30 5.58 3830 34700 (1982) 517 (1954) 3760 647 890 1060 1180 2430 3960 4450 7210 13200
2021-02-18 21:00 5.60 3860 34700 (1982) 517 (1954) 3760 647 890 1060 1180 2430 3960 4450 7210 13200
2021-02-18 20:30 5.61 3870 34700 (1982) 517 (1954) 3760 647 890 1060 1180 2430 3960 4450 7210 13200
2021-02-18 20:00 5.62 3890 34700 (1982) 517 (1954) 3760 647 890 1060 1180 2430 3960 4450 7210 13200
2021-02-18 19:30 5.62 3890 34700 (1982) 517 (1954) 3760 647 890 1060 1180 2430 3960 4450 7210 13200
2021-02-18 19:00 5.63 3900 34700 (1982) 517 (1954) 3760 647 890 1060 1180 2430 3960 4450 7210 13200
2021-02-18 18:30 5.65 3930 34700 (1982) 517 (1954) 3760 647 890 1060 1180 2430 3960 4450 7210 13200
2021-02-18 18:00 5.65 3930 34700 (1982) 517 (1954) 3760 647 890 1060 1180 2430 3960 4450 7210 13200
2021-02-18 17:30 5.66 3950 34700 (1982) 517 (1954) 3760 647 890 1060 1180 2430 3960 4450 7210 13200
2021-02-18 17:00 5.67 3970 34700 (1982) 517 (1954) 3760 647 890 1060 1180 2430 3960 4450 7210 13200
2021-02-18 16:30 5.68 3980 34700 (1982) 517 (1954) 3760 647 890 1060 1180 2430 3960 4450 7210 13200
2021-02-18 16:00 5.70 4010 34700 (1982) 517 (1954) 3760 647 890 1060 1180 2430 3960 4450 7210 13200
2021-02-18 15:30 5.72 4050 34700 (1982) 517 (1954) 3760 647 890 1060 1180 2430 3960 4450 7210 13200
2021-02-18 15:00 5.73 4060 34700 (1982) 517 (1954) 3760 647 890 1060 1180 2430 3960 4450 7210 13200
2021-02-18 14:30 5.72 4050 34700 (1982) 517 (1954) 3760 647 890 1060 1180 2430 3960 4450 7210 13200
2021-02-18 14:00 5.75 4090 34700 (1982) 517 (1954) 3760 647 890 1060 1180 2430 3960 4450 7210 13200
2021-02-18 13:30 5.77 4120 34700 (1982) 517 (1954) 3760 647 890 1060 1180 2430 3960 4450 7210 13200
2021-02-18 13:00 5.77 4120 34700 (1982) 517 (1954) 3760 647 890 1060 1180 2430 3960 4450 7210 13200
2021-02-18 12:30 5.71 4030 34700 (1982) 517 (1954) 3760 647 890 1060 1180 2430 3960 4450 7210 13200
2021-02-18 12:00 5.69 4000 34700 (1982) 517 (1954) 3760 647 890 1060 1180 2430 3960 4450 7210 13200
2021-02-18 11:30 5.70 4010 34700 (1982) 517 (1954) 3760 647 890 1060 1180 2430 3960 4450 7210 13200
2021-02-18 11:00 5.67 3970 34700 (1982) 517 (1954) 3760 647 890 1060 1180 2430 3960 4450 7210 13200
2021-02-18 10:30 5.66 3950 34700 (1982) 517 (1954) 3760 647 890 1060 1180 2430 3960 4450 7210 13200
2021-02-18 10:00 5.65 3930 34700 (1982) 517 (1954) 3760 647 890 1060 1180 2430 3960 4450 7210 13200
2021-02-18 09:30 5.65 3930 34700 (1982) 517 (1954) 3760 647 890 1060 1180 2430 3960 4450 7210 13200
2021-02-18 09:00 5.65 3930 34700 (1982) 517 (1954) 3760 647 890 1060 1180 2430 3960 4450 7210 13200
2021-02-18 08:30 5.64 3920 34700 (1982) 517 (1954) 3760 647 890 1060 1180 2430 3960 4450 7210 13200
2021-02-18 08:00 5.65 3930 34700 (1982) 517 (1954) 3760 647 890 1060 1180 2430 3960 4450 7210 13200
2021-02-18 07:30 5.64 3920 34700 (1982) 517 (1954) 3760 647 890 1060 1180 2430 3960 4450 7210 13200
2021-02-18 07:00 5.64 3920 34700 (1982) 517 (1954) 3760 647 890 1060 1180 2430 3960 4450 7210 13200
2021-02-18 06:30 5.63 3900 34700 (1982) 517 (1954) 3760 647 890 1060 1180 2430 3960 4450 7210 13200
2021-02-18 06:00 5.62 3890 34700 (1982) 517 (1954) 3760 647 890 1060 1180 2430 3960 4450 7210 13200
2021-02-18 05:30 5.60 3860 34700 (1982) 517 (1954) 3760 647 890 1060 1180 2430 3960 4450 7210 13200
2021-02-18 05:00 5.59 3840 34700 (1982) 517 (1954) 3760 647 890 1060 1180 2430 3960 4450 7210 13200
2021-02-18 04:30 5.56 3790 34700 (1982) 517 (1954) 3760 647 890 1060 1180 2430 3960 4450 7210 13200
2021-02-18 04:00 5.55 3780 34700 (1982) 517 (1954) 3760 647 890 1060 1180 2430 3960 4450 7210 13200
2021-02-18 03:30 5.53 3750 34700 (1982) 517 (1954) 3760 647 890 1060 1180 2430 3960 4450 7210 13200
2021-02-18 03:00 5.51 3720 34700 (1982) 517 (1954) 3760 647 890 1060 1180 2430 3960 4450 7210 13200
2021-02-18 02:30 5.50 3700 34700 (1982) 517 (1954) 3760 647 890 1060 1180 2430 3960 4450 7210 13200
2021-02-18 02:00 5.48 3670 34700 (1982) 517 (1954) 3760 647 890 1060 1180 2430 3960 4450 7210 13200
2021-02-18 01:30 5.48 3670 34700 (1982) 517 (1954) 3760 647 890 1060 1180 2430 3960 4450 7210 13200
2021-02-18 01:00 5.46 3640 34700 (1982) 517 (1954) 3760 647 890 1060 1180 2430 3960 4450 7210 13200
2021-02-18 00:30 5.46 3640 34700 (1982) 517 (1954) 3760 647 890 1060 1180 2430 3960 4450 7210 13200
2021-02-18 00:00 5.45 3620 34700 (1982) 517 (1954) 3760 647 890 1060 1180 2430 3960 4450 7210 13200
2021-02-17 23:30 5.45 3620 34600 (1949) 492 (1954) 3680 646 824 1110 1190 2570 4060 4660 6660 10200
2021-02-17 23:00 5.45 3620 34600 (1949) 492 (1954) 3680 646 824 1110 1190 2570 4060 4660 6660 10200
2021-02-17 22:30 5.45 3620 34600 (1949) 492 (1954) 3680 646 824 1110 1190 2570 4060 4660 6660 10200
2021-02-17 22:00 5.45 3620 34600 (1949) 492 (1954) 3680 646 824 1110 1190 2570 4060 4660 6660 10200
2021-02-17 21:30 5.45 3620 34600 (1949) 492 (1954) 3680 646 824 1110 1190 2570 4060 4660 6660 10200
2021-02-17 21:00 5.45 3620 34600 (1949) 492 (1954) 3680 646 824 1110 1190 2570 4060 4660 6660 10200
2021-02-17 20:30 5.45 3620 34600 (1949) 492 (1954) 3680 646 824 1110 1190 2570 4060 4660 6660 10200
2021-02-17 20:00 5.45 3620 34600 (1949) 492 (1954) 3680 646 824 1110 1190 2570 4060 4660 6660 10200
2021-02-17 19:30 5.46 3640 34600 (1949) 492 (1954) 3680 646 824 1110 1190 2570 4060 4660 6660 10200
2021-02-17 19:00 5.48 3670 34600 (1949) 492 (1954) 3680 646 824 1110 1190 2570 4060 4660 6660 10200
2021-02-17 18:30 5.49 3690 34600 (1949) 492 (1954) 3680 646 824 1110 1190 2570 4060 4660 6660 10200
2021-02-17 18:00 5.52 3730 34600 (1949) 492 (1954) 3680 646 824 1110 1190 2570 4060 4660 6660 10200
2021-02-17 17:30 5.55 3780 34600 (1949) 492 (1954) 3680 646 824 1110 1190 2570 4060 4660 6660 10200
2021-02-17 17:00 5.58 3830 34600 (1949) 492 (1954) 3680 646 824 1110 1190 2570 4060 4660 6660 10200
2021-02-17 16:30 5.61 3870 34600 (1949) 492 (1954) 3680 646 824 1110 1190 2570 4060 4660 6660 10200
2021-02-17 16:00 5.63 3900 34600 (1949) 492 (1954) 3680 646 824 1110 1190 2570 4060 4660 6660 10200
2021-02-17 15:30 5.63 3900 34600 (1949) 492 (1954) 3680 646 824 1110 1190 2570 4060 4660 6660 10200
2021-02-17 15:00 5.63 3900 34600 (1949) 492 (1954) 3680 646 824 1110 1190 2570 4060 4660 6660 10200
2021-02-17 14:30 5.64 3920 34600 (1949) 492 (1954) 3680 646 824 1110 1190 2570 4060 4660 6660 10200
2021-02-17 14:00 5.62 3890 34600 (1949) 492 (1954) 3680 646 824 1110 1190 2570 4060 4660 6660 10200
2021-02-17 13:30 5.59 3840 34600 (1949) 492 (1954) 3680 646 824 1110 1190 2570 4060 4660 6660 10200
2021-02-17 13:00 5.55 3780 34600 (1949) 492 (1954) 3680 646 824 1110 1190 2570 4060 4660 6660 10200
2021-02-17 12:30 5.52 3730 34600 (1949) 492 (1954) 3680 646 824 1110 1190 2570 4060 4660 6660 10200
2021-02-17 12:00 5.50 3700 34600 (1949) 492 (1954) 3680 646 824 1110 1190 2570 4060 4660 6660 10200
2021-02-17 11:30 5.49 3690 34600 (1949) 492 (1954) 3680 646 824 1110 1190 2570 4060 4660 6660 10200
2021-02-17 11:00 5.49 3690 34600 (1949) 492 (1954) 3680 646 824 1110 1190 2570 4060 4660 6660 10200
2021-02-17 10:30 5.47 3650 34600 (1949) 492 (1954) 3680 646 824 1110 1190 2570 4060 4660 6660 10200
2021-02-17 10:00 5.48 3670 34600 (1949) 492 (1954) 3680 646 824 1110 1190 2570 4060 4660 6660 10200
2021-02-17 09:30 5.48 3670 34600 (1949) 492 (1954) 3680 646 824 1110 1190 2570 4060 4660 6660 10200
2021-02-17 09:00 5.47 3650 34600 (1949) 492 (1954) 3680 646 824 1110 1190 2570 4060 4660 6660 10200
2021-02-17 08:30 5.50 3700 34600 (1949) 492 (1954) 3680 646 824 1110 1190 2570 4060 4660 6660 10200
2021-02-17 08:00 5.50 3700 34600 (1949) 492 (1954) 3680 646 824 1110 1190 2570 4060 4660 6660 10200
2021-02-17 07:30 5.51 3720 34600 (1949) 492 (1954) 3680 646 824 1110 1190 2570 4060 4660 6660 10200
2021-02-17 07:00 5.51 3720 34600 (1949) 492 (1954) 3680 646 824 1110 1190 2570 4060 4660 6660 10200
2021-02-17 06:30 5.50 3700 34600 (1949) 492 (1954) 3680 646 824 1110 1190 2570 4060 4660 6660 10200
2021-02-17 06:00 5.50 3700 34600 (1949) 492 (1954) 3680 646 824 1110 1190 2570 4060 4660 6660 10200
2021-02-17 05:30 5.50 3700 34600 (1949) 492 (1954) 3680 646 824 1110 1190 2570 4060 4660 6660 10200
2021-02-17 05:00 5.50 3700 34600 (1949) 492 (1954) 3680 646 824 1110 1190 2570 4060 4660 6660 10200
2021-02-17 04:30 5.49 3690 34600 (1949) 492 (1954) 3680 646 824 1110 1190 2570 4060 4660 6660 10200
2021-02-17 04:00 5.49 3690 34600 (1949) 492 (1954) 3680 646 824 1110 1190 2570 4060 4660 6660 10200
2021-02-17 03:30 5.49 3690 34600 (1949) 492 (1954) 3680 646 824 1110 1190 2570 4060 4660 6660 10200
2021-02-17 03:00 5.48 3670 34600 (1949) 492 (1954) 3680 646 824 1110 1190 2570 4060 4660 6660 10200
2021-02-17 02:30 5.47 3650 34600 (1949) 492 (1954) 3680 646 824 1110 1190 2570 4060 4660 6660 10200
2021-02-17 02:00 5.46 3640 34600 (1949) 492 (1954) 3680 646 824 1110 1190 2570 4060 4660 6660 10200
2021-02-17 01:30 5.46 3640 34600 (1949) 492 (1954) 3680 646 824 1110 1190 2570 4060 4660 6660 10200
2021-02-17 01:00 5.45 3620 34600 (1949) 492 (1954) 3680 646 824 1110 1190 2570 4060 4660 6660 10200
2021-02-17 00:30 5.45 3620 34600 (1949) 492 (1954) 3680 646 824 1110 1190 2570 4060 4660 6660 10200
2021-02-17 00:00 5.45 3620 34600 (1949) 492 (1954) 3680 646 824 1110 1190 2570 4060 4660 6660 10200
2021-02-16 23:30 5.46 3640 38700 (1946) 484 (1954) 3490 630 805 1080 1210 2140 3940 4560 6980 9720
2021-02-16 23:00 5.48 3670 38700 (1946) 484 (1954) 3490 630 805 1080 1210 2140 3940 4560 6980 9720
2021-02-16 22:30 5.49 3690 38700 (1946) 484 (1954) 3490 630 805 1080 1210 2140 3940 4560 6980 9720
2021-02-16 22:00 5.50 3700 38700 (1946) 484 (1954) 3490 630 805 1080 1210 2140 3940 4560 6980 9720
2021-02-16 21:30 5.51 3720 38700 (1946) 484 (1954) 3490 630 805 1080 1210 2140 3940 4560 6980 9720
2021-02-16 21:00 5.53 3750 38700 (1946) 484 (1954) 3490 630 805 1080 1210 2140 3940 4560 6980 9720
2021-02-16 20:30 5.54 3760 38700 (1946) 484 (1954) 3490 630 805 1080 1210 2140 3940 4560 6980 9720
2021-02-16 20:00 5.52 3730 38700 (1946) 484 (1954) 3490 630 805 1080 1210 2140 3940 4560 6980 9720
2021-02-16 19:30 5.53 3750 38700 (1946) 484 (1954) 3490 630 805 1080 1210 2140 3940 4560 6980 9720
2021-02-16 19:00 5.53 3750 38700 (1946) 484 (1954) 3490 630 805 1080 1210 2140 3940 4560 6980 9720
2021-02-16 18:30 5.54 3760 38700 (1946) 484 (1954) 3490 630 805 1080 1210 2140 3940 4560 6980 9720
2021-02-16 18:00 5.54 3760 38700 (1946) 484 (1954) 3490 630 805 1080 1210 2140 3940 4560 6980 9720
2021-02-16 17:30 5.55 3780 38700 (1946) 484 (1954) 3490 630 805 1080 1210 2140 3940 4560 6980 9720
2021-02-16 17:00 5.57 3810 38700 (1946) 484 (1954) 3490 630 805 1080 1210 2140 3940 4560 6980 9720
2021-02-16 16:30 5.58 3830 38700 (1946) 484 (1954) 3490 630 805 1080 1210 2140 3940 4560 6980 9720
2021-02-16 16:00 5.59 3840 38700 (1946) 484 (1954) 3490 630 805 1080 1210 2140 3940 4560 6980 9720
2021-02-16 15:30 5.59 3840 38700 (1946) 484 (1954) 3490 630 805 1080 1210 2140 3940 4560 6980 9720
2021-02-16 15:00 5.59 3840 38700 (1946) 484 (1954) 3490 630 805 1080 1210 2140 3940 4560 6980 9720
2021-02-16 14:30 5.57 3810 38700 (1946) 484 (1954) 3490 630 805 1080 1210 2140 3940 4560 6980 9720
2021-02-16 14:00 5.56 3790 38700 (1946) 484 (1954) 3490 630 805 1080 1210 2140 3940 4560 6980 9720
2021-02-16 13:30 5.54 3760 38700 (1946) 484 (1954) 3490 630 805 1080 1210 2140 3940 4560 6980 9720
2021-02-16 13:00 5.51 3720 38700 (1946) 484 (1954) 3490 630 805 1080 1210 2140 3940 4560 6980 9720
2021-02-16 12:30 5.45 3620 38700 (1946) 484 (1954) 3490 630 805 1080 1210 2140 3940 4560 6980 9720
2021-02-16 12:00 5.42 3580 38700 (1946) 484 (1954) 3490 630 805 1080 1210 2140 3940 4560 6980 9720
2021-02-16 11:30 5.39 3530 38700 (1946) 484 (1954) 3490 630 805 1080 1210 2140 3940 4560 6980 9720
2021-02-16 11:00 5.37 3500 38700 (1946) 484 (1954) 3490 630 805 1080 1210 2140 3940 4560 6980 9720
2021-02-16 10:30 5.34 3460 38700 (1946) 484 (1954) 3490 630 805 1080 1210 2140 3940 4560 6980 9720
2021-02-16 10:00 5.31 3410 38700 (1946) 484 (1954) 3490 630 805 1080 1210 2140 3940 4560 6980 9720
2021-02-16 09:30 5.28 3360 38700 (1946) 484 (1954) 3490 630 805 1080 1210 2140 3940 4560 6980 9720
2021-02-16 09:00 5.26 3330 38700 (1946) 484 (1954) 3490 630 805 1080 1210 2140 3940 4560 6980 9720
2021-02-16 08:30 5.27 3350 38700 (1946) 484 (1954) 3490 630 805 1080 1210 2140 3940 4560 6980 9720
2021-02-16 08:00 5.27 3350 38700 (1946) 484 (1954) 3490 630 805 1080 1210 2140 3940 4560 6980 9720
2021-02-16 07:30 5.26 3330 38700 (1946) 484 (1954) 3490 630 805 1080 1210 2140 3940 4560 6980 9720
2021-02-16 07:00 5.26 3330 38700 (1946) 484 (1954) 3490 630 805 1080 1210 2140 3940 4560 6980 9720
2021-02-16 06:30 5.25 3320 38700 (1946) 484 (1954) 3490 630 805 1080 1210 2140 3940 4560 6980 9720
2021-02-16 06:00 5.24 3300 38700 (1946) 484 (1954) 3490 630 805 1080 1210 2140 3940 4560 6980 9720
2021-02-16 05:30 5.22 3270 38700 (1946) 484 (1954) 3490 630 805 1080 1210 2140 3940 4560 6980 9720
2021-02-16 05:00 5.19 3230 38700 (1946) 484 (1954) 3490 630 805 1080 1210 2140 3940 4560 6980 9720
2021-02-16 04:30 5.16 3180 38700 (1946) 484 (1954) 3490 630 805 1080 1210 2140 3940 4560 6980 9720
2021-02-16 04:00 5.14 3160 38700 (1946) 484 (1954) 3490 630 805 1080 1210 2140 3940 4560 6980 9720
2021-02-16 03:30 5.14 3160 38700 (1946) 484 (1954) 3490 630 805 1080 1210 2140 3940 4560 6980 9720
2021-02-16 03:00 5.15 3170 38700 (1946) 484 (1954) 3490 630 805 1080 1210 2140 3940 4560 6980 9720
2021-02-16 02:30 5.15 3170 38700 (1946) 484 (1954) 3490 630 805 1080 1210 2140 3940 4560 6980 9720
2021-02-16 02:00 5.26 3330 38700 (1946) 484 (1954) 3490 630 805 1080 1210 2140 3940 4560 6980 9720
2021-02-16 01:30 5.00 2950 38700 (1946) 484 (1954) 3490 630 805 1080 1210 2140 3940 4560 6980 9720
2021-02-16 01:00 4.94 2860 38700 (1946) 484 (1954) 3490 630 805 1080 1210 2140 3940 4560 6980 9720
2021-02-16 00:30 4.92 2830 38700 (1946) 484 (1954) 3490 630 805 1080 1210 2140 3940 4560 6980 9720
2021-02-16 00:00 4.92 2830 38700 (1946) 484 (1954) 3490 630 805 1080 1210 2140 3940 4560 6980 9720
2021-02-15 23:30 5.01 2960 30100 (1946) 476 (1954) 3420 609 747 1060 1190 2250 3630 4080 7390 12300
2021-02-15 23:00 4.95 2880 30100 (1946) 476 (1954) 3420 609 747 1060 1190 2250 3630 4080 7390 12300
2021-02-15 22:30 4.92 2830 30100 (1946) 476 (1954) 3420 609 747 1060 1190 2250 3630 4080 7390 12300
2021-02-15 22:00 4.82 2690 30100 (1946) 476 (1954) 3420 609 747 1060 1190 2250 3630 4080 7390 12300
2021-02-15 21:30 4.69 2510 30100 (1946) 476 (1954) 3420 609 747 1060 1190 2250 3630 4080 7390 12300
2021-02-15 21:00 4.59 2370 30100 (1946) 476 (1954) 3420 609 747 1060 1190 2250 3630 4080 7390 12300
2021-02-15 20:30 4.50 2240 30100 (1946) 476 (1954) 3420 609 747 1060 1190 2250 3630 4080 7390 12300
2021-02-15 20:00 4.39 2100 30100 (1946) 476 (1954) 3420 609 747 1060 1190 2250 3630 4080 7390 12300
2021-02-15 19:30 4.30 1980 30100 (1946) 476 (1954) 3420 609 747 1060 1190 2250 3630 4080 7390 12300
2021-02-15 19:00 4.25 1910 30100 (1946) 476 (1954) 3420 609 747 1060 1190 2250 3630 4080 7390 12300
2021-02-15 18:30 4.35 2040 30100 (1946) 476 (1954) 3420 609 747 1060 1190 2250 3630 4080 7390 12300
2021-02-15 18:00 4.27 1940 30100 (1946) 476 (1954) 3420 609 747 1060 1190 2250 3630 4080 7390 12300
2021-02-15 17:30 4.15 1780 30100 (1946) 476 (1954) 3420 609 747 1060 1190 2250 3630 4080 7390 12300
2021-02-15 17:00 4.05 1660 30100 (1946) 476 (1954) 3420 609 747 1060 1190 2250 3630 4080 7390 12300
2021-02-15 16:30 3.97 1560 30100 (1946) 476 (1954) 3420 609 747 1060 1190 2250 3630 4080 7390 12300
2021-02-15 16:00 3.92 1490 30100 (1946) 476 (1954) 3420 609 747 1060 1190 2250 3630 4080 7390 12300
2021-02-15 15:30 3.88 1440 30100 (1946) 476 (1954) 3420 609 747 1060 1190 2250 3630 4080 7390 12300
2021-02-15 15:00 3.87 1430 30100 (1946) 476 (1954) 3420 609 747 1060 1190 2250 3630 4080 7390 12300
2021-02-15 14:30 3.84 1390 30100 (1946) 476 (1954) 3420 609 747 1060 1190 2250 3630 4080 7390 12300
2021-02-15 14:00 3.84 1390 30100 (1946) 476 (1954) 3420 609 747 1060 1190 2250 3630 4080 7390 12300
2021-02-15 13:30 3.84 1390 30100 (1946) 476 (1954) 3420 609 747 1060 1190 2250 3630 4080 7390 12300
2021-02-15 13:00 3.86 1410 30100 (1946) 476 (1954) 3420 609 747 1060 1190 2250 3630 4080 7390 12300
2021-02-15 12:30 3.86 1410 30100 (1946) 476 (1954) 3420 609 747 1060 1190 2250 3630 4080 7390 12300
2021-02-15 12:00 3.87 1430 30100 (1946) 476 (1954) 3420 609 747 1060 1190 2250 3630 4080 7390 12300
2021-02-15 11:30 3.89 1450 30100 (1946) 476 (1954) 3420 609 747 1060 1190 2250 3630 4080 7390 12300
2021-02-15 11:00 3.90 1470 30100 (1946) 476 (1954) 3420 609 747 1060 1190 2250 3630 4080 7390 12300
2021-02-15 10:30 3.92 1490 30100 (1946) 476 (1954) 3420 609 747 1060 1190 2250 3630 4080 7390 12300
2021-02-15 10:00 3.96 1540 30100 (1946) 476 (1954) 3420 609 747 1060 1190 2250 3630 4080 7390 12300
2021-02-15 09:30 4.00 1590 30100 (1946) 476 (1954) 3420 609 747 1060 1190 2250 3630 4080 7390 12300
2021-02-15 09:00 4.04 1640 30100 (1946) 476 (1954) 3420 609 747 1060 1190 2250 3630 4080 7390 12300
2021-02-15 08:30 4.09 1710 30100 (1946) 476 (1954) 3420 609 747 1060 1190 2250 3630 4080 7390 12300
2021-02-15 08:00 4.13 1760 30100 (1946) 476 (1954) 3420 609 747 1060 1190 2250 3630 4080 7390 12300
2021-02-15 07:30 4.16 1790 30100 (1946) 476 (1954) 3420 609 747 1060 1190 2250 3630 4080 7390 12300
2021-02-15 07:00 4.20 1840 30100 (1946) 476 (1954) 3420 609 747 1060 1190 2250 3630 4080 7390 12300
2021-02-15 06:30 4.21 1860 30100 (1946) 476 (1954) 3420 609 747 1060 1190 2250 3630 4080 7390 12300
2021-02-15 06:00 4.23 1880 30100 (1946) 476 (1954) 3420 609 747 1060 1190 2250 3630 4080 7390 12300
2021-02-15 05:30 4.25 1910 30100 (1946) 476 (1954) 3420 609 747 1060 1190 2250 3630 4080 7390 12300
2021-02-15 05:00 4.26 1920 30100 (1946) 476 (1954) 3420 609 747 1060 1190 2250 3630 4080 7390 12300
2021-02-15 04:30 4.29 1960 30100 (1946) 476 (1954) 3420 609 747 1060 1190 2250 3630 4080 7390 12300
2021-02-15 04:00 4.29 1960 30100 (1946) 476 (1954) 3420 609 747 1060 1190 2250 3630 4080 7390 12300
2021-02-15 03:30 4.30 1980 30100 (1946) 476 (1954) 3420 609 747 1060 1190 2250 3630 4080 7390 12300
2021-02-15 03:00 4.30 1980 30100 (1946) 476 (1954) 3420 609 747 1060 1190 2250 3630 4080 7390 12300
2021-02-15 02:30 4.31 1990 30100 (1946) 476 (1954) 3420 609 747 1060 1190 2250 3630 4080 7390 12300
2021-02-15 02:00 4.33 2020 30100 (1946) 476 (1954) 3420 609 747 1060 1190 2250 3630 4080 7390 12300
2021-02-15 01:30 4.33 2020 30100 (1946) 476 (1954) 3420 609 747 1060 1190 2250 3630 4080 7390 12300
2021-02-15 01:00 4.35 2040 30100 (1946) 476 (1954) 3420 609 747 1060 1190 2250 3630 4080 7390 12300
2021-02-15 00:30 4.37 2070 30100 (1946) 476 (1954) 3420 609 747 1060 1190 2250 3630 4080 7390 12300
2021-02-15 00:00 4.39 2100 30100 (1946) 476 (1954) 3420 609 747 1060 1190 2250 3630 4080 7390 12300
2021-02-14 23:30 4.41 2120 33500 (1966) 476 (1954) 3430 588 756 1050 1190 2130 3360 3720 5670 13800
2021-02-14 23:00 4.42 2140 33500 (1966) 476 (1954) 3430 588 756 1050 1190 2130 3360 3720 5670 13800
2021-02-14 22:30 4.44 2160 33500 (1966) 476 (1954) 3430 588 756 1050 1190 2130 3360 3720 5670 13800
2021-02-14 22:00 4.44 2160 33500 (1966) 476 (1954) 3430 588 756 1050 1190 2130 3360 3720 5670 13800
2021-02-14 21:30 4.46 2190 33500 (1966) 476 (1954) 3430 588 756 1050 1190 2130 3360 3720 5670 13800
2021-02-14 21:00 4.45 2180 33500 (1966) 476 (1954) 3430 588 756 1050 1190 2130 3360 3720 5670 13800
2021-02-14 20:30 4.46 2190 33500 (1966) 476 (1954) 3430 588 756 1050 1190 2130 3360 3720 5670 13800
2021-02-14 20:00 4.46 2190 33500 (1966) 476 (1954) 3430 588 756 1050 1190 2130 3360 3720 5670 13800
2021-02-14 19:30 4.45 2180 33500 (1966) 476 (1954) 3430 588 756 1050 1190 2130 3360 3720 5670 13800
2021-02-14 19:00 4.45 2180 33500 (1966) 476 (1954) 3430 588 756 1050 1190 2130 3360 3720 5670 13800
2021-02-14 18:30 4.44 2160 33500 (1966) 476 (1954) 3430 588 756 1050 1190 2130 3360 3720 5670 13800
2021-02-14 18:00 4.44 2160 33500 (1966) 476 (1954) 3430 588 756 1050 1190 2130 3360 3720 5670 13800
2021-02-14 17:30 4.45 2180 33500 (1966) 476 (1954) 3430 588 756 1050 1190 2130 3360 3720 5670 13800
2021-02-14 17:00 4.46 2190 33500 (1966) 476 (1954) 3430 588 756 1050 1190 2130 3360 3720 5670 13800
2021-02-14 16:30 4.47 2200 33500 (1966) 476 (1954) 3430 588 756 1050 1190 2130 3360 3720 5670 13800
2021-02-14 16:00 4.48 2220 33500 (1966) 476 (1954) 3430 588 756 1050 1190 2130 3360 3720 5670 13800
2021-02-14 15:30 4.51 2260 33500 (1966) 476 (1954) 3430 588 756 1050 1190 2130 3360 3720 5670 13800
2021-02-14 15:00 4.52 2270 33500 (1966) 476 (1954) 3430 588 756 1050 1190 2130 3360 3720 5670 13800
2021-02-14 14:30 4.54 2300 33500 (1966) 476 (1954) 3430 588 756 1050 1190 2130 3360 3720 5670 13800
2021-02-14 14:00 4.55 2310 33500 (1966) 476 (1954) 3430 588 756 1050 1190 2130 3360 3720 5670 13800
2021-02-14 13:30 4.54 2300 33500 (1966) 476 (1954) 3430 588 756 1050 1190 2130 3360 3720 5670 13800
2021-02-14 13:00 4.53 2290 33500 (1966) 476 (1954) 3430 588 756 1050 1190 2130 3360 3720 5670 13800
2021-02-14 12:30 4.51 2260 33500 (1966) 476 (1954) 3430 588 756 1050 1190 2130 3360 3720 5670 13800
2021-02-14 12:00 4.55 2310 33500 (1966) 476 (1954) 3430 588 756 1050 1190 2130 3360 3720 5670 13800
2021-02-14 11:30 4.54 2300 33500 (1966) 476 (1954) 3430 588 756 1050 1190 2130 3360 3720 5670 13800
2021-02-14 11:00 4.53 2290 33500 (1966) 476 (1954) 3430 588 756 1050 1190 2130 3360 3720 5670 13800
2021-02-14 10:30 4.54 2300 33500 (1966) 476 (1954) 3430 588 756 1050 1190 2130 3360 3720 5670 13800
2021-02-14 10:00 4.53 2290 33500 (1966) 476 (1954) 3430 588 756 1050 1190 2130 3360 3720 5670 13800
2021-02-14 09:30 4.54 2300 33500 (1966) 476 (1954) 3430 588 756 1050 1190 2130 3360 3720 5670 13800
2021-02-14 09:00 4.57 2340 33500 (1966) 476 (1954) 3430 588 756 1050 1190 2130 3360 3720 5670 13800
2021-02-14 08:30 4.54 2300 33500 (1966) 476 (1954) 3430 588 756 1050 1190 2130 3360 3720 5670 13800
2021-02-14 08:00 4.56 2330 33500 (1966) 476 (1954) 3430 588 756 1050 1190 2130 3360 3720 5670 13800
2021-02-14 07:30 4.58 2350 33500 (1966) 476 (1954) 3430 588 756 1050 1190 2130 3360 3720 5670 13800
2021-02-14 07:00 4.58 2350 33500 (1966) 476 (1954) 3430 588 756 1050 1190 2130 3360 3720 5670 13800
2021-02-14 06:30 4.58 2350 33500 (1966) 476 (1954) 3430 588 756 1050 1190 2130 3360 3720 5670 13800
2021-02-14 06:00 4.59 2370 33500 (1966) 476 (1954) 3430 588 756 1050 1190 2130 3360 3720 5670 13800
2021-02-14 05:30 4.58 2350 33500 (1966) 476 (1954) 3430 588 756 1050 1190 2130 3360 3720 5670 13800
2021-02-14 05:00 4.59 2370 33500 (1966) 476 (1954) 3430 588 756 1050 1190 2130 3360 3720 5670 13800
2021-02-14 04:30 4.58 2350 33500 (1966) 476 (1954) 3430 588 756 1050 1190 2130 3360 3720 5670 13800
2021-02-14 04:00 4.57 2340 33500 (1966) 476 (1954) 3430 588 756 1050 1190 2130 3360 3720 5670 13800
2021-02-14 03:30 4.57 2340 33500 (1966) 476 (1954) 3430 588 756 1050 1190 2130 3360 3720 5670 13800
2021-02-14 03:00 4.53 2290 33500 (1966) 476 (1954) 3430 588 756 1050 1190 2130 3360 3720 5670 13800
2021-02-14 02:30 4.53 2290 33500 (1966) 476 (1954) 3430 588 756 1050 1190 2130 3360 3720 5670 13800
2021-02-14 02:00 4.51 2260 33500 (1966) 476 (1954) 3430 588 756 1050 1190 2130 3360 3720 5670 13800
2021-02-14 01:30 4.51 2260 33500 (1966) 476 (1954) 3430 588 756 1050 1190 2130 3360 3720 5670 13800
2021-02-14 01:00 4.50 2240 33500 (1966) 476 (1954) 3430 588 756 1050 1190 2130 3360 3720 5670 13800
2021-02-14 00:30 4.51 2260 33500 (1966) 476 (1954) 3430 588 756 1050 1190 2130 3360 3720 5670 13800
2021-02-14 00:00 4.50 2240 33500 (1966) 476 (1954) 3430 588 756 1050 1190 2130 3360 3720 5670 13800
2021-02-13 23:30 4.52 2270 54400 (1966) 484 (1954) 3360 581 744 1020 1170 1990 3320 3620 5780 9130
2021-02-13 23:00 4.54 2300 54400 (1966) 484 (1954) 3360 581 744 1020 1170 1990 3320 3620 5780 9130
2021-02-13 22:30 4.56 2330 54400 (1966) 484 (1954) 3360 581 744 1020 1170 1990 3320 3620 5780 9130
2021-02-13 22:00 4.57 2340 54400 (1966) 484 (1954) 3360 581 744 1020 1170 1990 3320 3620 5780 9130
2021-02-13 21:30 4.59 2370 54400 (1966) 484 (1954) 3360 581 744 1020 1170 1990 3320 3620 5780 9130
2021-02-13 21:00 4.60 2380 54400 (1966) 484 (1954) 3360 581 744 1020 1170 1990 3320 3620 5780 9130
2021-02-13 20:30 4.60 2380 54400 (1966) 484 (1954) 3360 581 744 1020 1170 1990 3320 3620 5780 9130
2021-02-13 20:00 4.60 2380 54400 (1966) 484 (1954) 3360 581 744 1020 1170 1990 3320 3620 5780 9130
2021-02-13 19:30 4.60 2380 54400 (1966) 484 (1954) 3360 581 744 1020 1170 1990 3320 3620 5780 9130
2021-02-13 19:00 4.60 2380 54400 (1966) 484 (1954) 3360 581 744 1020 1170 1990 3320 3620 5780 9130
2021-02-13 18:30 4.59 2370 54400 (1966) 484 (1954) 3360 581 744 1020 1170 1990 3320 3620 5780 9130
2021-02-13 18:00 4.60 2380 54400 (1966) 484 (1954) 3360 581 744 1020 1170 1990 3320 3620 5780 9130
2021-02-13 17:30 4.61 2400 54400 (1966) 484 (1954) 3360 581 744 1020 1170 1990 3320 3620 5780 9130
2021-02-13 17:00 4.61 2400 54400 (1966) 484 (1954) 3360 581 744 1020 1170 1990 3320 3620 5780 9130
2021-02-13 16:30 4.62 2410 54400 (1966) 484 (1954) 3360 581 744 1020 1170 1990 3320 3620 5780 9130
2021-02-13 16:00 4.62 2410 54400 (1966) 484 (1954) 3360 581 744 1020 1170 1990 3320 3620 5780 9130
2021-02-13 15:30 4.63 2420 54400 (1966) 484 (1954) 3360 581 744 1020 1170 1990 3320 3620 5780 9130
2021-02-13 15:00 4.64 2440 54400 (1966) 484 (1954) 3360 581 744 1020 1170 1990 3320 3620 5780 9130
2021-02-13 14:30 4.64 2440 54400 (1966) 484 (1954) 3360 581 744 1020 1170 1990 3320 3620 5780 9130
2021-02-13 14:00 4.65 2450 54400 (1966) 484 (1954) 3360 581 744 1020 1170 1990 3320 3620 5780 9130
2021-02-13 13:30 4.66 2460 54400 (1966) 484 (1954) 3360 581 744 1020 1170 1990 3320 3620 5780 9130
2021-02-13 13:00 4.67 2480 54400 (1966) 484 (1954) 3360 581 744 1020 1170 1990 3320 3620 5780 9130
2021-02-13 12:30 4.67 2480 54400 (1966) 484 (1954) 3360 581 744 1020 1170 1990 3320 3620 5780 9130
2021-02-13 12:00 4.68 2490 54400 (1966) 484 (1954) 3360 581 744 1020 1170 1990 3320 3620 5780 9130
2021-02-13 11:30 4.68 2490 54400 (1966) 484 (1954) 3360 581 744 1020 1170 1990 3320 3620 5780 9130
2021-02-13 11:00 4.69 2510 54400 (1966) 484 (1954) 3360 581 744 1020 1170 1990 3320 3620 5780 9130
2021-02-13 10:30 4.69 2510 54400 (1966) 484 (1954) 3360 581 744 1020 1170 1990 3320 3620 5780 9130
2021-02-13 10:00 4.70 2520 54400 (1966) 484 (1954) 3360 581 744 1020 1170 1990 3320 3620 5780 9130
2021-02-13 09:30 4.70 2520 54400 (1966) 484 (1954) 3360 581 744 1020 1170 1990 3320 3620 5780 9130
2021-02-13 09:00 4.71 2530 54400 (1966) 484 (1954) 3360 581 744 1020 1170 1990 3320 3620 5780 9130
2021-02-13 08:30 4.70 2520 54400 (1966) 484 (1954) 3360 581 744 1020 1170 1990 3320 3620 5780 9130
2021-02-13 08:00 4.70 2520 54400 (1966) 484 (1954) 3360 581 744 1020 1170 1990 3320 3620 5780 9130
2021-02-13 07:30 4.69 2510 54400 (1966) 484 (1954) 3360 581 744 1020 1170 1990 3320 3620 5780 9130
2021-02-13 07:00 4.70 2520 54400 (1966) 484 (1954) 3360 581 744 1020 1170 1990 3320 3620 5780 9130
2021-02-13 06:30 4.70 2520 54400 (1966) 484 (1954) 3360 581 744 1020 1170 1990 3320 3620 5780 9130
2021-02-13 06:00 4.71 2530 54400 (1966) 484 (1954) 3360 581 744 1020 1170 1990 3320 3620 5780 9130
2021-02-13 05:30 4.71 2530 54400 (1966) 484 (1954) 3360 581 744 1020 1170 1990 3320 3620 5780 9130
2021-02-13 05:00 4.70 2520 54400 (1966) 484 (1954) 3360 581 744 1020 1170 1990 3320 3620 5780 9130
2021-02-13 04:30 4.71 2530 54400 (1966) 484 (1954) 3360 581 744 1020 1170 1990 3320 3620 5780 9130
2021-02-13 04:00 4.71 2530 54400 (1966) 484 (1954) 3360 581 744 1020 1170 1990 3320 3620 5780 9130
2021-02-13 03:30 4.71 2530 54400 (1966) 484 (1954) 3360 581 744 1020 1170 1990 3320 3620 5780 9130
2021-02-13 03:00 4.70 2520 54400 (1966) 484 (1954) 3360 581 744 1020 1170 1990 3320 3620 5780 9130
2021-02-13 02:30 4.70 2520 54400 (1966) 484 (1954) 3360 581 744 1020 1170 1990 3320 3620 5780 9130
2021-02-13 02:00 4.70 2520 54400 (1966) 484 (1954) 3360 581 744 1020 1170 1990 3320 3620 5780 9130
2021-02-13 01:30 4.69 2510 54400 (1966) 484 (1954) 3360 581 744 1020 1170 1990 3320 3620 5780 9130
2021-02-13 01:00 4.70 2520 54400 (1966) 484 (1954) 3360 581 744 1020 1170 1990 3320 3620 5780 9130
2021-02-13 00:30 4.69 2510 54400 (1966) 484 (1954) 3360 581 744 1020 1170 1990 3320 3620 5780 9130
2021-02-13 00:00 4.70 2520 54400 (1966) 484 (1954) 3360 581 744 1020 1170 1990 3320 3620 5780 9130
2021-02-12 23:30 4.69 2510 50800 (1966) 492 (1954) 3160 589 696 1010 1080 1970 3420 3650 5000 8640
2021-02-12 23:00 4.70 2520 50800 (1966) 492 (1954) 3160 589 696 1010 1080 1970 3420 3650 5000 8640
2021-02-12 22:30 4.70 2520 50800 (1966) 492 (1954) 3160 589 696 1010 1080 1970 3420 3650 5000 8640
2021-02-12 22:00 4.71 2530 50800 (1966) 492 (1954) 3160 589 696 1010 1080 1970 3420 3650 5000 8640
2021-02-12 21:30 4.70 2520 50800 (1966) 492 (1954) 3160 589 696 1010 1080 1970 3420 3650 5000 8640
2021-02-12 21:00 4.70 2520 50800 (1966) 492 (1954) 3160 589 696 1010 1080 1970 3420 3650 5000 8640
2021-02-12 20:30 4.70 2520 50800 (1966) 492 (1954) 3160 589 696 1010 1080 1970 3420 3650 5000 8640
2021-02-12 20:00 4.69 2510 50800 (1966) 492 (1954) 3160 589 696 1010 1080 1970 3420 3650 5000 8640
2021-02-12 19:30 4.71 2530 50800 (1966) 492 (1954) 3160 589 696 1010 1080 1970 3420 3650 5000 8640
2021-02-12 19:00 4.70 2520 50800 (1966) 492 (1954) 3160 589 696 1010 1080 1970 3420 3650 5000 8640
2021-02-12 18:30 4.72 2550 50800 (1966) 492 (1954) 3160 589 696 1010 1080 1970 3420 3650 5000 8640
2021-02-12 18:00 4.72 2550 50800 (1966) 492 (1954) 3160 589 696 1010 1080 1970 3420 3650 5000 8640
2021-02-12 17:30 4.72 2550 50800 (1966) 492 (1954) 3160 589 696 1010 1080 1970 3420 3650 5000 8640
2021-02-12 17:00 4.73 2560 50800 (1966) 492 (1954) 3160 589 696 1010 1080 1970 3420 3650 5000 8640
2021-02-12 16:30 4.73 2560 50800 (1966) 492 (1954) 3160 589 696 1010 1080 1970 3420 3650 5000 8640
2021-02-12 16:00 4.73 2560 50800 (1966) 492 (1954) 3160 589 696 1010 1080 1970 3420 3650 5000 8640
2021-02-12 15:30 4.75 2590 50800 (1966) 492 (1954) 3160 589 696 1010 1080 1970 3420 3650 5000 8640
2021-02-12 15:00 4.75 2590 50800 (1966) 492 (1954) 3160 589 696 1010 1080 1970 3420 3650 5000 8640
2021-02-12 14:30 4.75 2590 50800 (1966) 492 (1954) 3160 589 696 1010 1080 1970 3420 3650 5000 8640
2021-02-12 14:00 4.75 2590 50800 (1966) 492 (1954) 3160 589 696 1010 1080 1970 3420 3650 5000 8640
2021-02-12 13:30 4.76 2600 50800 (1966) 492 (1954) 3160 589 696 1010 1080 1970 3420 3650 5000 8640
2021-02-12 13:00 4.76 2600 50800 (1966) 492 (1954) 3160 589 696 1010 1080 1970 3420 3650 5000 8640
2021-02-12 12:30 4.78 2630 50800 (1966) 492 (1954) 3160 589 696 1010 1080 1970 3420 3650 5000 8640
2021-02-12 12:00 4.78 2630 50800 (1966) 492 (1954) 3160 589 696 1010 1080 1970 3420 3650 5000 8640
2021-02-12 11:30 4.78 2630 50800 (1966) 492 (1954) 3160 589 696 1010 1080 1970 3420 3650 5000 8640
2021-02-12 11:00 4.79 2650 50800 (1966) 492 (1954) 3160 589 696 1010 1080 1970 3420 3650 5000 8640
2021-02-12 10:30 4.80 2660 50800 (1966) 492 (1954) 3160 589 696 1010 1080 1970 3420 3650 5000 8640
2021-02-12 10:00 4.81 2680 50800 (1966) 492 (1954) 3160 589 696 1010 1080 1970 3420 3650 5000 8640
2021-02-12 09:30 4.81 2680 50800 (1966) 492 (1954) 3160 589 696 1010 1080 1970 3420 3650 5000 8640
2021-02-12 09:00 4.82 2690 50800 (1966) 492 (1954) 3160 589 696 1010 1080 1970 3420 3650 5000 8640
2021-02-12 08:30 4.80 2660 50800 (1966) 492 (1954) 3160 589 696 1010 1080 1970 3420 3650 5000 8640
2021-02-12 08:00 4.82 2690 50800 (1966) 492 (1954) 3160 589 696 1010 1080 1970 3420 3650 5000 8640
2021-02-12 07:30 4.82 2690 50800 (1966) 492 (1954) 3160 589 696 1010 1080 1970 3420 3650 5000 8640
2021-02-12 07:00 4.82 2690 50800 (1966) 492 (1954) 3160 589 696 1010 1080 1970 3420 3650 5000 8640
2021-02-12 06:30 4.82 2690 50800 (1966) 492 (1954) 3160 589 696 1010 1080 1970 3420 3650 5000 8640
2021-02-12 06:00 4.83 2700 50800 (1966) 492 (1954) 3160 589 696 1010 1080 1970 3420 3650 5000 8640
2021-02-12 05:30 4.83 2700 50800 (1966) 492 (1954) 3160 589 696 1010 1080 1970 3420 3650 5000 8640
2021-02-12 05:00 4.83 2700 50800 (1966) 492 (1954) 3160 589 696 1010 1080 1970 3420 3650 5000 8640
2021-02-12 04:30 4.84 2720 50800 (1966) 492 (1954) 3160 589 696 1010 1080 1970 3420 3650 5000 8640
2021-02-12 04:00 4.83 2700 50800 (1966) 492 (1954) 3160 589 696 1010 1080 1970 3420 3650 5000 8640
2021-02-12 03:30 4.84 2720 50800 (1966) 492 (1954) 3160 589 696 1010 1080 1970 3420 3650 5000 8640
2021-02-12 03:00 4.84 2720 50800 (1966) 492 (1954) 3160 589 696 1010 1080 1970 3420 3650 5000 8640
2021-02-12 02:30 4.84 2720 50800 (1966) 492 (1954) 3160 589 696 1010 1080 1970 3420 3650 5000 8640
2021-02-12 02:00 4.85 2730 50800 (1966) 492 (1954) 3160 589 696 1010 1080 1970 3420 3650 5000 8640
2021-02-12 01:30 4.84 2720 50800 (1966) 492 (1954) 3160 589 696 1010 1080 1970 3420 3650 5000 8640
2021-02-12 01:00 4.85 2730 50800 (1966) 492 (1954) 3160 589 696 1010 1080 1970 3420 3650 5000 8640
2021-02-12 00:30 4.84 2720 50800 (1966) 492 (1954) 3160 589 696 1010 1080 1970 3420 3650 5000 8640
2021-02-12 00:00 4.85 2730 50800 (1966) 492 (1954) 3160 589 696 1010 1080 1970 3420 3650 5000 8640
2021-02-11 23:30 4.86 2750 33700 (1966) 492 (1954) 3020 580 683 987 1080 2010 3620 4060 5870 7970
2021-02-11 23:00 4.86 2750 33700 (1966) 492 (1954) 3020 580 683 987 1080 2010 3620 4060 5870 7970
2021-02-11 22:30 4.87 2760 33700 (1966) 492 (1954) 3020 580 683 987 1080 2010 3620 4060 5870 7970
2021-02-11 22:00 4.85 2730 33700 (1966) 492 (1954) 3020 580 683 987 1080 2010 3620 4060 5870 7970
2021-02-11 21:30 4.87 2760 33700 (1966) 492 (1954) 3020 580 683 987 1080 2010 3620 4060 5870 7970
2021-02-11 21:00 4.87 2760 33700 (1966) 492 (1954) 3020 580 683 987 1080 2010 3620 4060 5870 7970
2021-02-11 20:30 4.86 2750 33700 (1966) 492 (1954) 3020 580 683 987 1080 2010 3620 4060 5870 7970
2021-02-11 20:00 4.88 2780 33700 (1966) 492 (1954) 3020 580 683 987 1080 2010 3620 4060 5870 7970
2021-02-11 19:30 4.87 2760 33700 (1966) 492 (1954) 3020 580 683 987 1080 2010 3620 4060 5870 7970
2021-02-11 19:00 4.87 2760 33700 (1966) 492 (1954) 3020 580 683 987 1080 2010 3620 4060 5870 7970
2021-02-11 18:30 4.89 2790 33700 (1966) 492 (1954) 3020 580 683 987 1080 2010 3620 4060 5870 7970
2021-02-11 18:00 4.89 2790 33700 (1966) 492 (1954) 3020 580 683 987 1080 2010 3620 4060 5870 7970
2021-02-11 17:30 4.89 2790 33700 (1966) 492 (1954) 3020 580 683 987 1080 2010 3620 4060 5870 7970
2021-02-11 17:00 4.89 2790 33700 (1966) 492 (1954) 3020 580 683 987 1080 2010 3620 4060 5870 7970
2021-02-11 16:30 4.90 2800 33700 (1966) 492 (1954) 3020 580 683 987 1080 2010 3620 4060 5870 7970
2021-02-11 16:00 4.90 2800 33700 (1966) 492 (1954) 3020 580 683 987 1080 2010 3620 4060 5870 7970
2021-02-11 15:30 4.90 2800 33700 (1966) 492 (1954) 3020 580 683 987 1080 2010 3620 4060 5870 7970
2021-02-11 15:00 4.91 2820 33700 (1966) 492 (1954) 3020 580 683 987 1080 2010 3620 4060 5870 7970
2021-02-11 14:30 4.91 2820 33700 (1966) 492 (1954) 3020 580 683 987 1080 2010 3620 4060 5870 7970
2021-02-11 14:00 4.91 2820 33700 (1966) 492 (1954) 3020 580 683 987 1080 2010 3620 4060 5870 7970
2021-02-11 13:30 4.92 2830 33700 (1966) 492 (1954) 3020 580 683 987 1080 2010 3620 4060 5870 7970
2021-02-11 13:00 4.92 2830 33700 (1966) 492 (1954) 3020 580 683 987 1080 2010 3620 4060 5870 7970
2021-02-11 12:30 4.93 2850 33700 (1966) 492 (1954) 3020 580 683 987 1080 2010 3620 4060 5870 7970
2021-02-11 12:00 4.94 2860 33700 (1966) 492 (1954) 3020 580 683 987 1080 2010 3620 4060 5870 7970
2021-02-11 11:30 4.95 2880 33700 (1966) 492 (1954) 3020 580 683 987 1080 2010 3620 4060 5870 7970
2021-02-11 11:00 4.93 2850 33700 (1966) 492 (1954) 3020 580 683 987 1080 2010 3620 4060 5870 7970
2021-02-11 10:30 4.96 2890 33700 (1966) 492 (1954) 3020 580 683 987 1080 2010 3620 4060 5870 7970
2021-02-11 10:00 4.94 2860 33700 (1966) 492 (1954) 3020 580 683 987 1080 2010 3620 4060 5870 7970
2021-02-11 09:30 4.96 2890 33700 (1966) 492 (1954) 3020 580 683 987 1080 2010 3620 4060 5870 7970
2021-02-11 09:00 4.96 2890 33700 (1966) 492 (1954) 3020 580 683 987 1080 2010 3620 4060 5870 7970
2021-02-11 08:30 4.96 2890 33700 (1966) 492 (1954) 3020 580 683 987 1080 2010 3620 4060 5870 7970
2021-02-11 08:00 4.97 2910 33700 (1966) 492 (1954) 3020 580 683 987 1080 2010 3620 4060 5870 7970
2021-02-11 07:30 4.96 2890 33700 (1966) 492 (1954) 3020 580 683 987 1080 2010 3620 4060 5870 7970
2021-02-11 07:00 4.96 2890 33700 (1966) 492 (1954) 3020 580 683 987 1080 2010 3620 4060 5870 7970
2021-02-11 06:30 4.97 2910 33700 (1966) 492 (1954) 3020 580 683 987 1080 2010 3620 4060 5870 7970
2021-02-11 06:00 4.98 2920 33700 (1966) 492 (1954) 3020 580 683 987 1080 2010 3620 4060 5870 7970
2021-02-11 05:30 4.98 2920 33700 (1966) 492 (1954) 3020 580 683 987 1080 2010 3620 4060 5870 7970
2021-02-11 05:00 4.98 2920 33700 (1966) 492 (1954) 3020 580 683 987 1080 2010 3620 4060 5870 7970
2021-02-11 04:30 4.98 2920 33700 (1966) 492 (1954) 3020 580 683 987 1080 2010 3620 4060 5870 7970
2021-02-11 04:00 4.99 2930 33700 (1966) 492 (1954) 3020 580 683 987 1080 2010 3620 4060 5870 7970
2021-02-11 03:30 4.99 2930 33700 (1966) 492 (1954) 3020 580 683 987 1080 2010 3620 4060 5870 7970
2021-02-11 03:00 4.99 2930 33700 (1966) 492 (1954) 3020 580 683 987 1080 2010 3620 4060 5870 7970
2021-02-11 02:30 5.00 2950 33700 (1966) 492 (1954) 3020 580 683 987 1080 2010 3620 4060 5870 7970
2021-02-11 02:00 4.99 2930 33700 (1966) 492 (1954) 3020 580 683 987 1080 2010 3620 4060 5870 7970
2021-02-11 01:30 5.01 2960 33700 (1966) 492 (1954) 3020 580 683 987 1080 2010 3620 4060 5870 7970
2021-02-11 01:00 5.01 2960 33700 (1966) 492 (1954) 3020 580 683 987 1080 2010 3620 4060 5870 7970
2021-02-11 00:30 5.01 2960 33700 (1966) 492 (1954) 3020 580 683 987 1080 2010 3620 4060 5870 7970
2021-02-11 00:00 5.01 2960 33700 (1966) 492 (1954) 3020 580 683 987 1080 2010 3620 4060 5870 7970
2021-02-10 23:30 5.02 2980 32600 (1999) 492 (1954) 3130 582 691 945 1100 1940 3690 4130 6010 7670
2021-02-10 23:00 5.03 2990 32600 (1999) 492 (1954) 3130 582 691 945 1100 1940 3690 4130 6010 7670
2021-02-10 22:30 5.04 3010 32600 (1999) 492 (1954) 3130 582 691 945 1100 1940 3690 4130 6010 7670
2021-02-10 22:00 5.03 2990 32600 (1999) 492 (1954) 3130 582 691 945 1100 1940 3690 4130 6010 7670
2021-02-10 21:30 5.03 2990 32600 (1999) 492 (1954) 3130 582 691 945 1100 1940 3690 4130 6010 7670
2021-02-10 21:00 5.04 3010 32600 (1999) 492 (1954) 3130 582 691 945 1100 1940 3690 4130 6010 7670
2021-02-10 20:30 5.05 3020 32600 (1999) 492 (1954) 3130 582 691 945 1100 1940 3690 4130 6010 7670
2021-02-10 20:00 5.04 3010 32600 (1999) 492 (1954) 3130 582 691 945 1100 1940 3690 4130 6010 7670
2021-02-10 19:30 5.05 3020 32600 (1999) 492 (1954) 3130 582 691 945 1100 1940 3690 4130 6010 7670
2021-02-10 19:00 5.05 3020 32600 (1999) 492 (1954) 3130 582 691 945 1100 1940 3690 4130 6010 7670
2021-02-10 18:30 5.06 3040 32600 (1999) 492 (1954) 3130 582 691 945 1100 1940 3690 4130 6010 7670
2021-02-10 18:00 5.06 3040 32600 (1999) 492 (1954) 3130 582 691 945 1100 1940 3690 4130 6010 7670
2021-02-10 17:30 5.07 3050 32600 (1999) 492 (1954) 3130 582 691 945 1100 1940 3690 4130 6010 7670
2021-02-10 17:00 5.06 3040 32600 (1999) 492 (1954) 3130 582 691 945 1100 1940 3690 4130 6010 7670
2021-02-10 16:30 5.07 3050 32600 (1999) 492 (1954) 3130 582 691 945 1100 1940 3690 4130 6010 7670
2021-02-10 16:00 5.07 3050 32600 (1999) 492 (1954) 3130 582 691 945 1100 1940 3690 4130 6010 7670
2021-02-10 15:30 5.08 3070 32600 (1999) 492 (1954) 3130 582 691 945 1100 1940 3690 4130 6010 7670
2021-02-10 15:00 5.08 3070 32600 (1999) 492 (1954) 3130 582 691 945 1100 1940 3690 4130 6010 7670
2021-02-10 14:30 5.08 3070 32600 (1999) 492 (1954) 3130 582 691 945 1100 1940 3690 4130 6010 7670
2021-02-10 14:00 5.08 3070 32600 (1999) 492 (1954) 3130 582 691 945 1100 1940 3690 4130 6010 7670
2021-02-10 13:30 5.09 3080 32600 (1999) 492 (1954) 3130 582 691 945 1100 1940 3690 4130 6010 7670
2021-02-10 13:00 5.09 3080 32600 (1999) 492 (1954) 3130 582 691 945 1100 1940 3690 4130 6010 7670
2021-02-10 12:30 5.10 3100 32600 (1999) 492 (1954) 3130 582 691 945 1100 1940 3690 4130 6010 7670
2021-02-10 12:00 5.10 3100 32600 (1999) 492 (1954) 3130 582 691 945 1100 1940 3690 4130 6010 7670
2021-02-10 11:30 5.11 3110 32600 (1999) 492 (1954) 3130 582 691 945 1100 1940 3690 4130 6010 7670
2021-02-10 11:00 5.11 3110 32600 (1999) 492 (1954) 3130 582 691 945 1100 1940 3690 4130 6010 7670
2021-02-10 10:30 5.10 3100 32600 (1999) 492 (1954) 3130 582 691 945 1100 1940 3690 4130 6010 7670
2021-02-10 10:00 5.12 3130 32600 (1999) 492 (1954) 3130 582 691 945 1100 1940 3690 4130 6010 7670
2021-02-10 09:30 5.12 3130 32600 (1999) 492 (1954) 3130 582 691 945 1100 1940 3690 4130 6010 7670
2021-02-10 09:00 5.12 3130 32600 (1999) 492 (1954) 3130 582 691 945 1100 1940 3690 4130 6010 7670
2021-02-10 08:30 5.12 3130 32600 (1999) 492 (1954) 3130 582 691 945 1100 1940 3690 4130 6010 7670
2021-02-10 08:00 5.13 3140 32600 (1999) 492 (1954) 3130 582 691 945 1100 1940 3690 4130 6010 7670
2021-02-10 07:30 5.14 3160 32600 (1999) 492 (1954) 3130 582 691 945 1100 1940 3690 4130 6010 7670
2021-02-10 07:00 5.14 3160 32600 (1999) 492 (1954) 3130 582 691 945 1100 1940 3690 4130 6010 7670
2021-02-10 06:30 5.13 3140 32600 (1999) 492 (1954) 3130 582 691 945 1100 1940 3690 4130 6010 7670
2021-02-10 06:00 5.14 3160 32600 (1999) 492 (1954) 3130 582 691 945 1100 1940 3690 4130 6010 7670
2021-02-10 05:30 5.14 3160 32600 (1999) 492 (1954) 3130 582 691 945 1100 1940 3690 4130 6010 7670
2021-02-10 05:00 5.15 3170 32600 (1999) 492 (1954) 3130 582 691 945 1100 1940 3690 4130 6010 7670
2021-02-10 04:30 5.15 3170 32600 (1999) 492 (1954) 3130 582 691 945 1100 1940 3690 4130 6010 7670
2021-02-10 04:00 5.15 3170 32600 (1999) 492 (1954) 3130 582 691 945 1100 1940 3690 4130 6010 7670
2021-02-10 03:30 5.18 3210 32600 (1999) 492 (1954) 3130 582 691 945 1100 1940 3690 4130 6010 7670
2021-02-10 03:00 5.16 3180 32600 (1999) 492 (1954) 3130 582 691 945 1100 1940 3690 4130 6010 7670
2021-02-10 02:30 5.16 3180 32600 (1999) 492 (1954) 3130 582 691 945 1100 1940 3690 4130 6010 7670
2021-02-10 02:00 5.16 3180 32600 (1999) 492 (1954) 3130 582 691 945 1100 1940 3690 4130 6010 7670
2021-02-10 01:30 5.19 3230 32600 (1999) 492 (1954) 3130 582 691 945 1100 1940 3690 4130 6010 7670
2021-02-10 01:00 5.18 3210 32600 (1999) 492 (1954) 3130 582 691 945 1100 1940 3690 4130 6010 7670
2021-02-10 00:30 5.18 3210 32600 (1999) 492 (1954) 3130 582 691 945 1100 1940 3690 4130 6010 7670
2021-02-10 00:00 5.19 3230 32600 (1999) 492 (1954) 3130 582 691 945 1100 1940 3690 4130 6010 7670
2021-02-09 23:30 5.18 3210 37800 (1999) 492 (1954) 3150 577 676 912 1060 1960 3630 4230 5410 8850
2021-02-09 23:00 5.18 3210 37800 (1999) 492 (1954) 3150 577 676 912 1060 1960 3630 4230 5410 8850
2021-02-09 22:30 5.19 3230 37800 (1999) 492 (1954) 3150 577 676 912 1060 1960 3630 4230 5410 8850
2021-02-09 22:00 5.20 3240 37800 (1999) 492 (1954) 3150 577 676 912 1060 1960 3630 4230 5410 8850
2021-02-09 21:30 5.20 3240 37800 (1999) 492 (1954) 3150 577 676 912 1060 1960 3630 4230 5410 8850
2021-02-09 21:00 5.20 3240 37800 (1999) 492 (1954) 3150 577 676 912 1060 1960 3630 4230 5410 8850
2021-02-09 20:30 5.22 3270 37800 (1999) 492 (1954) 3150 577 676 912 1060 1960 3630 4230 5410 8850
2021-02-09 20:00 5.22 3270 37800 (1999) 492 (1954) 3150 577 676 912 1060 1960 3630 4230 5410 8850
2021-02-09 19:30 5.22 3270 37800 (1999) 492 (1954) 3150 577 676 912 1060 1960 3630 4230 5410 8850
2021-02-09 19:00 5.21 3260 37800 (1999) 492 (1954) 3150 577 676 912 1060 1960 3630 4230 5410 8850
2021-02-09 18:30 5.24 3300 37800 (1999) 492 (1954) 3150 577 676 912 1060 1960 3630 4230 5410 8850
2021-02-09 18:00 5.24 3300 37800 (1999) 492 (1954) 3150 577 676 912 1060 1960 3630 4230 5410 8850
2021-02-09 17:30 5.22 3270 37800 (1999) 492 (1954) 3150 577 676 912 1060 1960 3630 4230 5410 8850
2021-02-09 17:00 5.23 3290 37800 (1999) 492 (1954) 3150 577 676 912 1060 1960 3630 4230 5410 8850
2021-02-09 16:30 5.26 3330 37800 (1999) 492 (1954) 3150 577 676 912 1060 1960 3630 4230 5410 8850
2021-02-09 16:00 5.26 3330 37800 (1999) 492 (1954) 3150 577 676 912 1060 1960 3630 4230 5410 8850
2021-02-09 15:30 5.24 3300 37800 (1999) 492 (1954) 3150 577 676 912 1060 1960 3630 4230 5410 8850
2021-02-09 15:00 5.26 3330 37800 (1999) 492 (1954) 3150 577 676 912 1060 1960 3630 4230 5410 8850
2021-02-09 14:30 5.28 3360 37800 (1999) 492 (1954) 3150 577 676 912 1060 1960 3630 4230 5410 8850
2021-02-09 14:00 5.27 3350 37800 (1999) 492 (1954) 3150 577 676 912 1060 1960 3630 4230 5410 8850
2021-02-09 13:30 5.28 3360 37800 (1999) 492 (1954) 3150 577 676 912 1060 1960 3630 4230 5410 8850
2021-02-09 13:00 5.28 3360 37800 (1999) 492 (1954) 3150 577 676 912 1060 1960 3630 4230 5410 8850
2021-02-09 12:30 5.27 3350 37800 (1999) 492 (1954) 3150 577 676 912 1060 1960 3630 4230 5410 8850
2021-02-09 12:00 5.28 3360 37800 (1999) 492 (1954) 3150 577 676 912 1060 1960 3630 4230 5410 8850
2021-02-09 11:30 5.30 3390 37800 (1999) 492 (1954) 3150 577 676 912 1060 1960 3630 4230 5410 8850
2021-02-09 11:00 5.29 3380 37800 (1999) 492 (1954) 3150 577 676 912 1060 1960 3630 4230 5410 8850
2021-02-09 10:30 5.31 3410 37800 (1999) 492 (1954) 3150 577 676 912 1060 1960 3630 4230 5410 8850
2021-02-09 10:00 5.29 3380 37800 (1999) 492 (1954) 3150 577 676 912 1060 1960 3630 4230 5410 8850
2021-02-09 09:30 5.30 3390 37800 (1999) 492 (1954) 3150 577 676 912 1060 1960 3630 4230 5410 8850
2021-02-09 09:00 5.31 3410 37800 (1999) 492 (1954) 3150 577 676 912 1060 1960 3630 4230 5410 8850
2021-02-09 08:30 5.33 3440 37800 (1999) 492 (1954) 3150 577 676 912 1060 1960 3630 4230 5410 8850
2021-02-09 08:00 5.33 3440 37800 (1999) 492 (1954) 3150 577 676 912 1060 1960 3630 4230 5410 8850
2021-02-09 07:30 5.33 3440 37800 (1999) 492 (1954) 3150 577 676 912 1060 1960 3630 4230 5410 8850
2021-02-09 07:00 5.32 3430 37800 (1999) 492 (1954) 3150 577 676 912 1060 1960 3630 4230 5410 8850
2021-02-09 06:30 5.35 3470 37800 (1999) 492 (1954) 3150 577 676 912 1060 1960 3630 4230 5410 8850
2021-02-09 06:00 5.34 3460 37800 (1999) 492 (1954) 3150 577 676 912 1060 1960 3630 4230 5410 8850
2021-02-09 05:30 5.34 3460 37800 (1999) 492 (1954) 3150 577 676 912 1060 1960 3630 4230 5410 8850
2021-02-09 05:00 5.37 3500 37800 (1999) 492 (1954) 3150 577 676 912 1060 1960 3630 4230 5410 8850
2021-02-09 04:30 5.36 3490 37800 (1999) 492 (1954) 3150 577 676 912 1060 1960 3630 4230 5410 8850
2021-02-09 04:00 5.35 3470 37800 (1999) 492 (1954) 3150 577 676 912 1060 1960 3630 4230 5410 8850
2021-02-09 03:30 5.37 3500 37800 (1999) 492 (1954) 3150 577 676 912 1060 1960 3630 4230 5410 8850
2021-02-09 03:00 5.37 3500 37800 (1999) 492 (1954) 3150 577 676 912 1060 1960 3630 4230 5410 8850
2021-02-09 02:30 5.38 3520 37800 (1999) 492 (1954) 3150 577 676 912 1060 1960 3630 4230 5410 8850
2021-02-09 02:00 5.39 3530 37800 (1999) 492 (1954) 3150 577 676 912 1060 1960 3630 4230 5410 8850
2021-02-09 01:30 5.39 3530 37800 (1999) 492 (1954) 3150 577 676 912 1060 1960 3630 4230 5410 8850
2021-02-09 01:00 5.40 3550 37800 (1999) 492 (1954) 3150 577 676 912 1060 1960 3630 4230 5410 8850
2021-02-09 00:30 5.40 3550 37800 (1999) 492 (1954) 3150 577 676 912 1060 1960 3630 4230 5410 8850
2021-02-09 00:00 5.41 3560 37800 (1999) 492 (1954) 3150 577 676 912 1060 1960 3630 4230 5410 8850
2021-02-08 23:30 5.40 3550 30000 (1999) 500 (1954) 3180 563 680 908 1020 1960 3450 4140 5930 10800
2021-02-08 23:00 5.42 3580 30000 (1999) 500 (1954) 3180 563 680 908 1020 1960 3450 4140 5930 10800
2021-02-08 22:30 5.41 3560 30000 (1999) 500 (1954) 3180 563 680 908 1020 1960 3450 4140 5930 10800
2021-02-08 22:00 5.42 3580 30000 (1999) 500 (1954) 3180 563 680 908 1020 1960 3450 4140 5930 10800
2021-02-08 21:30 5.42 3580 30000 (1999) 500 (1954) 3180 563 680 908 1020 1960 3450 4140 5930 10800
2021-02-08 21:00 5.43 3590 30000 (1999) 500 (1954) 3180 563 680 908 1020 1960 3450 4140 5930 10800
2021-02-08 20:30 5.42 3580 30000 (1999) 500 (1954) 3180 563 680 908 1020 1960 3450 4140 5930 10800
2021-02-08 20:00 5.43 3590 30000 (1999) 500 (1954) 3180 563 680 908 1020 1960 3450 4140 5930 10800
2021-02-08 19:30 5.43 3590 30000 (1999) 500 (1954) 3180 563 680 908 1020 1960 3450 4140 5930 10800
2021-02-08 19:00 5.44 3610 30000 (1999) 500 (1954) 3180 563 680 908 1020 1960 3450 4140 5930 10800
2021-02-08 18:30 5.45 3620 30000 (1999) 500 (1954) 3180 563 680 908 1020 1960 3450 4140 5930 10800
2021-02-08 18:00 5.44 3610 30000 (1999) 500 (1954) 3180 563 680 908 1020 1960 3450 4140 5930 10800
2021-02-08 17:30 5.45 3620 30000 (1999) 500 (1954) 3180 563 680 908 1020 1960 3450 4140 5930 10800
2021-02-08 17:00 5.46 3640 30000 (1999) 500 (1954) 3180 563 680 908 1020 1960 3450 4140 5930 10800
2021-02-08 16:30 5.47 3650 30000 (1999) 500 (1954) 3180 563 680 908 1020 1960 3450 4140 5930 10800
2021-02-08 16:00 5.47 3650 30000 (1999) 500 (1954) 3180 563 680 908 1020 1960 3450 4140 5930 10800
2021-02-08 15:30 5.48 3670 30000 (1999) 500 (1954) 3180 563 680 908 1020 1960 3450 4140 5930 10800
2021-02-08 15:00 5.49 3690 30000 (1999) 500 (1954) 3180 563 680 908 1020 1960 3450 4140 5930 10800
2021-02-08 14:30 5.50 3700 30000 (1999) 500 (1954) 3180 563 680 908 1020 1960 3450 4140 5930 10800
2021-02-08 14:00 5.48 3670 30000 (1999) 500 (1954) 3180 563 680 908 1020 1960 3450 4140 5930 10800
2021-02-08 13:30 5.50 3700 30000 (1999) 500 (1954) 3180 563 680 908 1020 1960 3450 4140 5930 10800
2021-02-08 13:00 5.51 3720 30000 (1999) 500 (1954) 3180 563 680 908 1020 1960 3450 4140 5930 10800
2021-02-08 12:30 5.48 3670 30000 (1999) 500 (1954) 3180 563 680 908 1020 1960 3450 4140 5930 10800
2021-02-08 12:00 5.53 3750 30000 (1999) 500 (1954) 3180 563 680 908 1020 1960 3450 4140 5930 10800
2021-02-08 11:30 5.52 3730 30000 (1999) 500 (1954) 3180 563 680 908 1020 1960 3450 4140 5930 10800
2021-02-08 11:00 5.53 3750 30000 (1999) 500 (1954) 3180 563 680 908 1020 1960 3450 4140 5930 10800
2021-02-08 10:30 5.54 3760 30000 (1999) 500 (1954) 3180 563 680 908 1020 1960 3450 4140 5930 10800
2021-02-08 10:00 5.55 3780 30000 (1999) 500 (1954) 3180 563 680 908 1020 1960 3450 4140 5930 10800
2021-02-08 09:30 5.56 3790 30000 (1999) 500 (1954) 3180 563 680 908 1020 1960 3450 4140 5930 10800
2021-02-08 09:00 5.54 3760 30000 (1999) 500 (1954) 3180 563 680 908 1020 1960 3450 4140 5930 10800
2021-02-08 08:30 5.55 3780 30000 (1999) 500 (1954) 3180 563 680 908 1020 1960 3450 4140 5930 10800
2021-02-08 08:00 5.55 3780 30000 (1999) 500 (1954) 3180 563 680 908 1020 1960 3450 4140 5930 10800
2021-02-08 07:30 5.57 3810 30000 (1999) 500 (1954) 3180 563 680 908 1020 1960 3450 4140 5930 10800
2021-02-08 07:00 5.57 3810 30000 (1999) 500 (1954) 3180 563 680 908 1020 1960 3450 4140 5930 10800
2021-02-08 06:30 5.57 3810 30000 (1999) 500 (1954) 3180 563 680 908 1020 1960 3450 4140 5930 10800
2021-02-08 06:00 5.58 3830 30000 (1999) 500 (1954) 3180 563 680 908 1020 1960 3450 4140 5930 10800
2021-02-08 05:30 5.58 3830 30000 (1999) 500 (1954) 3180 563 680 908 1020 1960 3450 4140 5930 10800
2021-02-08 05:00 5.60 3860 30000 (1999) 500 (1954) 3180 563 680 908 1020 1960 3450 4140 5930 10800
2021-02-08 04:30 5.58 3830 30000 (1999) 500 (1954) 3180 563 680 908 1020 1960 3450 4140 5930 10800
2021-02-08 04:00 5.60 3860 30000 (1999) 500 (1954) 3180 563 680 908 1020 1960 3450 4140 5930 10800
2021-02-08 03:30 5.61 3870 30000 (1999) 500 (1954) 3180 563 680 908 1020 1960 3450 4140 5930 10800
2021-02-08 03:00 5.61 3870 30000 (1999) 500 (1954) 3180 563 680 908 1020 1960 3450 4140 5930 10800
2021-02-08 02:30 5.63 3900 30000 (1999) 500 (1954) 3180 563 680 908 1020 1960 3450 4140 5930 10800
2021-02-08 02:00 5.63 3900 30000 (1999) 500 (1954) 3180 563 680 908 1020 1960 3450 4140 5930 10800
2021-02-08 01:30 5.64 3920 30000 (1999) 500 (1954) 3180 563 680 908 1020 1960 3450 4140 5930 10800
2021-02-08 01:00 5.64 3920 30000 (1999) 500 (1954) 3180 563 680 908 1020 1960 3450 4140 5930 10800
2021-02-08 00:30 5.65 3930 30000 (1999) 500 (1954) 3180 563 680 908 1020 1960 3450 4140 5930 10800
2021-02-08 00:00 5.66 3950 30000 (1999) 500 (1954) 3180 563 680 908 1020 1960 3450 4140 5930 10800
2021-02-07 23:30 5.65 3930 22700 (1986) 500 (1954) 3190 565 666 878 1030 1920 3870 4720 6980 10300
2021-02-07 23:00 5.67 3970 22700 (1986) 500 (1954) 3190 565 666 878 1030 1920 3870 4720 6980 10300
2021-02-07 22:30 5.68 3980 22700 (1986) 500 (1954) 3190 565 666 878 1030 1920 3870 4720 6980 10300
2021-02-07 22:00 5.68 3980 22700 (1986) 500 (1954) 3190 565 666 878 1030 1920 3870 4720 6980 10300
2021-02-07 21:30 5.67 3970 22700 (1986) 500 (1954) 3190 565 666 878 1030 1920 3870 4720 6980 10300
2021-02-07 21:00 5.69 4000 22700 (1986) 500 (1954) 3190 565 666 878 1030 1920 3870 4720 6980 10300
2021-02-07 20:30 5.70 4010 22700 (1986) 500 (1954) 3190 565 666 878 1030 1920 3870 4720 6980 10300
2021-02-07 20:00 5.72 4050 22700 (1986) 500 (1954) 3190 565 666 878 1030 1920 3870 4720 6980 10300
2021-02-07 19:30 5.72 4050 22700 (1986) 500 (1954) 3190 565 666 878 1030 1920 3870 4720 6980 10300
2021-02-07 19:00 5.73 4060 22700 (1986) 500 (1954) 3190 565 666 878 1030 1920 3870 4720 6980 10300
2021-02-07 18:30 5.74 4080 22700 (1986) 500 (1954) 3190 565 666 878 1030 1920 3870 4720 6980 10300
2021-02-07 18:00 5.73 4060 22700 (1986) 500 (1954) 3190 565 666 878 1030 1920 3870 4720 6980 10300
2021-02-07 17:30 5.75 4090 22700 (1986) 500 (1954) 3190 565 666 878 1030 1920 3870 4720 6980 10300
2021-02-07 17:00 5.75 4090 22700 (1986) 500 (1954) 3190 565 666 878 1030 1920 3870 4720 6980 10300
2021-02-07 16:30 5.76 4110 22700 (1986) 500 (1954) 3190 565 666 878 1030 1920 3870 4720 6980 10300
2021-02-07 16:00 5.76 4110 22700 (1986) 500 (1954) 3190 565 666 878 1030 1920 3870 4720 6980 10300
2021-02-07 15:30 5.78 4140 22700 (1986) 500 (1954) 3190 565 666 878 1030 1920 3870 4720 6980 10300
2021-02-07 15:00 5.76 4110 22700 (1986) 500 (1954) 3190 565 666 878 1030 1920 3870 4720 6980 10300
2021-02-07 14:30 5.79 4160 22700 (1986) 500 (1954) 3190 565 666 878 1030 1920 3870 4720 6980 10300
2021-02-07 14:00 5.78 4140 22700 (1986) 500 (1954) 3190 565 666 878 1030 1920 3870 4720 6980 10300
2021-02-07 13:30 5.81 4190 22700 (1986) 500 (1954) 3190 565 666 878 1030 1920 3870 4720 6980 10300
2021-02-07 13:00 5.81 4190 22700 (1986) 500 (1954) 3190 565 666 878 1030 1920 3870 4720 6980 10300
2021-02-07 12:30 5.80 4170 22700 (1986) 500 (1954) 3190 565 666 878 1030 1920 3870 4720 6980 10300
2021-02-07 10:30 5.85 4250 22700 (1986) 500 (1954) 3190 565 666 878 1030 1920 3870 4720 6980 10300
2021-02-07 10:00 5.85 4250 22700 (1986) 500 (1954) 3190 565 666 878 1030 1920 3870 4720 6980 10300
2021-02-07 09:30 5.85 4250 22700 (1986) 500 (1954) 3190 565 666 878 1030 1920 3870 4720 6980 10300
2021-02-07 09:00 5.87 4280 22700 (1986) 500 (1954) 3190 565 666 878 1030 1920 3870 4720 6980 10300
2021-02-07 08:30 5.88 4300 22700 (1986) 500 (1954) 3190 565 666 878 1030 1920 3870 4720 6980 10300
2021-02-07 08:00 5.88 4300 22700 (1986) 500 (1954) 3190 565 666 878 1030 1920 3870 4720 6980 10300
2021-02-07 07:30 5.88 4300 22700 (1986) 500 (1954) 3190 565 666 878 1030 1920 3870 4720 6980 10300
2021-02-07 07:00 5.88 4300 22700 (1986) 500 (1954) 3190 565 666 878 1030 1920 3870 4720 6980 10300
2021-02-07 06:30 5.88 4300 22700 (1986) 500 (1954) 3190 565 666 878 1030 1920 3870 4720 6980 10300
2021-02-07 06:00 5.91 4350 22700 (1986) 500 (1954) 3190 565 666 878 1030 1920 3870 4720 6980 10300
2021-02-07 05:30 5.90 4330 22700 (1986) 500 (1954) 3190 565 666 878 1030 1920 3870 4720 6980 10300
2021-02-07 05:00 5.91 4350 22700 (1986) 500 (1954) 3190 565 666 878 1030 1920 3870 4720 6980 10300
2021-02-07 04:30 5.91 4350 22700 (1986) 500 (1954) 3190 565 666 878 1030 1920 3870 4720 6980 10300
2021-02-07 04:00 5.94 4400 22700 (1986) 500 (1954) 3190 565 666 878 1030 1920 3870 4720 6980 10300
2021-02-07 03:30 5.95 4410 22700 (1986) 500 (1954) 3190 565 666 878 1030 1920 3870 4720 6980 10300
2021-02-07 03:00 5.95 4410 22700 (1986) 500 (1954) 3190 565 666 878 1030 1920 3870 4720 6980 10300
2021-02-07 02:30 5.95 4410 22700 (1986) 500 (1954) 3190 565 666 878 1030 1920 3870 4720 6980 10300
2021-02-07 02:00 5.97 4450 22700 (1986) 500 (1954) 3190 565 666 878 1030 1920 3870 4720 6980 10300
2021-02-07 01:30 5.96 4430 22700 (1986) 500 (1954) 3190 565 666 878 1030 1920 3870 4720 6980 10300
2021-02-07 01:00 5.98 4460 22700 (1986) 500 (1954) 3190 565 666 878 1030 1920 3870 4720 6980 10300
2021-02-07 00:30 5.98 4460 22700 (1986) 500 (1954) 3190 565 666 878 1030 1920 3870 4720 6980 10300
2021-02-07 00:00 5.99 4480 22700 (1986) 500 (1954) 3190 565 666 878 1030 1920 3870 4720 6980 10300
2021-02-06 23:30 5.98 4460 23400 (1986) 508 (1954) 3040 563 637 905 1070 2070 3690 4820 6610 8480
2021-02-06 23:00 6.01 4510 23400 (1986) 508 (1954) 3040 563 637 905 1070 2070 3690 4820 6610 8480
2021-02-06 22:30 6.01 4510 23400 (1986) 508 (1954) 3040 563 637 905 1070 2070 3690 4820 6610 8480
2021-02-06 22:00 6.01 4510 23400 (1986) 508 (1954) 3040 563 637 905 1070 2070 3690 4820 6610 8480
2021-02-06 21:30 6.03 4540 23400 (1986) 508 (1954) 3040 563 637 905 1070 2070 3690 4820 6610 8480
2021-02-06 21:00 6.04 4560 23400 (1986) 508 (1954) 3040 563 637 905 1070 2070 3690 4820 6610 8480
2021-02-06 20:30 6.03 4540 23400 (1986) 508 (1954) 3040 563 637 905 1070 2070 3690 4820 6610 8480
2021-02-06 20:00 6.04 4560 23400 (1986) 508 (1954) 3040 563 637 905 1070 2070 3690 4820 6610 8480
2021-02-06 19:30 6.07 4610 23400 (1986) 508 (1954) 3040 563 637 905 1070 2070 3690 4820 6610 8480
2021-02-06 19:00 6.05 4580 23400 (1986) 508 (1954) 3040 563 637 905 1070 2070 3690 4820 6610 8480
2021-02-06 18:30 6.08 4630 23400 (1986) 508 (1954) 3040 563 637 905 1070 2070 3690 4820 6610 8480
2021-02-06 18:00 6.09 4640 23400 (1986) 508 (1954) 3040 563 637 905 1070 2070 3690 4820 6610 8480
2021-02-06 17:30 6.09 4640 23400 (1986) 508 (1954) 3040 563 637 905 1070 2070 3690 4820 6610 8480
2021-02-06 17:00 6.08 4630 23400 (1986) 508 (1954) 3040 563 637 905 1070 2070 3690 4820 6610 8480
2021-02-06 16:30 6.10 4660 23400 (1986) 508 (1954) 3040 563 637 905 1070 2070 3690 4820 6610 8480
2021-02-06 16:00 6.11 4670 23400 (1986) 508 (1954) 3040 563 637 905 1070 2070 3690 4820 6610 8480
2021-02-06 15:30 6.11 4670 23400 (1986) 508 (1954) 3040 563 637 905 1070 2070 3690 4820 6610 8480
2021-02-06 15:00 6.12 4690 23400 (1986) 508 (1954) 3040 563 637 905 1070 2070 3690 4820 6610 8480
2021-02-06 14:30 6.13 4710 23400 (1986) 508 (1954) 3040 563 637 905 1070 2070 3690 4820 6610 8480
2021-02-06 14:00 6.14 4720 23400 (1986) 508 (1954) 3040 563 637 905 1070 2070 3690 4820 6610 8480
2021-02-06 13:30 6.16 4760 23400 (1986) 508 (1954) 3040 563 637 905 1070 2070 3690 4820 6610 8480
2021-02-06 13:00 6.16 4760 23400 (1986) 508 (1954) 3040 563 637 905 1070 2070 3690 4820 6610 8480
2021-02-06 12:30 6.15 4740 23400 (1986) 508 (1954) 3040 563 637 905 1070 2070 3690 4820 6610 8480
2021-02-06 12:00 6.18 4790 23400 (1986) 508 (1954) 3040 563 637 905 1070 2070 3690 4820 6610 8480
2021-02-06 11:30 6.18 4790 23400 (1986) 508 (1954) 3040 563 637 905 1070 2070 3690 4820 6610 8480
2021-02-06 11:00 6.19 4810 23400 (1986) 508 (1954) 3040 563 637 905 1070 2070 3690 4820 6610 8480
2021-02-06 10:30 6.19 4810 23400 (1986) 508 (1954) 3040 563 637 905 1070 2070 3690 4820 6610 8480
2021-02-06 10:00 6.22 4860 23400 (1986) 508 (1954) 3040 563 637 905 1070 2070 3690 4820 6610 8480
2021-02-06 09:30 6.23 4870 23400 (1986) 508 (1954) 3040 563 637 905 1070 2070 3690 4820 6610 8480
2021-02-06 09:00 6.24 4890 23400 (1986) 508 (1954) 3040 563 637 905 1070 2070 3690 4820 6610 8480
2021-02-06 08:30 6.24 4890 23400 (1986) 508 (1954) 3040 563 637 905 1070 2070 3690 4820 6610 8480
2021-02-06 08:00 6.24 4890 23400 (1986) 508 (1954) 3040 563 637 905 1070 2070 3690 4820 6610 8480
2021-02-06 07:30 6.26 4920 23400 (1986) 508 (1954) 3040 563 637 905 1070 2070 3690 4820 6610 8480
2021-02-06 07:00 6.27 4940 23400 (1986) 508 (1954) 3040 563 637 905 1070 2070 3690 4820 6610 8480
2021-02-06 06:30 6.26 4920 23400 (1986) 508 (1954) 3040 563 637 905 1070 2070 3690 4820 6610 8480
2021-02-06 06:00 6.28 4960 23400 (1986) 508 (1954) 3040 563 637 905 1070 2070 3690 4820 6610 8480
2021-02-06 05:30 6.29 4970 23400 (1986) 508 (1954) 3040 563 637 905 1070 2070 3690 4820 6610 8480
2021-02-06 05:00 6.30 4990 23400 (1986) 508 (1954) 3040 563 637 905 1070 2070 3690 4820 6610 8480
2021-02-06 04:30 6.31 5010 23400 (1986) 508 (1954) 3040 563 637 905 1070 2070 3690 4820 6610 8480
2021-02-06 04:00 6.31 5010 23400 (1986) 508 (1954) 3040 563 637 905 1070 2070 3690 4820 6610 8480
2021-02-06 03:30 6.31 5010 23400 (1986) 508 (1954) 3040 563 637 905 1070 2070 3690 4820 6610 8480
2021-02-06 03:00 6.32 5020 23400 (1986) 508 (1954) 3040 563 637 905 1070 2070 3690 4820 6610 8480
2021-02-06 02:30 6.36 5090 23400 (1986) 508 (1954) 3040 563 637 905 1070 2070 3690 4820 6610 8480
2021-02-06 02:00 6.35 5070 23400 (1986) 508 (1954) 3040 563 637 905 1070 2070 3690 4820 6610 8480
2021-02-06 01:30 6.37 5110 23400 (1986) 508 (1954) 3040 563 637 905 1070 2070 3690 4820 6610 8480
2021-02-06 01:00 6.36 5090 23400 (1986) 508 (1954) 3040 563 637 905 1070 2070 3690 4820 6610 8480
2021-02-06 00:30 6.40 5160 23400 (1986) 508 (1954) 3040 563 637 905 1070 2070 3690 4820 6610 8480
2021-02-06 00:00 6.40 5160 23400 (1986) 508 (1954) 3040 563 637 905 1070 2070 3690 4820 6610 8480
2021-02-05 23:30 6.43 5210 28200 (1986) 488 (1964) 3190 587 624 863 1050 2000 3680 4170 6810 8930
2021-02-05 23:00 6.42 5190 28200 (1986) 488 (1964) 3190 587 624 863 1050 2000 3680 4170 6810 8930
2021-02-05 22:30 6.44 5220 28200 (1986) 488 (1964) 3190 587 624 863 1050 2000 3680 4170 6810 8930
2021-02-05 22:00 6.44 5220 28200 (1986) 488 (1964) 3190 587 624 863 1050 2000 3680 4170 6810 8930
2021-02-05 21:30 6.45 5240 28200 (1986) 488 (1964) 3190 587 624 863 1050 2000 3680 4170 6810 8930
2021-02-05 21:00 6.47 5280 28200 (1986) 488 (1964) 3190 587 624 863 1050 2000 3680 4170 6810 8930
2021-02-05 20:30 6.46 5260 28200 (1986) 488 (1964) 3190 587 624 863 1050 2000 3680 4170 6810 8930
2021-02-05 20:00 6.49 5310 28200 (1986) 488 (1964) 3190 587 624 863 1050 2000 3680 4170 6810 8930
2021-02-05 19:30 6.49 5310 28200 (1986) 488 (1964) 3190 587 624 863 1050 2000 3680 4170 6810 8930
2021-02-05 19:00 6.51 5340 28200 (1986) 488 (1964) 3190 587 624 863 1050 2000 3680 4170 6810 8930
2021-02-05 18:30 6.51 5340 28200 (1986) 488 (1964) 3190 587 624 863 1050 2000 3680 4170 6810 8930
2021-02-05 18:00 6.55 5410 28200 (1986) 488 (1964) 3190 587 624 863 1050 2000 3680 4170 6810 8930
2021-02-05 17:30 6.55 5410 28200 (1986) 488 (1964) 3190 587 624 863 1050 2000 3680 4170 6810 8930
2021-02-05 17:00 6.56 5430 28200 (1986) 488 (1964) 3190 587 624 863 1050 2000 3680 4170 6810 8930
2021-02-05 16:30 6.58 5460 28200 (1986) 488 (1964) 3190 587 624 863 1050 2000 3680 4170 6810 8930
2021-02-05 16:00 6.59 5480 28200 (1986) 488 (1964) 3190 587 624 863 1050 2000 3680 4170 6810 8930
2021-02-05 15:30 6.61 5510 28200 (1986) 488 (1964) 3190 587 624 863 1050 2000 3680 4170 6810 8930
2021-02-05 15:00 6.61 5510 28200 (1986) 488 (1964) 3190 587 624 863 1050 2000 3680 4170 6810 8930
2021-02-05 14:30 6.64 5570 28200 (1986) 488 (1964) 3190 587 624 863 1050 2000 3680 4170 6810 8930
2021-02-05 14:00 6.66 5600 28200 (1986) 488 (1964) 3190 587 624 863 1050 2000 3680 4170 6810 8930
2021-02-05 13:30 6.66 5600 28200 (1986) 488 (1964) 3190 587 624 863 1050 2000 3680 4170 6810 8930
2021-02-05 13:00 6.66 5600 28200 (1986) 488 (1964) 3190 587 624 863 1050 2000 3680 4170 6810 8930
2021-02-05 12:30 6.68 5630 28200 (1986) 488 (1964) 3190 587 624 863 1050 2000 3680 4170 6810 8930
2021-02-05 12:00 6.71 5690 28200 (1986) 488 (1964) 3190 587 624 863 1050 2000 3680 4170 6810 8930
2021-02-05 11:30 6.70 5670 28200 (1986) 488 (1964) 3190 587 624 863 1050 2000 3680 4170 6810 8930
2021-02-05 11:00 6.72 5700 28200 (1986) 488 (1964) 3190 587 624 863 1050 2000 3680 4170 6810 8930
2021-02-05 10:30 6.73 5720 28200 (1986) 488 (1964) 3190 587 624 863 1050 2000 3680 4170 6810 8930
2021-02-05 10:00 6.75 5760 28200 (1986) 488 (1964) 3190 587 624 863 1050 2000 3680 4170 6810 8930
2021-02-05 09:30 6.75 5760 28200 (1986) 488 (1964) 3190 587 624 863 1050 2000 3680 4170 6810 8930
2021-02-05 09:00 6.76 5770 28200 (1986) 488 (1964) 3190 587 624 863 1050 2000 3680 4170 6810 8930
2021-02-05 08:30 6.77 5790 28200 (1986) 488 (1964) 3190 587 624 863 1050 2000 3680 4170 6810 8930
2021-02-05 08:00 6.78 5810 28200 (1986) 488 (1964) 3190 587 624 863 1050 2000 3680 4170 6810 8930
2021-02-05 07:30 6.78 5810 28200 (1986) 488 (1964) 3190 587 624 863 1050 2000 3680 4170 6810 8930
2021-02-05 07:00 6.81 5860 28200 (1986) 488 (1964) 3190 587 624 863 1050 2000 3680 4170 6810 8930
2021-02-05 06:30 6.81 5860 28200 (1986) 488 (1964) 3190 587 624 863 1050 2000 3680 4170 6810 8930
2021-02-05 06:00 6.82 5880 28200 (1986) 488 (1964) 3190 587 624 863 1050 2000 3680 4170 6810 8930
2021-02-05 05:30 6.84 5910 28200 (1986) 488 (1964) 3190 587 624 863 1050 2000 3680 4170 6810 8930
2021-02-05 05:00 6.85 5930 28200 (1986) 488 (1964) 3190 587 624 863 1050 2000 3680 4170 6810 8930
2021-02-05 04:30 6.87 5970 28200 (1986) 488 (1964) 3190 587 624 863 1050 2000 3680 4170 6810 8930
2021-02-05 04:00 6.88 5980 28200 (1986) 488 (1964) 3190 587 624 863 1050 2000 3680 4170 6810 8930
2021-02-05 03:30 6.91 6040 28200 (1986) 488 (1964) 3190 587 624 863 1050 2000 3680 4170 6810 8930
2021-02-05 03:00 6.92 6050 28200 (1986) 488 (1964) 3190 587 624 863 1050 2000 3680 4170 6810 8930
2021-02-05 02:30 6.93 6070 28200 (1986) 488 (1964) 3190 587 624 863 1050 2000 3680 4170 6810 8930
2021-02-05 02:00 6.94 6090 28200 (1986) 488 (1964) 3190 587 624 863 1050 2000 3680 4170 6810 8930
2021-02-05 01:30 6.96 6120 28200 (1986) 488 (1964) 3190 587 624 863 1050 2000 3680 4170 6810 8930
2021-02-05 01:00 6.98 6160 28200 (1986) 488 (1964) 3190 587 624 863 1050 2000 3680 4170 6810 8930
2021-02-05 00:30 7.01 6210 28200 (1986) 488 (1964) 3190 587 624 863 1050 2000 3680 4170 6810 8930
2021-02-05 00:00 7.03 6250 28200 (1986) 488 (1964) 3190 587 624 863 1050 2000 3680 4170 6810 8930
2021-02-04 23:30 7.03 6250 31000 (1986) 489 (1964) 3780 562 639 847 1040 1970 4120 4780 7710 17100
2021-02-04 23:00 7.07 6320 31000 (1986) 489 (1964) 3780 562 639 847 1040 1970 4120 4780 7710 17100
2021-02-04 22:30 7.07 6320 31000 (1986) 489 (1964) 3780 562 639 847 1040 1970 4120 4780 7710 17100
2021-02-04 22:00 7.08 6330 31000 (1986) 489 (1964) 3780 562 639 847 1040 1970 4120 4780 7710 17100
2021-02-04 21:30 7.11 6390 31000 (1986) 489 (1964) 3780 562 639 847 1040 1970 4120 4780 7710 17100
2021-02-04 21:00 7.12 6400 31000 (1986) 489 (1964) 3780 562 639 847 1040 1970 4120 4780 7710 17100
2021-02-04 20:30 7.13 6420 31000 (1986) 489 (1964) 3780 562 639 847 1040 1970 4120 4780 7710 17100
2021-02-04 20:00 7.15 6460 31000 (1986) 489 (1964) 3780 562 639 847 1040 1970 4120 4780 7710 17100
2021-02-04 19:30 7.19 6530 31000 (1986) 489 (1964) 3780 562 639 847 1040 1970 4120 4780 7710 17100
2021-02-04 19:00 7.20 6550 31000 (1986) 489 (1964) 3780 562 639 847 1040 1970 4120 4780 7710 17100
2021-02-04 18:30 7.19 6530 31000 (1986) 489 (1964) 3780 562 639 847 1040 1970 4120 4780 7710 17100
2021-02-04 18:00 7.22 6580 31000 (1986) 489 (1964) 3780 562 639 847 1040 1970 4120 4780 7710 17100
2021-02-04 17:30 7.25 6630 31000 (1986) 489 (1964) 3780 562 639 847 1040 1970 4120 4780 7710 17100
2021-02-04 17:00 7.25 6630 31000 (1986) 489 (1964) 3780 562 639 847 1040 1970 4120 4780 7710 17100
2021-02-04 16:30 7.30 6720 31000 (1986) 489 (1964) 3780 562 639 847 1040 1970 4120 4780 7710 17100
2021-02-04 16:00 7.31 6740 31000 (1986) 489 (1964) 3780 562 639 847 1040 1970 4120 4780 7710 17100
2021-02-04 15:30 7.32 6760 31000 (1986) 489 (1964) 3780 562 639 847 1040 1970 4120 4780 7710 17100
2021-02-04 15:00 7.35 6810 31000 (1986) 489 (1964) 3780 562 639 847 1040 1970 4120 4780 7710 17100
2021-02-04 14:30 7.35 6810 31000 (1986) 489 (1964) 3780 562 639 847 1040 1970 4120 4780 7710 17100
2021-02-04 14:00 7.36 6830 31000 (1986) 489 (1964) 3780 562 639 847 1040 1970 4120 4780 7710 17100
2021-02-04 13:30 7.38 6870 31000 (1986) 489 (1964) 3780 562 639 847 1040 1970 4120 4780 7710 17100
2021-02-04 13:00 7.39 6880 31000 (1986) 489 (1964) 3780 562 639 847 1040 1970 4120 4780 7710 17100
2021-02-04 12:30 7.43 6960 31000 (1986) 489 (1964) 3780 562 639 847 1040 1970 4120 4780 7710 17100
2021-02-04 12:00 7.43 6960 31000 (1986) 489 (1964) 3780 562 639 847 1040 1970 4120 4780 7710 17100
2021-02-04 11:30 7.46 7010 31000 (1986) 489 (1964) 3780 562 639 847 1040 1970 4120 4780 7710 17100
2021-02-04 11:00 7.47 7030 31000 (1986) 489 (1964) 3780 562 639 847 1040 1970 4120 4780 7710 17100
2021-02-04 10:00 7.53 7140 31000 (1986) 489 (1964) 3780 562 639 847 1040 1970 4120 4780 7710 17100
2021-02-04 09:30 7.54 7150 31000 (1986) 489 (1964) 3780 562 639 847 1040 1970 4120 4780 7710 17100
2021-02-04 09:00 7.57 7210 31000 (1986) 489 (1964) 3780 562 639 847 1040 1970 4120 4780 7710 17100
2021-02-04 08:30 7.60 7260 31000 (1986) 489 (1964) 3780 562 639 847 1040 1970 4120 4780 7710 17100
2021-02-04 08:00 7.63 7320 31000 (1986) 489 (1964) 3780 562 639 847 1040 1970 4120 4780 7710 17100
2021-02-04 07:30 7.64 7340 31000 (1986) 489 (1964) 3780 562 639 847 1040 1970 4120 4780 7710 17100
2021-02-04 07:00 7.69 7430 31000 (1986) 489 (1964) 3780 562 639 847 1040 1970 4120 4780 7710 17100
2021-02-04 06:30 7.70 7440 31000 (1986) 489 (1964) 3780 562 639 847 1040 1970 4120 4780 7710 17100
2021-02-04 06:00 7.72 7480 31000 (1986) 489 (1964) 3780 562 639 847 1040 1970 4120 4780 7710 17100
2021-02-04 05:30 7.76 7550 31000 (1986) 489 (1964) 3780 562 639 847 1040 1970 4120 4780 7710 17100
2021-02-04 05:00 7.80 7630 31000 (1986) 489 (1964) 3780 562 639 847 1040 1970 4120 4780 7710 17100
2021-02-04 04:30 7.84 7700 31000 (1986) 489 (1964) 3780 562 639 847 1040 1970 4120 4780 7710 17100
2021-02-04 04:00 7.84 7700 31000 (1986) 489 (1964) 3780 562 639 847 1040 1970 4120 4780 7710 17100
2021-02-04 03:30 7.86 7740 31000 (1986) 489 (1964) 3780 562 639 847 1040 1970 4120 4780 7710 17100
2021-02-04 03:00 7.91 7830 31000 (1986) 489 (1964) 3780 562 639 847 1040 1970 4120 4780 7710 17100
2021-02-04 02:30 7.96 7920 31000 (1986) 489 (1964) 3780 562 639 847 1040 1970 4120 4780 7710 17100
2021-02-04 02:00 7.98 7960 31000 (1986) 489 (1964) 3780 562 639 847 1040 1970 4120 4780 7710 17100
2021-02-04 01:30 8.04 8070 31000 (1986) 489 (1964) 3780 562 639 847 1040 1970 4120 4780 7710 17100
2021-02-04 01:00 8.06 8110 31000 (1986) 489 (1964) 3780 562 639 847 1040 1970 4120 4780 7710 17100
2021-02-04 00:30 8.11 8200 31000 (1986) 489 (1964) 3780 562 639 847 1040 1970 4120 4780 7710 17100
2021-02-04 00:00 8.16 8300 31000 (1986) 489 (1964) 3780 562 639 847 1040 1970 4120 4780 7710 17100
2021-02-03 23:30 8.18 8340 41700 (1969) 480 (1977) 4360 517 615 832 984 1930 3940 5180 10000 26100
2021-02-03 23:00 8.24 8450 41700 (1969) 480 (1977) 4360 517 615 832 984 1930 3940 5180 10000 26100
2021-02-03 22:30 8.27 8510 41700 (1969) 480 (1977) 4360 517 615 832 984 1930 3940 5180 10000 26100
2021-02-03 22:00 8.32 8600 41700 (1969) 480 (1977) 4360 517 615 832 984 1930 3940 5180 10000 26100
2021-02-03 21:30 8.36 8680 41700 (1969) 480 (1977) 4360 517 615 832 984 1930 3940 5180 10000 26100
2021-02-03 21:00 8.43 8810 41700 (1969) 480 (1977) 4360 517 615 832 984 1930 3940 5180 10000 26100
2021-02-03 20:30 8.47 8890 41700 (1969) 480 (1977) 4360 517 615 832 984 1930 3940 5180 10000 26100
2021-02-03 20:00 8.51 8960 41700 (1969) 480 (1977) 4360 517 615 832 984 1930 3940 5180 10000 26100
2021-02-03 19:30 8.58 9100 41700 (1969) 480 (1977) 4360 517 615 832 984 1930 3940 5180 10000 26100
2021-02-03 19:00 8.64 9210 41700 (1969) 480 (1977) 4360 517 615 832 984 1930 3940 5180 10000 26100
2021-02-03 18:30 8.69 9310 41700 (1969) 480 (1977) 4360 517 615 832 984 1930 3940 5180 10000 26100
2021-02-03 18:00 8.77 9470 41700 (1969) 480 (1977) 4360 517 615 832 984 1930 3940 5180 10000 26100
2021-02-03 17:30 8.87 9660 41700 (1969) 480 (1977) 4360 517 615 832 984 1930 3940 5180 10000 26100
2021-02-03 17:00 8.91 9740 41700 (1969) 480 (1977) 4360 517 615 832 984 1930 3940 5180 10000 26100
2021-02-03 16:30 9.02 9960 41700 (1969) 480 (1977) 4360 517 615 832 984 1930 3940 5180 10000 26100
2021-02-03 16:00 9.10 10100 41700 (1969) 480 (1977) 4360 517 615 832 984 1930 3940 5180 10000 26100
2021-02-03 15:30 9.23 10400 41700 (1969) 480 (1977) 4360 517 615 832 984 1930 3940 5180 10000 26100
2021-02-03 15:00 9.31 10500 41700 (1969) 480 (1977) 4360 517 615 832 984 1930 3940 5180 10000 26100
2021-02-03 14:30 9.40 10700 41700 (1969) 480 (1977) 4360 517 615 832 984 1930 3940 5180 10000 26100
2021-02-03 14:00 9.54 11000 41700 (1969) 480 (1977) 4360 517 615 832 984 1930 3940 5180 10000 26100
2021-02-03 13:30 9.68 11300 41700 (1969) 480 (1977) 4360 517 615 832 984 1930 3940 5180 10000 26100
2021-02-03 13:00 9.77 11500 41700 (1969) 480 (1977) 4360 517 615 832 984 1930 3940 5180 10000 26100
2021-02-03 12:30 9.92 11800 41700 (1969) 480 (1977) 4360 517 615 832 984 1930 3940 5180 10000 26100
2021-02-03 12:00 10.05 12000 41700 (1969) 480 (1977) 4360 517 615 832 984 1930 3940 5180 10000 26100
2021-02-03 11:30 10.19 12300 41700 (1969) 480 (1977) 4360 517 615 832 984 1930 3940 5180 10000 26100
2021-02-03 11:00 10.36 12700 41700 (1969) 480 (1977) 4360 517 615 832 984 1930 3940 5180 10000 26100
2021-02-03 10:30 10.51 13000 41700 (1969) 480 (1977) 4360 517 615 832 984 1930 3940 5180 10000 26100
2021-02-03 10:00 10.67 13300 41700 (1969) 480 (1977) 4360 517 615 832 984 1930 3940 5180 10000 26100
2021-02-03 09:30 10.85 13700 41700 (1969) 480 (1977) 4360 517 615 832 984 1930 3940 5180 10000 26100
2021-02-03 09:00 11.02 14100 41700 (1969) 480 (1977) 4360 517 615 832 984 1930 3940 5180 10000 26100
2021-02-03 08:30 11.18 14400 41700 (1969) 480 (1977) 4360 517 615 832 984 1930 3940 5180 10000 26100
2021-02-03 08:00 11.36 14800 41700 (1969) 480 (1977) 4360 517 615 832 984 1930 3940 5180 10000 26100
2021-02-03 07:30 11.59 15300 41700 (1969) 480 (1977) 4360 517 615 832 984 1930 3940 5180 10000 26100
2021-02-03 07:00 11.74 15700 41700 (1969) 480 (1977) 4360 517 615 832 984 1930 3940 5180 10000 26100
2021-02-03 06:30 11.94 16100 41700 (1969) 480 (1977) 4360 517 615 832 984 1930 3940 5180 10000 26100
2021-02-03 06:00 12.14 16600 41700 (1969) 480 (1977) 4360 517 615 832 984 1930 3940 5180 10000 26100
2021-02-03 05:30 12.32 17000 41700 (1969) 480 (1977) 4360 517 615 832 984 1930 3940 5180 10000 26100
2021-02-03 05:00 12.51 17400 41700 (1969) 480 (1977) 4360 517 615 832 984 1930 3940 5180 10000 26100
2021-02-03 04:30 12.67 17800 41700 (1969) 480 (1977) 4360 517 615 832 984 1930 3940 5180 10000 26100
2021-02-03 04:00 12.86 18200 41700 (1969) 480 (1977) 4360 517 615 832 984 1930 3940 5180 10000 26100
2021-02-03 03:30 13.02 18600 41700 (1969) 480 (1977) 4360 517 615 832 984 1930 3940 5180 10000 26100
2021-02-03 03:00 13.19 19000 41700 (1969) 480 (1977) 4360 517 615 832 984 1930 3940 5180 10000 26100
2021-02-03 02:30 13.35 19300 41700 (1969) 480 (1977) 4360 517 615 832 984 1930 3940 5180 10000 26100
2021-02-03 02:00 13.51 19700 41700 (1969) 480 (1977) 4360 517 615 832 984 1930 3940 5180 10000 26100
2021-02-03 01:30 13.65 20000 41700 (1969) 480 (1977) 4360 517 615 832 984 1930 3940 5180 10000 26100
2021-02-03 01:00 13.79 20400 41700 (1969) 480 (1977) 4360 517 615 832 984 1930 3940 5180 10000 26100
2021-02-03 00:30 13.89 20600 41700 (1969) 480 (1977) 4360 517 615 832 984 1930 3940 5180 10000 26100
2021-02-03 00:00 14.01 20900 41700 (1969) 480 (1977) 4360 517 615 832 984 1930 3940 5180 10000 26100
2021-02-02 23:30 14.12 21200 67700 (1969) 448 (1956) 4610 533 601 837 992 1950 3930 4770 11500 24400
2021-02-02 23:00 14.21 21400 67700 (1969) 448 (1956) 4610 533 601 837 992 1950 3930 4770 11500 24400
2021-02-02 22:30 14.30 21600 67700 (1969) 448 (1956) 4610 533 601 837 992 1950 3930 4770 11500 24400
2021-02-02 22:00 14.37 21800 67700 (1969) 448 (1956) 4610 533 601 837 992 1950 3930 4770 11500 24400
2021-02-02 21:30 14.44 21900 67700 (1969) 448 (1956) 4610 533 601 837 992 1950 3930 4770 11500 24400
2021-02-02 21:00 14.48 22000 67700 (1969) 448 (1956) 4610 533 601 837 992 1950 3930 4770 11500 24400
2021-02-02 20:30 14.56 22200 67700 (1969) 448 (1956) 4610 533 601 837 992 1950 3930 4770 11500 24400
2021-02-02 20:00 14.60 22300 67700 (1969) 448 (1956) 4610 533 601 837 992 1950 3930 4770 11500 24400
2021-02-02 19:30 14.66 22500 67700 (1969) 448 (1956) 4610 533 601 837 992 1950 3930 4770 11500 24400
2021-02-02 19:00 14.71 22600 67700 (1969) 448 (1956) 4610 533 601 837 992 1950 3930 4770 11500 24400
2021-02-02 18:30 14.72 22600 67700 (1969) 448 (1956) 4610 533 601 837 992 1950 3930 4770 11500 24400
2021-02-02 18:00 14.76 22700 67700 (1969) 448 (1956) 4610 533 601 837 992 1950 3930 4770 11500 24400
2021-02-02 17:30 14.78 22800 67700 (1969) 448 (1956) 4610 533 601 837 992 1950 3930 4770 11500 24400
2021-02-02 17:00 14.80 22800 67700 (1969) 448 (1956) 4610 533 601 837 992 1950 3930 4770 11500 24400
2021-02-02 16:30 14.83 22900 67700 (1969) 448 (1956) 4610 533 601 837 992 1950 3930 4770 11500 24400
2021-02-02 16:00 14.86 23000 67700 (1969) 448 (1956) 4610 533 601 837 992 1950 3930 4770 11500 24400
2021-02-02 15:30 14.87 23000 67700 (1969) 448 (1956) 4610 533 601 837 992 1950 3930 4770 11500 24400
2021-02-02 15:00 14.89 23000 67700 (1969) 448 (1956) 4610 533 601 837 992 1950 3930 4770 11500 24400
2021-02-02 14:30 14.92 23100 67700 (1969) 448 (1956) 4610 533 601 837 992 1950 3930 4770 11500 24400
2021-02-02 14:00 14.95 23200 67700 (1969) 448 (1956) 4610 533 601 837 992 1950 3930 4770 11500 24400
2021-02-02 13:30 14.93 23100 67700 (1969) 448 (1956) 4610 533 601 837 992 1950 3930 4770 11500 24400
2021-02-02 13:00 14.95 23200 67700 (1969) 448 (1956) 4610 533 601 837 992 1950 3930 4770 11500 24400
2021-02-02 12:30 14.97 23200 67700 (1969) 448 (1956) 4610 533 601 837 992 1950 3930 4770 11500 24400
2021-02-02 12:00 15.00 23300 67700 (1969) 448 (1956) 4610 533 601 837 992 1950 3930 4770 11500 24400
2021-02-02 11:30 15.01 23300 67700 (1969) 448 (1956) 4610 533 601 837 992 1950 3930 4770 11500 24400
2021-02-02 11:00 15.03 23400 67700 (1969) 448 (1956) 4610 533 601 837 992 1950 3930 4770 11500 24400
2021-02-02 10:30 15.02 23400 67700 (1969) 448 (1956) 4610 533 601 837 992 1950 3930 4770 11500 24400
2021-02-02 10:00 15.05 23400 67700 (1969) 448 (1956) 4610 533 601 837 992 1950 3930 4770 11500 24400
2021-02-02 09:30 15.01 23300 67700 (1969) 448 (1956) 4610 533 601 837 992 1950 3930 4770 11500 24400
2021-02-02 09:00 15.07 23500 67700 (1969) 448 (1956) 4610 533 601 837 992 1950 3930 4770 11500 24400
2021-02-02 08:30 15.08 23500 67700 (1969) 448 (1956) 4610 533 601 837 992 1950 3930 4770 11500 24400
2021-02-02 08:00 15.08 23500 67700 (1969) 448 (1956) 4610 533 601 837 992 1950 3930 4770 11500 24400
2021-02-02 07:30 15.11 23600 67700 (1969) 448 (1956) 4610 533 601 837 992 1950 3930 4770 11500 24400
2021-02-02 07:00 15.11 23600 67700 (1969) 448 (1956) 4610 533 601 837 992 1950 3930 4770 11500 24400
2021-02-02 06:30 15.11 23600 67700 (1969) 448 (1956) 4610 533 601 837 992 1950 3930 4770 11500 24400
2021-02-02 06:00 15.12 23600 67700 (1969) 448 (1956) 4610 533 601 837 992 1950 3930 4770 11500 24400
2021-02-02 05:30 15.11 23600 67700 (1969) 448 (1956) 4610 533 601 837 992 1950 3930 4770 11500 24400
2021-02-02 05:00 15.12 23600 67700 (1969) 448 (1956) 4610 533 601 837 992 1950 3930 4770 11500 24400
2021-02-02 04:30 15.12 23600 67700 (1969) 448 (1956) 4610 533 601 837 992 1950 3930 4770 11500 24400
2021-02-02 04:00 15.13 23600 67700 (1969) 448 (1956) 4610 533 601 837 992 1950 3930 4770 11500 24400
2021-02-02 03:30 15.15 23700 67700 (1969) 448 (1956) 4610 533 601 837 992 1950 3930 4770 11500 24400
2021-02-02 03:00 15.12 23600 67700 (1969) 448 (1956) 4610 533 601 837 992 1950 3930 4770 11500 24400
2021-02-02 02:30 15.14 23700 67700 (1969) 448 (1956) 4610 533 601 837 992 1950 3930 4770 11500 24400
2021-02-02 02:00 15.13 23600 67700 (1969) 448 (1956) 4610 533 601 837 992 1950 3930 4770 11500 24400
2021-02-02 01:30 15.17 23700 67700 (1969) 448 (1956) 4610 533 601 837 992 1950 3930 4770 11500 24400
2021-02-02 01:00 15.15 23700 67700 (1969) 448 (1956) 4610 533 601 837 992 1950 3930 4770 11500 24400
2021-02-02 00:30 15.16 23700 67700 (1969) 448 (1956) 4610 533 601 837 992 1950 3930 4770 11500 24400
2021-02-02 00:00 15.17 23700 67700 (1969) 448 (1956) 4610 533 601 837 992 1950 3930 4770 11500 24400
2021-02-01 23:30 15.15 23700 72000 (1969) 402 (1956) 4400 529 622 842 998 1830 3440 5150 12000 19700
2021-02-01 23:00 15.16 23700 72000 (1969) 402 (1956) 4400 529 622 842 998 1830 3440 5150 12000 19700
2021-02-01 22:30 15.15 23700 72000 (1969) 402 (1956) 4400 529 622 842 998 1830 3440 5150 12000 19700
2021-02-01 22:00 15.15 23700 72000 (1969) 402 (1956) 4400 529 622 842 998 1830 3440 5150 12000 19700
2021-02-01 21:30 15.13 23600 72000 (1969) 402 (1956) 4400 529 622 842 998 1830 3440 5150 12000 19700
2021-02-01 21:00 15.10 23600 72000 (1969) 402 (1956) 4400 529 622 842 998 1830 3440 5150 12000 19700
2021-02-01 20:30 15.11 23600 72000 (1969) 402 (1956) 4400 529 622 842 998 1830 3440 5150 12000 19700
2021-02-01 20:00 15.10 23600 72000 (1969) 402 (1956) 4400 529 622 842 998 1830 3440 5150 12000 19700
2021-02-01 19:30 15.10 23600 72000 (1969) 402 (1956) 4400 529 622 842 998 1830 3440 5150 12000 19700
2021-02-01 19:00 15.07 23500 72000 (1969) 402 (1956) 4400 529 622 842 998 1830 3440 5150 12000 19700
2021-02-01 18:30 15.03 23400 72000 (1969) 402 (1956) 4400 529 622 842 998 1830 3440 5150 12000 19700
2021-02-01 18:00 15.03 23400 72000 (1969) 402 (1956) 4400 529 622 842 998 1830 3440 5150 12000 19700
2021-02-01 17:30 15.00 23300 72000 (1969) 402 (1956) 4400 529 622 842 998 1830 3440 5150 12000 19700
2021-02-01 17:00 15.00 23300 72000 (1969) 402 (1956) 4400 529 622 842 998 1830 3440 5150 12000 19700
2021-02-01 16:30 14.95 23200 72000 (1969) 402 (1956) 4400 529 622 842 998 1830 3440 5150 12000 19700
2021-02-01 16:00 14.91 23100 72000 (1969) 402 (1956) 4400 529 622 842 998 1830 3440 5150 12000 19700
2021-02-01 15:30 14.91 23100 72000 (1969) 402 (1956) 4400 529 622 842 998 1830 3440 5150 12000 19700
2021-02-01 15:00 14.89 23000 72000 (1969) 402 (1956) 4400 529 622 842 998 1830 3440 5150 12000 19700
2021-02-01 14:30 14.84 22900 72000 (1969) 402 (1956) 4400 529 622 842 998 1830 3440 5150 12000 19700
2021-02-01 14:00 14.81 22800 72000 (1969) 402 (1956) 4400 529 622 842 998 1830 3440 5150 12000 19700
2021-02-01 13:30 14.81 22800 72000 (1969) 402 (1956) 4400 529 622 842 998 1830 3440 5150 12000 19700
2021-02-01 13:00 14.76 22700 72000 (1969) 402 (1956) 4400 529 622 842 998 1830 3440 5150 12000 19700
2021-02-01 12:30 14.74 22700 72000 (1969) 402 (1956) 4400 529 622 842 998 1830 3440 5150 12000 19700
2021-02-01 12:00 14.69 22500 72000 (1969) 402 (1956) 4400 529 622 842 998 1830 3440 5150 12000 19700
2021-02-01 11:30 14.66 22500 72000 (1969) 402 (1956) 4400 529 622 842 998 1830 3440 5150 12000 19700
2021-02-01 11:00 14.67 22500 72000 (1969) 402 (1956) 4400 529 622 842 998 1830 3440 5150 12000 19700
2021-02-01 10:30 14.61 22400 72000 (1969) 402 (1956) 4400 529 622 842 998 1830 3440 5150 12000 19700
2021-02-01 10:00 14.60 22300 72000 (1969) 402 (1956) 4400 529 622 842 998 1830 3440 5150 12000 19700
2021-02-01 09:30 14.56 22200 72000 (1969) 402 (1956) 4400 529 622 842 998 1830 3440 5150 12000 19700
2021-02-01 09:00 14.54 22200 72000 (1969) 402 (1956) 4400 529 622 842 998 1830 3440 5150 12000 19700
2021-02-01 08:30 14.51 22100 72000 (1969) 402 (1956) 4400 529 622 842 998 1830 3440 5150 12000 19700
2021-02-01 08:00 14.47 22000 72000 (1969) 402 (1956) 4400 529 622 842 998 1830 3440 5150 12000 19700
2021-02-01 07:30 14.42 21900 72000 (1969) 402 (1956) 4400 529 622 842 998 1830 3440 5150 12000 19700
2021-02-01 07:00 14.38 21800 72000 (1969) 402 (1956) 4400 529 622 842 998 1830 3440 5150 12000 19700
2021-02-01 06:30 14.36 21700 72000 (1969) 402 (1956) 4400 529 622 842 998 1830 3440 5150 12000 19700
2021-02-01 06:00 14.33 21700 72000 (1969) 402 (1956) 4400 529 622 842 998 1830 3440 5150 12000 19700
2021-02-01 05:30 14.30 21600 72000 (1969) 402 (1956) 4400 529 622 842 998 1830 3440 5150 12000 19700
2021-02-01 05:00 14.27 21500 72000 (1969) 402 (1956) 4400 529 622 842 998 1830 3440 5150 12000 19700
2021-02-01 04:30 14.22 21400 72000 (1969) 402 (1956) 4400 529 622 842 998 1830 3440 5150 12000 19700
2021-02-01 04:00 14.16 21300 72000 (1969) 402 (1956) 4400 529 622 842 998 1830 3440 5150 12000 19700
2021-02-01 03:30 14.14 21200 72000 (1969) 402 (1956) 4400 529 622 842 998 1830 3440 5150 12000 19700
2021-02-01 03:00 14.08 21100 72000 (1969) 402 (1956) 4400 529 622 842 998 1830 3440 5150 12000 19700
2021-02-01 02:30 14.07 21000 72000 (1969) 402 (1956) 4400 529 622 842 998 1830 3440 5150 12000 19700
2021-02-01 02:00 13.99 20900 72000 (1969) 402 (1956) 4400 529 622 842 998 1830 3440 5150 12000 19700
2021-02-01 01:30 13.92 20700 72000 (1969) 402 (1956) 4400 529 622 842 998 1830 3440 5150 12000 19700
2021-02-01 01:00 13.88 20600 72000 (1969) 402 (1956) 4400 529 622 842 998 1830 3440 5150 12000 19700
2021-02-01 00:30 13.87 20600 72000 (1969) 402 (1956) 4400 529 622 842 998 1830 3440 5150 12000 19700
2021-02-01 00:00 13.78 20400 72000 (1969) 402 (1956) 4400 529 622 842 998 1830 3440 5150 12000 19700
2021-01-31 23:30 13.73 20200 52600 (1969) 380 (1956) 3760 542 595 840 1010 1930 3550 4870 8680 13000
2021-01-31 23:00 13.64 20000 52600 (1969) 380 (1956) 3760 542 595 840 1010 1930 3550 4870 8680 13000
2021-01-31 22:30 13.63 20000 52600 (1969) 380 (1956) 3760 542 595 840 1010 1930 3550 4870 8680 13000
2021-01-31 22:00 13.53 19800 52600 (1969) 380 (1956) 3760 542 595 840 1010 1930 3550 4870 8680 13000
2021-01-31 21:30 13.49 19700 52600 (1969) 380 (1956) 3760 542 595 840 1010 1930 3550 4870 8680 13000
2021-01-31 21:00 13.42 19500 52600 (1969) 380 (1956) 3760 542 595 840 1010 1930 3550 4870 8680 13000
2021-01-31 20:30 13.37 19400 52600 (1969) 380 (1956) 3760 542 595 840 1010 1930 3550 4870 8680 13000
2021-01-31 20:00 13.33 19300 52600 (1969) 380 (1956) 3760 542 595 840 1010 1930 3550 4870 8680 13000
2021-01-31 19:30 13.26 19100 52600 (1969) 380 (1956) 3760 542 595 840 1010 1930 3550 4870 8680 13000
2021-01-31 19:00 13.19 19000 52600 (1969) 380 (1956) 3760 542 595 840 1010 1930 3550 4870 8680 13000
2021-01-31 18:30 13.14 18900 52600 (1969) 380 (1956) 3760 542 595 840 1010 1930 3550 4870 8680 13000
2021-01-31 18:00 13.08 18700 52600 (1969) 380 (1956) 3760 542 595 840 1010 1930 3550 4870 8680 13000
2021-01-31 17:30 13.04 18600 52600 (1969) 380 (1956) 3760 542 595 840 1010 1930 3550 4870 8680 13000
2021-01-31 17:00 12.99 18500 52600 (1969) 380 (1956) 3760 542 595 840 1010 1930 3550 4870 8680 13000
2021-01-31 16:30 12.93 18400 52600 (1969) 380 (1956) 3760 542 595 840 1010 1930 3550 4870 8680 13000
2021-01-31 16:00 12.91 18300 52600 (1969) 380 (1956) 3760 542 595 840 1010 1930 3550 4870 8680 13000
2021-01-31 15:30 12.85 18200 52600 (1969) 380 (1956) 3760 542 595 840 1010 1930 3550 4870 8680 13000
2021-01-31 15:00 12.84 18200 52600 (1969) 380 (1956) 3760 542 595 840 1010 1930 3550 4870 8680 13000
2021-01-31 14:30 12.80 18100 52600 (1969) 380 (1956) 3760 542 595 840 1010 1930 3550 4870 8680 13000
2021-01-31 14:00 12.77 18000 52600 (1969) 380 (1956) 3760 542 595 840 1010 1930 3550 4870 8680 13000
2021-01-31 13:30 12.75 18000 52600 (1969) 380 (1956) 3760 542 595 840 1010 1930 3550 4870 8680 13000
2021-01-31 13:00 12.73 17900 52600 (1969) 380 (1956) 3760 542 595 840 1010 1930 3550 4870 8680 13000
2021-01-31 12:30 12.68 17800 52600 (1969) 380 (1956) 3760 542 595 840 1010 1930 3550 4870 8680 13000
2021-01-31 12:00 12.71 17900 52600 (1969) 380 (1956) 3760 542 595 840 1010 1930 3550 4870 8680 13000
2021-01-31 11:30 12.66 17700 52600 (1969) 380 (1956) 3760 542 595 840 1010 1930 3550 4870 8680 13000
2021-01-31 11:00 12.61 17600 52600 (1969) 380 (1956) 3760 542 595 840 1010 1930 3550 4870 8680 13000
2021-01-31 10:30 12.60 17600 52600 (1969) 380 (1956) 3760 542 595 840 1010 1930 3550 4870 8680 13000
2021-01-31 10:00 12.58 17600 52600 (1969) 380 (1956) 3760 542 595 840 1010 1930 3550 4870 8680 13000
2021-01-31 09:30 12.57 17500 52600 (1969) 380 (1956) 3760 542 595 840 1010 1930 3550 4870 8680 13000
2021-01-31 09:00 12.55 17500 52600 (1969) 380 (1956) 3760 542 595 840 1010 1930 3550 4870 8680 13000
2021-01-31 08:30 12.53 17400 52600 (1969) 380 (1956) 3760 542 595 840 1010 1930 3550 4870 8680 13000
2021-01-31 08:00 12.46 17300 52600 (1969) 380 (1956) 3760 542 595 840 1010 1930 3550 4870 8680 13000
2021-01-31 07:30 12.45 17300 52600 (1969) 380 (1956) 3760 542 595 840 1010 1930 3550 4870 8680 13000
2021-01-31 07:00 12.38 17100 52600 (1969) 380 (1956) 3760 542 595 840 1010 1930 3550 4870 8680 13000
2021-01-31 06:30 12.35 17000 52600 (1969) 380 (1956) 3760 542 595 840 1010 1930 3550 4870 8680 13000
2021-01-31 06:00 12.29 16900 52600 (1969) 380 (1956) 3760 542 595 840 1010 1930 3550 4870 8680 13000
2021-01-31 05:30 12.20 16700 52600 (1969) 380 (1956) 3760 542 595 840 1010 1930 3550 4870 8680 13000
2021-01-31 05:00 12.15 16600 52600 (1969) 380 (1956) 3760 542 595 840 1010 1930 3550 4870 8680 13000
2021-01-31 04:30 12.06 16400 52600 (1969) 380 (1956) 3760 542 595 840 1010 1930 3550 4870 8680 13000
2021-01-31 04:00 11.97 16200 52600 (1969) 380 (1956) 3760 542 595 840 1010 1930 3550 4870 8680 13000
2021-01-31 03:30 11.88 16000 52600 (1969) 380 (1956) 3760 542 595 840 1010 1930 3550 4870 8680 13000
2021-01-31 03:00 11.77 15700 52600 (1969) 380 (1956) 3760 542 595 840 1010 1930 3550 4870 8680 13000
2021-01-31 02:30 11.65 15500 52600 (1969) 380 (1956) 3760 542 595 840 1010 1930 3550 4870 8680 13000
2021-01-31 02:00 11.54 15200 52600 (1969) 380 (1956) 3760 542 595 840 1010 1930 3550 4870 8680 13000
2021-01-31 01:30 11.41 14900 52600 (1969) 380 (1956) 3760 542 595 840 1010 1930 3550 4870 8680 13000
2021-01-31 01:00 11.23 14500 52600 (1969) 380 (1956) 3760 542 595 840 1010 1930 3550 4870 8680 13000
2021-01-31 00:30 11.12 14300 52600 (1969) 380 (1956) 3760 542 595 840 1010 1930 3550 4870 8680 13000
2021-01-31 00:00 10.95 13900 52600 (1969) 380 (1956) 3760 542 595 840 1010 1930 3550 4870 8680 13000
2021-01-30 23:30 10.78 13600 35000 (1969) 372 (1956) 3240 568 613 854 1050 1790 3320 3680 8100 10600
2021-01-30 23:00 10.54 13100 35000 (1969) 372 (1956) 3240 568 613 854 1050 1790 3320 3680 8100 10600
2021-01-30 22:30 10.36 12700 35000 (1969) 372 (1956) 3240 568 613 854 1050 1790 3320 3680 8100 10600
2021-01-30 22:00 10.11 12200 35000 (1969) 372 (1956) 3240 568 613 854 1050 1790 3320 3680 8100 10600
2021-01-30 21:30 9.82 11600 35000 (1969) 372 (1956) 3240 568 613 854 1050 1790 3320 3680 8100 10600
2021-01-30 21:00 9.55 11000 35000 (1969) 372 (1956) 3240 568 613 854 1050 1790 3320 3680 8100 10600
2021-01-30 20:30 9.25 10400 35000 (1969) 372 (1956) 3240 568 613 854 1050 1790 3320 3680 8100 10600
2021-01-30 20:00 8.95 9820 35000 (1969) 372 (1956) 3240 568 613 854 1050 1790 3320 3680 8100 10600
2021-01-30 19:30 8.66 9250 35000 (1969) 372 (1956) 3240 568 613 854 1050 1790 3320 3680 8100 10600
2021-01-30 19:00 8.41 8770 35000 (1969) 372 (1956) 3240 568 613 854 1050 1790 3320 3680 8100 10600
2021-01-30 18:30 8.15 8280 35000 (1969) 372 (1956) 3240 568 613 854 1050 1790 3320 3680 8100 10600
2021-01-30 18:00 7.90 7810 35000 (1969) 372 (1956) 3240 568 613 854 1050 1790 3320 3680 8100 10600
2021-01-30 17:30 7.72 7480 35000 (1969) 372 (1956) 3240 568 613 854 1050 1790 3320 3680 8100 10600
2021-01-30 17:00 7.56 7190 35000 (1969) 372 (1956) 3240 568 613 854 1050 1790 3320 3680 8100 10600
2021-01-30 16:30 7.42 6940 35000 (1969) 372 (1956) 3240 568 613 854 1050 1790 3320 3680 8100 10600
2021-01-30 16:00 7.31 6740 35000 (1969) 372 (1956) 3240 568 613 854 1050 1790 3320 3680 8100 10600
2021-01-30 15:30 7.21 6560 35000 (1969) 372 (1956) 3240 568 613 854 1050 1790 3320 3680 8100 10600
2021-01-30 15:00 7.12 6400 35000 (1969) 372 (1956) 3240 568 613 854 1050 1790 3320 3680 8100 10600
2021-01-30 14:30 7.07 6320 35000 (1969) 372 (1956) 3240 568 613 854 1050 1790 3320 3680 8100 10600
2021-01-30 14:00 7.03 6250 35000 (1969) 372 (1956) 3240 568 613 854 1050 1790 3320 3680 8100 10600
2021-01-30 13:30 7.02 6230 35000 (1969) 372 (1956) 3240 568 613 854 1050 1790 3320 3680 8100 10600
2021-01-30 13:00 7.01 6210 35000 (1969) 372 (1956) 3240 568 613 854 1050 1790 3320 3680 8100 10600
2021-01-30 12:30 7.00 6190 35000 (1969) 372 (1956) 3240 568 613 854 1050 1790 3320 3680 8100 10600
2021-01-30 12:00 7.01 6210 35000 (1969) 372 (1956) 3240 568 613 854 1050 1790 3320 3680 8100 10600
2021-01-30 11:30 7.03 6250 35000 (1969) 372 (1956) 3240 568 613 854 1050 1790 3320 3680 8100 10600
2021-01-30 11:00 7.04 6260 35000 (1969) 372 (1956) 3240 568 613 854 1050 1790 3320 3680 8100 10600
2021-01-30 10:30 7.04 6260 35000 (1969) 372 (1956) 3240 568 613 854 1050 1790 3320 3680 8100 10600
2021-01-30 10:00 7.08 6330 35000 (1969) 372 (1956) 3240 568 613 854 1050 1790 3320 3680 8100 10600
2021-01-30 09:30 7.09 6350 35000 (1969) 372 (1956) 3240 568 613 854 1050 1790 3320 3680 8100 10600
2021-01-30 09:00 7.10 6370 35000 (1969) 372 (1956) 3240 568 613 854 1050 1790 3320 3680 8100 10600
2021-01-30 08:30 7.12 6400 35000 (1969) 372 (1956) 3240 568 613 854 1050 1790 3320 3680 8100 10600
2021-01-30 08:00 7.14 6440 35000 (1969) 372 (1956) 3240 568 613 854 1050 1790 3320 3680 8100 10600
2021-01-30 07:30 7.16 6470 35000 (1969) 372 (1956) 3240 568 613 854 1050 1790 3320 3680 8100 10600
2021-01-30 07:00 7.17 6490 35000 (1969) 372 (1956) 3240 568 613 854 1050 1790 3320 3680 8100 10600
2021-01-30 06:30 7.22 6580 35000 (1969) 372 (1956) 3240 568 613 854 1050 1790 3320 3680 8100 10600
2021-01-30 06:00 7.21 6560 35000 (1969) 372 (1956) 3240 568 613 854 1050 1790 3320 3680 8100 10600
2021-01-30 05:30 7.25 6630 35000 (1969) 372 (1956) 3240 568 613 854 1050 1790 3320 3680 8100 10600
2021-01-30 05:00 7.27 6670 35000 (1969) 372 (1956) 3240 568 613 854 1050 1790 3320 3680 8100 10600
2021-01-30 04:30 7.29 6700 35000 (1969) 372 (1956) 3240 568 613 854 1050 1790 3320 3680 8100 10600
2021-01-30 04:00 7.32 6760 35000 (1969) 372 (1956) 3240 568 613 854 1050 1790 3320 3680 8100 10600
2021-01-30 03:30 7.34 6790 35000 (1969) 372 (1956) 3240 568 613 854 1050 1790 3320 3680 8100 10600
2021-01-30 03:00 7.36 6830 35000 (1969) 372 (1956) 3240 568 613 854 1050 1790 3320 3680 8100 10600
2021-01-30 02:30 7.41 6920 35000 (1969) 372 (1956) 3240 568 613 854 1050 1790 3320 3680 8100 10600
2021-01-30 02:00 7.41 6920 35000 (1969) 372 (1956) 3240 568 613 854 1050 1790 3320 3680 8100 10600
2021-01-30 01:30 7.44 6970 35000 (1969) 372 (1956) 3240 568 613 854 1050 1790 3320 3680 8100 10600
2021-01-30 01:00 7.48 7050 35000 (1969) 372 (1956) 3240 568 613 854 1050 1790 3320 3680 8100 10600
2021-01-30 00:30 7.51 7100 35000 (1969) 372 (1956) 3240 568 613 854 1050 1790 3320 3680 8100 10600
2021-01-30 00:00 7.54 7150 35000 (1969) 372 (1956) 3240 568 613 854 1050 1790 3320 3680 8100 10600
2021-01-29 23:30 7.56 7190 26300 (1997) 365 (1956) 3040 570 615 841 1050 1800 3100 3660 6540 12300
2021-01-29 23:00 7.60 7260 26300 (1997) 365 (1956) 3040 570 615 841 1050 1800 3100 3660 6540 12300
2021-01-29 22:30 7.63 7320 26300 (1997) 365 (1956) 3040 570 615 841 1050 1800 3100 3660 6540 12300
2021-01-29 22:00 7.68 7410 26300 (1997) 365 (1956) 3040 570 615 841 1050 1800 3100 3660 6540 12300
2021-01-29 21:30 7.70 7440 26300 (1997) 365 (1956) 3040 570 615 841 1050 1800 3100 3660 6540 12300
2021-01-29 21:00 7.75 7540 26300 (1997) 365 (1956) 3040 570 615 841 1050 1800 3100 3660 6540 12300
2021-01-29 20:30 7.78 7590 26300 (1997) 365 (1956) 3040 570 615 841 1050 1800 3100 3660 6540 12300
2021-01-29 20:00 7.82 7670 26300 (1997) 365 (1956) 3040 570 615 841 1050 1800 3100 3660 6540 12300
2021-01-29 19:30 7.86 7740 26300 (1997) 365 (1956) 3040 570 615 841 1050 1800 3100 3660 6540 12300
2021-01-29 19:00 7.89 7790 26300 (1997) 365 (1956) 3040 570 615 841 1050 1800 3100 3660 6540 12300
2021-01-29 18:30 7.95 7910 26300 (1997) 365 (1956) 3040 570 615 841 1050 1800 3100 3660 6540 12300
2021-01-29 18:00 8.00 8000 26300 (1997) 365 (1956) 3040 570 615 841 1050 1800 3100 3660 6540 12300
2021-01-29 17:30 8.04 8070 26300 (1997) 365 (1956) 3040 570 615 841 1050 1800 3100 3660 6540 12300
2021-01-29 17:00 8.07 8130 26300 (1997) 365 (1956) 3040 570 615 841 1050 1800 3100 3660 6540 12300
2021-01-29 16:30 8.14 8260 26300 (1997) 365 (1956) 3040 570 615 841 1050 1800 3100 3660 6540 12300
2021-01-29 16:00 8.18 8340 26300 (1997) 365 (1956) 3040 570 615 841 1050 1800 3100 3660 6540 12300
2021-01-29 15:30 8.23 8430 26300 (1997) 365 (1956) 3040 570 615 841 1050 1800 3100 3660 6540 12300
2021-01-29 15:00 8.30 8560 26300 (1997) 365 (1956) 3040 570 615 841 1050 1800 3100 3660 6540 12300
2021-01-29 14:30 8.37 8700 26300 (1997) 365 (1956) 3040 570 615 841 1050 1800 3100 3660 6540 12300
2021-01-29 14:00 8.43 8810 26300 (1997) 365 (1956) 3040 570 615 841 1050 1800 3100 3660 6540 12300
2021-01-29 13:30 8.51 8960 26300 (1997) 365 (1956) 3040 570 615 841 1050 1800 3100 3660 6540 12300
2021-01-29 13:00 8.59 9120 26300 (1997) 365 (1956) 3040 570 615 841 1050 1800 3100 3660 6540 12300
2021-01-29 12:30 8.73 9390 26300 (1997) 365 (1956) 3040 570 615 841 1050 1800 3100 3660 6540 12300
2021-01-29 12:00 8.78 9490 26300 (1997) 365 (1956) 3040 570 615 841 1050 1800 3100 3660 6540 12300
2021-01-29 11:30 8.91 9740 26300 (1997) 365 (1956) 3040 570 615 841 1050 1800 3100 3660 6540 12300
2021-01-29 11:00 9.00 9920 26300 (1997) 365 (1956) 3040 570 615 841 1050 1800 3100 3660 6540 12300
2021-01-29 10:30 9.11 10100 26300 (1997) 365 (1956) 3040 570 615 841 1050 1800 3100 3660 6540 12300
2021-01-29 10:00 9.21 10300 26300 (1997) 365 (1956) 3040 570 615 841 1050 1800 3100 3660 6540 12300
2021-01-29 09:30 9.34 10600 26300 (1997) 365 (1956) 3040 570 615 841 1050 1800 3100 3660 6540 12300
2021-01-29 09:00 9.46 10800 26300 (1997) 365 (1956) 3040 570 615 841 1050 1800 3100 3660 6540 12300
2021-01-29 08:30 9.62 11200 26300 (1997) 365 (1956) 3040 570 615 841 1050 1800 3100 3660 6540 12300
2021-01-29 08:00 9.76 11400 26300 (1997) 365 (1956) 3040 570 615 841 1050 1800 3100 3660 6540 12300
2021-01-29 07:30 9.92 11800 26300 (1997) 365 (1956) 3040 570 615 841 1050 1800 3100 3660 6540 12300
2021-01-29 07:00 10.08 12100 26300 (1997) 365 (1956) 3040 570 615 841 1050 1800 3100 3660 6540 12300
2021-01-29 06:30 10.26 12500 26300 (1997) 365 (1956) 3040 570 615 841 1050 1800 3100 3660 6540 12300
2021-01-29 06:00 10.44 12900 26300 (1997) 365 (1956) 3040 570 615 841 1050 1800 3100 3660 6540 12300
2021-01-29 05:30 10.64 13300 26300 (1997) 365 (1956) 3040 570 615 841 1050 1800 3100 3660 6540 12300
2021-01-29 05:00 10.82 13700 26300 (1997) 365 (1956) 3040 570 615 841 1050 1800 3100 3660 6540 12300
2021-01-29 04:30 11.04 14100 26300 (1997) 365 (1956) 3040 570 615 841 1050 1800 3100 3660 6540 12300
2021-01-29 04:00 11.25 14600 26300 (1997) 365 (1956) 3040 570 615 841 1050 1800 3100 3660 6540 12300
2021-01-29 03:30 11.46 15100 26300 (1997) 365 (1956) 3040 570 615 841 1050 1800 3100 3660 6540 12300
2021-01-29 03:00 11.68 15500 26300 (1997) 365 (1956) 3040 570 615 841 1050 1800 3100 3660 6540 12300
2021-01-29 02:30 11.92 16100 26300 (1997) 365 (1956) 3040 570 615 841 1050 1800 3100 3660 6540 12300
2021-01-29 02:00 12.14 16600 26300 (1997) 365 (1956) 3040 570 615 841 1050 1800 3100 3660 6540 12300
2021-01-29 01:30 12.38 17100 26300 (1997) 365 (1956) 3040 570 615 841 1050 1800 3100 3660 6540 12300
2021-01-29 01:00 12.60 17600 26300 (1997) 365 (1956) 3040 570 615 841 1050 1800 3100 3660 6540 12300
2021-01-29 00:30 12.83 18100 26300 (1997) 365 (1956) 3040 570 615 841 1050 1800 3100 3660 6540 12300
2021-01-29 00:00 13.05 18600 26300 (1997) 365 (1956) 3040 570 615 841 1050 1800 3100 3660 6540 12300
2021-01-28 23:30 13.29 19200 25200 (1997) 365 (1956) 3020 571 643 856 1070 1780 3590 3930 6580 9530
2021-01-28 23:00 13.50 19700 25200 (1997) 365 (1956) 3020 571 643 856 1070 1780 3590 3930 6580 9530
2021-01-28 22:30 13.72 20200 25200 (1997) 365 (1956) 3020 571 643 856 1070 1780 3590 3930 6580 9530
2021-01-28 22:00 13.93 20700 25200 (1997) 365 (1956) 3020 571 643 856 1070 1780 3590 3930 6580 9530
2021-01-28 21:30 14.15 21200 25200 (1997) 365 (1956) 3020 571 643 856 1070 1780 3590 3930 6580 9530
2021-01-28 21:00 14.35 21700 25200 (1997) 365 (1956) 3020 571 643 856 1070 1780 3590 3930 6580 9530
2021-01-28 20:30 14.53 22200 25200 (1997) 365 (1956) 3020 571 643 856 1070 1780 3590 3930 6580 9530
2021-01-28 20:00 14.70 22600 25200 (1997) 365 (1956) 3020 571 643 856 1070 1780 3590 3930 6580 9530
2021-01-28 19:30 14.86 23000 25200 (1997) 365 (1956) 3020 571 643 856 1070 1780 3590 3930 6580 9530
2021-01-28 19:00 15.03 23400 25200 (1997) 365 (1956) 3020 571 643 856 1070 1780 3590 3930 6580 9530
2021-01-28 18:30 15.18 23800 25200 (1997) 365 (1956) 3020 571 643 856 1070 1780 3590 3930 6580 9530
2021-01-28 18:00 15.30 24000 25200 (1997) 365 (1956) 3020 571 643 856 1070 1780 3590 3930 6580 9530
2021-01-28 17:30 15.39 24300 25200 (1997) 365 (1956) 3020 571 643 856 1070 1780 3590 3930 6580 9530
2021-01-28 17:00 15.56 24700 25200 (1997) 365 (1956) 3020 571 643 856 1070 1780 3590 3930 6580 9530
2021-01-28 16:30 15.66 24900 25200 (1997) 365 (1956) 3020 571 643 856 1070 1780 3590 3930 6580 9530
2021-01-28 16:00 15.73 25100 25200 (1997) 365 (1956) 3020 571 643 856 1070 1780 3590 3930 6580 9530
2021-01-28 15:30 15.80 25300 25200 (1997) 365 (1956) 3020 571 643 856 1070 1780 3590 3930 6580 9530
2021-01-28 15:00 15.85 25400 25200 (1997) 365 (1956) 3020 571 643 856 1070 1780 3590 3930 6580 9530
2021-01-28 14:30 15.91 25600 25200 (1997) 365 (1956) 3020 571 643 856 1070 1780 3590 3930 6580 9530
2021-01-28 14:00 16.00 25800 25200 (1997) 365 (1956) 3020 571 643 856 1070 1780 3590 3930 6580 9530
2021-01-28 13:30 16.05 25900 25200 (1997) 365 (1956) 3020 571 643 856 1070 1780 3590 3930 6580 9530
2021-01-28 13:00 16.09 26000 25200 (1997) 365 (1956) 3020 571 643 856 1070 1780 3590 3930 6580 9530
2021-01-28 12:30 16.13 26100 25200 (1997) 365 (1956) 3020 571 643 856 1070 1780 3590 3930 6580 9530
2021-01-28 12:00 16.18 26300 25200 (1997) 365 (1956) 3020 571 643 856 1070 1780 3590 3930 6580 9530
2021-01-28 11:30 16.17 26200 25200 (1997) 365 (1956) 3020 571 643 856 1070 1780 3590 3930 6580 9530
2021-01-28 11:00 16.22 26400 25200 (1997) 365 (1956) 3020 571 643 856 1070 1780 3590 3930 6580 9530
2021-01-28 10:30 16.24 26400 25200 (1997) 365 (1956) 3020 571 643 856 1070 1780 3590 3930 6580 9530
2021-01-28 10:00 16.28 26500 25200 (1997) 365 (1956) 3020 571 643 856 1070 1780 3590 3930 6580 9530
2021-01-28 09:30 16.29 26500 25200 (1997) 365 (1956) 3020 571 643 856 1070 1780 3590 3930 6580 9530
2021-01-28 09:00 16.31 26600 25200 (1997) 365 (1956) 3020 571 643 856 1070 1780 3590 3930 6580 9530
2021-01-28 08:30 16.32 26600 25200 (1997) 365 (1956) 3020 571 643 856 1070 1780 3590 3930 6580 9530
2021-01-28 08:00 16.37 26700 25200 (1997) 365 (1956) 3020 571 643 856 1070 1780 3590 3930 6580 9530
2021-01-28 07:30 16.37 26700 25200 (1997) 365 (1956) 3020 571 643 856 1070 1780 3590 3930 6580 9530
2021-01-28 07:00 16.36 26700 25200 (1997) 365 (1956) 3020 571 643 856 1070 1780 3590 3930 6580 9530
2021-01-28 06:30 16.38 26800 25200 (1997) 365 (1956) 3020 571 643 856 1070 1780 3590 3930 6580 9530
2021-01-28 06:00 16.39 26800 25200 (1997) 365 (1956) 3020 571 643 856 1070 1780 3590 3930 6580 9530
2021-01-28 05:30 16.38 26800 25200 (1997) 365 (1956) 3020 571 643 856 1070 1780 3590 3930 6580 9530
2021-01-28 05:00 16.40 26800 25200 (1997) 365 (1956) 3020 571 643 856 1070 1780 3590 3930 6580 9530
2021-01-28 04:30 16.44 26900 25200 (1997) 365 (1956) 3020 571 643 856 1070 1780 3590 3930 6580 9530
2021-01-28 04:00 16.43 26900 25200 (1997) 365 (1956) 3020 571 643 856 1070 1780 3590 3930 6580 9530
2021-01-28 03:30 16.47 27000 25200 (1997) 365 (1956) 3020 571 643 856 1070 1780 3590 3930 6580 9530
2021-01-28 03:00 16.49 27000 25200 (1997) 365 (1956) 3020 571 643 856 1070 1780 3590 3930 6580 9530
2021-01-28 02:30 16.50 27100 25200 (1997) 365 (1956) 3020 571 643 856 1070 1780 3590 3930 6580 9530
2021-01-28 02:00 16.49 27000 25200 (1997) 365 (1956) 3020 571 643 856 1070 1780 3590 3930 6580 9530
2021-01-28 01:30 16.51 27100 25200 (1997) 365 (1956) 3020 571 643 856 1070 1780 3590 3930 6580 9530
2021-01-28 01:00 16.50 27100 25200 (1997) 365 (1956) 3020 571 643 856 1070 1780 3590 3930 6580 9530
2021-01-28 00:30 16.56 27200 25200 (1997) 365 (1956) 3020 571 643 856 1070 1780 3590 3930 6580 9530
2021-01-28 00:00 16.61 27400 25200 (1997) 365 (1956) 3020 571 643 856 1070 1780 3590 3930 6580 9530
2021-01-27 23:30 16.58 27300 29000 (1949) 395 (1956) 3120 578 653 883 1030 1810 3790 4630 6280 11400
2021-01-27 23:00 16.65 27500 29000 (1949) 395 (1956) 3120 578 653 883 1030 1810 3790 4630 6280 11400
2021-01-27 22:30 16.64 27400 29000 (1949) 395 (1956) 3120 578 653 883 1030 1810 3790 4630 6280 11400
2021-01-27 22:00 16.65 27500 29000 (1949) 395 (1956) 3120 578 653 883 1030 1810 3790 4630 6280 11400
2021-01-27 21:30 16.70 27600 29000 (1949) 395 (1956) 3120 578 653 883 1030 1810 3790 4630 6280 11400
2021-01-27 21:00 16.73 27700 29000 (1949) 395 (1956) 3120 578 653 883 1030 1810 3790 4630 6280 11400
2021-01-27 20:30 16.76 27700 29000 (1949) 395 (1956) 3120 578 653 883 1030 1810 3790 4630 6280 11400
2021-01-27 20:00 16.77 27800 29000 (1949) 395 (1956) 3120 578 653 883 1030 1810 3790 4630 6280 11400
2021-01-27 19:30 16.84 27900 29000 (1949) 395 (1956) 3120 578 653 883 1030 1810 3790 4630 6280 11400
2021-01-27 19:00 16.80 27800 29000 (1949) 395 (1956) 3120 578 653 883 1030 1810 3790 4630 6280 11400
2021-01-27 18:30 16.86 28000 29000 (1949) 395 (1956) 3120 578 653 883 1030 1810 3790 4630 6280 11400
2021-01-27 18:00 16.86 28000 29000 (1949) 395 (1956) 3120 578 653 883 1030 1810 3790 4630 6280 11400
2021-01-27 17:30 16.91 28100 29000 (1949) 395 (1956) 3120 578 653 883 1030 1810 3790 4630 6280 11400
2021-01-27 17:00 16.94 28200 29000 (1949) 395 (1956) 3120 578 653 883 1030 1810 3790 4630 6280 11400
2021-01-27 16:30 16.94 28200 29000 (1949) 395 (1956) 3120 578 653 883 1030 1810 3790 4630 6280 11400
2021-01-27 16:00 16.94 28200 29000 (1949) 395 (1956) 3120 578 653 883 1030 1810 3790 4630 6280 11400
2021-01-27 15:30 16.96 28300 29000 (1949) 395 (1956) 3120 578 653 883 1030 1810 3790 4630 6280 11400
2021-01-27 15:00 16.95 28200 29000 (1949) 395 (1956) 3120 578 653 883 1030 1810 3790 4630 6280 11400
2021-01-27 14:30 16.96 28300 29000 (1949) 395 (1956) 3120 578 653 883 1030 1810 3790 4630 6280 11400
2021-01-27 14:00 16.95 28200 29000 (1949) 395 (1956) 3120 578 653 883 1030 1810 3790 4630 6280 11400
2021-01-27 13:30 16.99 28300 29000 (1949) 395 (1956) 3120 578 653 883 1030 1810 3790 4630 6280 11400
2021-01-27 13:00 16.97 28300 29000 (1949) 395 (1956) 3120 578 653 883 1030 1810 3790 4630 6280 11400
2021-01-27 12:30 16.95 28200 29000 (1949) 395 (1956) 3120 578 653 883 1030 1810 3790 4630 6280 11400
2021-01-27 12:00 16.91 28100 29000 (1949) 395 (1956) 3120 578 653 883 1030 1810 3790 4630 6280 11400
2021-01-27 11:30 16.93 28200 29000 (1949) 395 (1956) 3120 578 653 883 1030 1810 3790 4630 6280 11400
2021-01-27 11:00 16.89 28100 29000 (1949) 395 (1956) 3120 578 653 883 1030 1810 3790 4630 6280 11400
2021-01-27 10:30 16.84 27900 29000 (1949) 395 (1956) 3120 578 653 883 1030 1810 3790 4630 6280 11400
2021-01-27 10:00 16.81 27900 29000 (1949) 395 (1956) 3120 578 653 883 1030 1810 3790 4630 6280 11400
2021-01-27 09:30 16.82 27900 29000 (1949) 395 (1956) 3120 578 653 883 1030 1810 3790 4630 6280 11400
2021-01-27 09:00 16.78 27800 29000 (1949) 395 (1956) 3120 578 653 883 1030 1810 3790 4630 6280 11400
2021-01-27 08:30 16.73 27700 29000 (1949) 395 (1956) 3120 578 653 883 1030 1810 3790 4630 6280 11400
2021-01-27 08:00 16.68 27500 29000 (1949) 395 (1956) 3120 578 653 883 1030 1810 3790 4630 6280 11400
2021-01-27 07:30 16.64 27400 29000 (1949) 395 (1956) 3120 578 653 883 1030 1810 3790 4630 6280 11400
2021-01-27 07:00 16.57 27300 29000 (1949) 395 (1956) 3120 578 653 883 1030 1810 3790 4630 6280 11400
2021-01-27 06:30 16.51 27100 29000 (1949) 395 (1956) 3120 578 653 883 1030 1810 3790 4630 6280 11400
2021-01-27 06:00 16.48 27000 29000 (1949) 395 (1956) 3120 578 653 883 1030 1810 3790 4630 6280 11400
2021-01-27 05:30 16.37 26700 29000 (1949) 395 (1956) 3120 578 653 883 1030 1810 3790 4630 6280 11400
2021-01-27 05:00 16.36 26700 29000 (1949) 395 (1956) 3120 578 653 883 1030 1810 3790 4630 6280 11400
2021-01-27 04:30 16.24 26400 29000 (1949) 395 (1956) 3120 578 653 883 1030 1810 3790 4630 6280 11400
2021-01-27 04:00 16.22 26400 29000 (1949) 395 (1956) 3120 578 653 883 1030 1810 3790 4630 6280 11400
2021-01-27 03:30 16.17 26200 29000 (1949) 395 (1956) 3120 578 653 883 1030 1810 3790 4630 6280 11400
2021-01-27 03:00 16.12 26100 29000 (1949) 395 (1956) 3120 578 653 883 1030 1810 3790 4630 6280 11400
2021-01-27 02:30 16.01 25800 29000 (1949) 395 (1956) 3120 578 653 883 1030 1810 3790 4630 6280 11400
2021-01-27 02:00 15.90 25500 29000 (1949) 395 (1956) 3120 578 653 883 1030 1810 3790 4630 6280 11400
2021-01-27 01:30 15.85 25400 29000 (1949) 395 (1956) 3120 578 653 883 1030 1810 3790 4630 6280 11400
2021-01-27 01:00 15.79 25300 29000 (1949) 395 (1956) 3120 578 653 883 1030 1810 3790 4630 6280 11400
2021-01-27 00:30 15.69 25000 29000 (1949) 395 (1956) 3120 578 653 883 1030 1810 3790 4630 6280 11400
2021-01-27 00:00 15.63 24900 29000 (1949) 395 (1956) 3120 578 653 883 1030 1810 3790 4630 6280 11400
2021-01-26 23:30 15.55 24700 27700 (1949) 380 (1956) 3160 602 658 841 992 1920 3930 4890 7040 8010
2021-01-26 23:00 15.45 24400 27700 (1949) 380 (1956) 3160 602 658 841 992 1920 3930 4890 7040 8010
2021-01-26 22:30 15.35 24200 27700 (1949) 380 (1956) 3160 602 658 841 992 1920 3930 4890 7040 8010
2021-01-26 22:00 15.30 24000 27700 (1949) 380 (1956) 3160 602 658 841 992 1920 3930 4890 7040 8010
2021-01-26 21:30 15.20 23800 27700 (1949) 380 (1956) 3160 602 658 841 992 1920 3930 4890 7040 8010
2021-01-26 21:00 15.13 23600 27700 (1949) 380 (1956) 3160 602 658 841 992 1920 3930 4890 7040 8010
2021-01-26 20:30 14.98 23300 27700 (1949) 380 (1956) 3160 602 658 841 992 1920 3930 4890 7040 8010
2021-01-26 20:00 14.89 23000 27700 (1949) 380 (1956) 3160 602 658 841 992 1920 3930 4890 7040 8010
2021-01-26 19:30 14.81 22800 27700 (1949) 380 (1956) 3160 602 658 841 992 1920 3930 4890 7040 8010
2021-01-26 19:00 14.66 22500 27700 (1949) 380 (1956) 3160 602 658 841 992 1920 3930 4890 7040 8010
2021-01-26 18:30 14.54 22200 27700 (1949) 380 (1956) 3160 602 658 841 992 1920 3930 4890 7040 8010
2021-01-26 18:00 14.46 22000 27700 (1949) 380 (1956) 3160 602 658 841 992 1920 3930 4890 7040 8010
2021-01-26 17:30 14.37 21800 27700 (1949) 380 (1956) 3160 602 658 841 992 1920 3930 4890 7040 8010
2021-01-26 17:00 14.24 21500 27700 (1949) 380 (1956) 3160 602 658 841 992 1920 3930 4890 7040 8010
2021-01-26 16:30 14.10 21100 27700 (1949) 380 (1956) 3160 602 658 841 992 1920 3930 4890 7040 8010
2021-01-26 16:00 14.01 20900 27700 (1949) 380 (1956) 3160 602 658 841 992 1920 3930 4890 7040 8010
2021-01-26 15:30 13.88 20600 27700 (1949) 380 (1956) 3160 602 658 841 992 1920 3930 4890 7040 8010
2021-01-26 15:00 13.78 20400 27700 (1949) 380 (1956) 3160 602 658 841 992 1920 3930 4890 7040 8010
2021-01-26 14:30 13.62 20000 27700 (1949) 380 (1956) 3160 602 658 841 992 1920 3930 4890 7040 8010
2021-01-26 14:00 13.47 19600 27700 (1949) 380 (1956) 3160 602 658 841 992 1920 3930 4890 7040 8010
2021-01-26 13:30 13.37 19400 27700 (1949) 380 (1956) 3160 602 658 841 992 1920 3930 4890 7040 8010
2021-01-26 13:00 13.18 18900 27700 (1949) 380 (1956) 3160 602 658 841 992 1920 3930 4890 7040 8010
2021-01-26 12:30 13.09 18700 27700 (1949) 380 (1956) 3160 602 658 841 992 1920 3930 4890 7040 8010
2021-01-26 12:00 12.95 18400 27700 (1949) 380 (1956) 3160 602 658 841 992 1920 3930 4890 7040 8010
2021-01-26 11:30 12.80 18100 27700 (1949) 380 (1956) 3160 602 658 841 992 1920 3930 4890 7040 8010
2021-01-26 11:00 12.65 17700 27700 (1949) 380 (1956) 3160 602 658 841 992 1920 3930 4890 7040 8010
2021-01-26 10:30 12.53 17400 27700 (1949) 380 (1956) 3160 602 658 841 992 1920 3930 4890 7040 8010
2021-01-26 10:00 12.37 17100 27700 (1949) 380 (1956) 3160 602 658 841 992 1920 3930 4890 7040 8010
2021-01-26 09:30 12.18 16700 27700 (1949) 380 (1956) 3160 602 658 841 992 1920 3930 4890 7040 8010
2021-01-26 09:00 12.08 16400 27700 (1949) 380 (1956) 3160 602 658 841 992 1920 3930 4890 7040 8010
2021-01-26 08:30 11.98 16200 27700 (1949) 380 (1956) 3160 602 658 841 992 1920 3930 4890 7040 8010
2021-01-26 08:00 11.79 15800 27700 (1949) 380 (1956) 3160 602 658 841 992 1920 3930 4890 7040 8010
2021-01-26 07:30 11.68 15500 27700 (1949) 380 (1956) 3160 602 658 841 992 1920 3930 4890 7040 8010
2021-01-26 07:00 11.56 15300 27700 (1949) 380 (1956) 3160 602 658 841 992 1920 3930 4890 7040 8010
2021-01-26 06:30 11.42 15000 27700 (1949) 380 (1956) 3160 602 658 841 992 1920 3930 4890 7040 8010
2021-01-26 06:00 11.29 14700 27700 (1949) 380 (1956) 3160 602 658 841 992 1920 3930 4890 7040 8010
2021-01-26 05:30 11.17 14400 27700 (1949) 380 (1956) 3160 602 658 841 992 1920 3930 4890 7040 8010
2021-01-26 05:00 11.09 14200 27700 (1949) 380 (1956) 3160 602 658 841 992 1920 3930 4890 7040 8010
2021-01-26 04:30 11.00 14000 27700 (1949) 380 (1956) 3160 602 658 841 992 1920 3930 4890 7040 8010
2021-01-26 04:00 10.91 13900 27700 (1949) 380 (1956) 3160 602 658 841 992 1920 3930 4890 7040 8010
2021-01-26 03:30 10.80 13600 27700 (1949) 380 (1956) 3160 602 658 841 992 1920 3930 4890 7040 8010
2021-01-26 03:00 10.76 13500 27700 (1949) 380 (1956) 3160 602 658 841 992 1920 3930 4890 7040 8010
2021-01-26 02:30 10.67 13300 27700 (1949) 380 (1956) 3160 602 658 841 992 1920 3930 4890 7040 8010
2021-01-26 02:00 10.58 13200 27700 (1949) 380 (1956) 3160 602 658 841 992 1920 3930 4890 7040 8010
2021-01-26 01:30 10.54 13100 27700 (1949) 380 (1956) 3160 602 658 841 992 1920 3930 4890 7040 8010
2021-01-26 01:00 10.47 12900 27700 (1949) 380 (1956) 3160 602 658 841 992 1920 3930 4890 7040 8010
2021-01-26 00:30 10.39 12700 27700 (1949) 380 (1956) 3160 602 658 841 992 1920 3930 4890 7040 8010
2021-01-26 00:00 10.36 12700 27700 (1949) 380 (1956) 3160 602 658 841 992 1920 3930 4890 7040 8010
2021-01-25 23:30 10.26 12500 20500 (1949) 358 (1956) 3190 577 653 852 987 1890 4120 4570 7470 10700
2021-01-25 23:00 10.20 12400 20500 (1949) 358 (1956) 3190 577 653 852 987 1890 4120 4570 7470 10700
2021-01-25 22:30 10.11 12200 20500 (1949) 358 (1956) 3190 577 653 852 987 1890 4120 4570 7470 10700
2021-01-25 22:00 10.04 12000 20500 (1949) 358 (1956) 3190 577 653 852 987 1890 4120 4570 7470 10700
2021-01-25 21:30 9.88 11700 20500 (1949) 358 (1956) 3190 577 653 852 987 1890 4120 4570 7470 10700
2021-01-25 21:00 9.76 11400 20500 (1949) 358 (1956) 3190 577 653 852 987 1890 4120 4570 7470 10700
2021-01-25 20:30 9.62 11200 20500 (1949) 358 (1956) 3190 577 653 852 987 1890 4120 4570 7470 10700
2021-01-25 20:00 9.47 10900 20500 (1949) 358 (1956) 3190 577 653 852 987 1890 4120 4570 7470 10700
2021-01-25 19:30 9.29 10500 20500 (1949) 358 (1956) 3190 577 653 852 987 1890 4120 4570 7470 10700
2021-01-25 19:00 9.14 10200 20500 (1949) 358 (1956) 3190 577 653 852 987 1890 4120 4570 7470 10700
2021-01-25 18:30 8.95 9820 20500 (1949) 358 (1956) 3190 577 653 852 987 1890 4120 4570 7470 10700
2021-01-25 18:00 8.73 9390 20500 (1949) 358 (1956) 3190 577 653 852 987 1890 4120 4570 7470 10700
2021-01-25 17:30 8.55 9040 20500 (1949) 358 (1956) 3190 577 653 852 987 1890 4120 4570 7470 10700
2021-01-25 17:00 8.33 8620 20500 (1949) 358 (1956) 3190 577 653 852 987 1890 4120 4570 7470 10700
2021-01-25 16:30 8.14 8260 20500 (1949) 358 (1956) 3190 577 653 852 987 1890 4120 4570 7470 10700
2021-01-25 16:00 7.93 7870 20500 (1949) 358 (1956) 3190 577 653 852 987 1890 4120 4570 7470 10700
2021-01-25 15:30 7.69 7430 20500 (1949) 358 (1956) 3190 577 653 852 987 1890 4120 4570 7470 10700
2021-01-25 15:00 7.46 7010 20500 (1949) 358 (1956) 3190 577 653 852 987 1890 4120 4570 7470 10700
2021-01-25 14:30 7.14 6440 20500 (1949) 358 (1956) 3190 577 653 852 987 1890 4120 4570 7470 10700
2021-01-25 14:00 6.79 5830 20500 (1949) 358 (1956) 3190 577 653 852 987 1890 4120 4570 7470 10700
2021-01-25 13:30 6.42 5190 20500 (1949) 358 (1956) 3190 577 653 852 987 1890 4120 4570 7470 10700
2021-01-25 13:00 5.98 4460 20500 (1949) 358 (1956) 3190 577 653 852 987 1890 4120 4570 7470 10700
2021-01-25 12:30 5.58 3830 20500 (1949) 358 (1956) 3190 577 653 852 987 1890 4120 4570 7470 10700
2021-01-25 12:00 5.28 3360 20500 (1949) 358 (1956) 3190 577 653 852 987 1890 4120 4570 7470 10700
2021-01-25 11:30 5.02 2980 20500 (1949) 358 (1956) 3190 577 653 852 987 1890 4120 4570 7470 10700
2021-01-25 11:00 4.82 2690 20500 (1949) 358 (1956) 3190 577 653 852 987 1890 4120 4570 7470 10700
2021-01-25 10:30 4.62 2410 20500 (1949) 358 (1956) 3190 577 653 852 987 1890 4120 4570 7470 10700
2021-01-25 10:00 4.40 2110 20500 (1949) 358 (1956) 3190 577 653 852 987 1890 4120 4570 7470 10700
2021-01-25 09:30 4.24 1900 20500 (1949) 358 (1956) 3190 577 653 852 987 1890 4120 4570 7470 10700
2021-01-25 09:00 4.12 1740 20500 (1949) 358 (1956) 3190 577 653 852 987 1890 4120 4570 7470 10700
2021-01-25 08:30 4.02 1620 20500 (1949) 358 (1956) 3190 577 653 852 987 1890 4120 4570 7470 10700
2021-01-25 08:00 3.95 1530 20500 (1949) 358 (1956) 3190 577 653 852 987 1890 4120 4570 7470 10700
2021-01-25 07:30 3.92 1490 20500 (1949) 358 (1956) 3190 577 653 852 987 1890 4120 4570 7470 10700
2021-01-25 07:00 3.87 1430 20500 (1949) 358 (1956) 3190 577 653 852 987 1890 4120 4570 7470 10700
2021-01-25 06:30 3.86 1410 20500 (1949) 358 (1956) 3190 577 653 852 987 1890 4120 4570 7470 10700
2021-01-25 06:00 3.85 1400 20500 (1949) 358 (1956) 3190 577 653 852 987 1890 4120 4570 7470 10700
2021-01-25 05:30 3.82 1360 20500 (1949) 358 (1956) 3190 577 653 852 987 1890 4120 4570 7470 10700
2021-01-25 05:00 3.82 1360 20500 (1949) 358 (1956) 3190 577 653 852 987 1890 4120 4570 7470 10700
2021-01-25 04:30 3.80 1340 20500 (1949) 358 (1956) 3190 577 653 852 987 1890 4120 4570 7470 10700
2021-01-25 04:00 3.80 1340 20500 (1949) 358 (1956) 3190 577 653 852 987 1890 4120 4570 7470 10700
2021-01-25 03:30 3.79 1320 20500 (1949) 358 (1956) 3190 577 653 852 987 1890 4120 4570 7470 10700
2021-01-25 03:00 3.79 1320 20500 (1949) 358 (1956) 3190 577 653 852 987 1890 4120 4570 7470 10700
2021-01-25 02:30 3.78 1310 20500 (1949) 358 (1956) 3190 577 653 852 987 1890 4120 4570 7470 10700
2021-01-25 02:00 3.77 1300 20500 (1949) 358 (1956) 3190 577 653 852 987 1890 4120 4570 7470 10700
2021-01-25 01:30 3.79 1320 20500 (1949) 358 (1956) 3190 577 653 852 987 1890 4120 4570 7470 10700
2021-01-25 01:00 3.78 1310 20500 (1949) 358 (1956) 3190 577 653 852 987 1890 4120 4570 7470 10700
2021-01-25 00:30 3.78 1310 20500 (1949) 358 (1956) 3190 577 653 852 987 1890 4120 4570 7470 10700
2021-01-25 00:00 3.79 1320 20500 (1949) 358 (1956) 3190 577 653 852 987 1890 4120 4570 7470 10700
2021-01-24 23:30 3.78 1310 23800 (1906) 351 (1956) 3570 563 660 866 1020 1860 4450 5640 8260 14400
2021-01-24 23:00 3.79 1320 23800 (1906) 351 (1956) 3570 563 660 866 1020 1860 4450 5640 8260 14400
2021-01-24 22:30 3.78 1310 23800 (1906) 351 (1956) 3570 563 660 866 1020 1860 4450 5640 8260 14400
2021-01-24 22:00 3.78 1310 23800 (1906) 351 (1956) 3570 563 660 866 1020 1860 4450 5640 8260 14400
2021-01-24 21:30 3.79 1320 23800 (1906) 351 (1956) 3570 563 660 866 1020 1860 4450 5640 8260 14400
2021-01-24 21:00 3.78 1310 23800 (1906) 351 (1956) 3570 563 660 866 1020 1860 4450 5640 8260 14400
2021-01-24 20:30 3.79 1320 23800 (1906) 351 (1956) 3570 563 660 866 1020 1860 4450 5640 8260 14400
2021-01-24 20:00 3.79 1320 23800 (1906) 351 (1956) 3570 563 660 866 1020 1860 4450 5640 8260 14400
2021-01-24 19:30 3.78 1310 23800 (1906) 351 (1956) 3570 563 660 866 1020 1860 4450 5640 8260 14400
2021-01-24 19:00 3.79 1320 23800 (1906) 351 (1956) 3570 563 660 866 1020 1860 4450 5640 8260 14400
2021-01-24 18:30 3.79 1320 23800 (1906) 351 (1956) 3570 563 660 866 1020 1860 4450 5640 8260 14400
2021-01-24 18:00 3.79 1320 23800 (1906) 351 (1956) 3570 563 660 866 1020 1860 4450 5640 8260 14400
2021-01-24 17:30 3.79 1320 23800 (1906) 351 (1956) 3570 563 660 866 1020 1860 4450 5640 8260 14400
2021-01-24 17:00 3.79 1320 23800 (1906) 351 (1956) 3570 563 660 866 1020 1860 4450 5640 8260 14400
2021-01-24 16:30 3.79 1320 23800 (1906) 351 (1956) 3570 563 660 866 1020 1860 4450 5640 8260 14400
2021-01-24 16:00 3.79 1320 23800 (1906) 351 (1956) 3570 563 660 866 1020 1860 4450 5640 8260 14400
2021-01-24 15:30 3.78 1310 23800 (1906) 351 (1956) 3570 563 660 866 1020 1860 4450 5640 8260 14400
2021-01-24 15:00 3.79 1320 23800 (1906) 351 (1956) 3570 563 660 866 1020 1860 4450 5640 8260 14400
2021-01-24 14:30 3.79 1320 23800 (1906) 351 (1956) 3570 563 660 866 1020 1860 4450 5640 8260 14400
2021-01-24 14:00 3.79 1320 23800 (1906) 351 (1956) 3570 563 660 866 1020 1860 4450 5640 8260 14400
2021-01-24 13:30 3.79 1320 23800 (1906) 351 (1956) 3570 563 660 866 1020 1860 4450 5640 8260 14400
2021-01-24 13:00 3.79 1320 23800 (1906) 351 (1956) 3570 563 660 866 1020 1860 4450 5640 8260 14400
2021-01-24 12:30 3.79 1320 23800 (1906) 351 (1956) 3570 563 660 866 1020 1860 4450 5640 8260 14400
2021-01-24 12:00 3.79 1320 23800 (1906) 351 (1956) 3570 563 660 866 1020 1860 4450 5640 8260 14400
2021-01-24 11:30 3.79 1320 23800 (1906) 351 (1956) 3570 563 660 866 1020 1860 4450 5640 8260 14400
2021-01-24 11:00 3.79 1320 23800 (1906) 351 (1956) 3570 563 660 866 1020 1860 4450 5640 8260 14400
2021-01-24 10:30 3.80 1340 23800 (1906) 351 (1956) 3570 563 660 866 1020 1860 4450 5640 8260 14400
2021-01-24 10:00 3.80 1340 23800 (1906) 351 (1956) 3570 563 660 866 1020 1860 4450 5640 8260 14400
2021-01-24 09:30 3.80 1340 23800 (1906) 351 (1956) 3570 563 660 866 1020 1860 4450 5640 8260 14400
2021-01-24 09:00 3.79 1320 23800 (1906) 351 (1956) 3570 563 660 866 1020 1860 4450 5640 8260 14400
2021-01-24 08:30 3.80 1340 23800 (1906) 351 (1956) 3570 563 660 866 1020 1860 4450 5640 8260 14400
2021-01-24 08:00 3.80 1340 23800 (1906) 351 (1956) 3570 563 660 866 1020 1860 4450 5640 8260 14400
2021-01-24 07:30 3.79 1320 23800 (1906) 351 (1956) 3570 563 660 866 1020 1860 4450 5640 8260 14400
2021-01-24 07:00 3.80 1340 23800 (1906) 351 (1956) 3570 563 660 866 1020 1860 4450 5640 8260 14400
2021-01-24 06:30 3.80 1340 23800 (1906) 351 (1956) 3570 563 660 866 1020 1860 4450 5640 8260 14400
2021-01-24 06:00 3.80 1340 23800 (1906) 351 (1956) 3570 563 660 866 1020 1860 4450 5640 8260 14400
2021-01-24 05:30 3.80 1340 23800 (1906) 351 (1956) 3570 563 660 866 1020 1860 4450 5640 8260 14400
2021-01-24 05:00 3.80 1340 23800 (1906) 351 (1956) 3570 563 660 866 1020 1860 4450 5640 8260 14400
2021-01-24 04:30 3.80 1340 23800 (1906) 351 (1956) 3570 563 660 866 1020 1860 4450 5640 8260 14400
2021-01-24 04:00 3.80 1340 23800 (1906) 351 (1956) 3570 563 660 866 1020 1860 4450 5640 8260 14400
2021-01-24 03:30 3.80 1340 23800 (1906) 351 (1956) 3570 563 660 866 1020 1860 4450 5640 8260 14400
2021-01-24 03:00 3.80 1340 23800 (1906) 351 (1956) 3570 563 660 866 1020 1860 4450 5640 8260 14400
2021-01-24 02:30 3.80 1340 23800 (1906) 351 (1956) 3570 563 660 866 1020 1860 4450 5640 8260 14400
2021-01-24 02:00 3.80 1340 23800 (1906) 351 (1956) 3570 563 660 866 1020 1860 4450 5640 8260 14400
2021-01-24 01:30 3.80 1340 23800 (1906) 351 (1956) 3570 563 660 866 1020 1860 4450 5640 8260 14400
2021-01-24 01:00 3.80 1340 23800 (1906) 351 (1956) 3570 563 660 866 1020 1860 4450 5640 8260 14400
2021-01-24 00:30 3.81 1350 23800 (1906) 351 (1956) 3570 563 660 866 1020 1860 4450 5640 8260 14400
2021-01-24 00:00 3.80 1340 23800 (1906) 351 (1956) 3570 563 660 866 1020 1860 4450 5640 8260 14400
2021-01-23 23:30 3.80 1340 29200 (1974) 351 (1956) 3460 548 657 868 1020 1900 4510 5140 7200 13000
2021-01-23 23:00 3.81 1350 29200 (1974) 351 (1956) 3460 548 657 868 1020 1900 4510 5140 7200 13000
2021-01-23 22:30 3.80 1340 29200 (1974) 351 (1956) 3460 548 657 868 1020 1900 4510 5140 7200 13000
2021-01-23 22:00 3.81 1350 29200 (1974) 351 (1956) 3460 548 657 868 1020 1900 4510 5140 7200 13000
2021-01-23 21:30 3.80 1340 29200 (1974) 351 (1956) 3460 548 657 868 1020 1900 4510 5140 7200 13000
2021-01-23 21:00 3.80 1340 29200 (1974) 351 (1956) 3460 548 657 868 1020 1900 4510 5140 7200 13000
2021-01-23 20:30 3.81 1350 29200 (1974) 351 (1956) 3460 548 657 868 1020 1900 4510 5140 7200 13000
2021-01-23 20:00 3.80 1340 29200 (1974) 351 (1956) 3460 548 657 868 1020 1900 4510 5140 7200 13000
2021-01-23 19:30 3.80 1340 29200 (1974) 351 (1956) 3460 548 657 868 1020 1900 4510 5140 7200 13000
2021-01-23 19:00 3.80 1340 29200 (1974) 351 (1956) 3460 548 657 868 1020 1900 4510 5140 7200 13000
2021-01-23 18:30 3.81 1350 29200 (1974) 351 (1956) 3460 548 657 868 1020 1900 4510 5140 7200 13000
2021-01-23 18:00 3.81 1350 29200 (1974) 351 (1956) 3460 548 657 868 1020 1900 4510 5140 7200 13000
2021-01-23 17:30 3.82 1360 29200 (1974) 351 (1956) 3460 548 657 868 1020 1900 4510 5140 7200 13000
2021-01-23 17:00 3.81 1350 29200 (1974) 351 (1956) 3460 548 657 868 1020 1900 4510 5140 7200 13000
2021-01-23 16:30 3.81 1350 29200 (1974) 351 (1956) 3460 548 657 868 1020 1900 4510 5140 7200 13000
2021-01-23 16:00 3.82 1360 29200 (1974) 351 (1956) 3460 548 657 868 1020 1900 4510 5140 7200 13000
2021-01-23 15:30 3.81 1350 29200 (1974) 351 (1956) 3460 548 657 868 1020 1900 4510 5140 7200 13000
2021-01-23 15:00 3.82 1360 29200 (1974) 351 (1956) 3460 548 657 868 1020 1900 4510 5140 7200 13000
2021-01-23 14:30 3.82 1360 29200 (1974) 351 (1956) 3460 548 657 868 1020 1900 4510 5140 7200 13000
2021-01-23 14:00 3.81 1350 29200 (1974) 351 (1956) 3460 548 657 868 1020 1900 4510 5140 7200 13000
2021-01-23 13:30 3.82 1360 29200 (1974) 351 (1956) 3460 548 657 868 1020 1900 4510 5140 7200 13000
2021-01-23 13:00 3.82 1360 29200 (1974) 351 (1956) 3460 548 657 868 1020 1900 4510 5140 7200 13000
2021-01-23 12:30 3.82 1360 29200 (1974) 351 (1956) 3460 548 657 868 1020 1900 4510 5140 7200 13000
2021-01-23 12:00 3.82 1360 29200 (1974) 351 (1956) 3460 548 657 868 1020 1900 4510 5140 7200 13000
2021-01-23 11:30 3.82 1360 29200 (1974) 351 (1956) 3460 548 657 868 1020 1900 4510 5140 7200 13000
2021-01-23 11:00 3.82 1360 29200 (1974) 351 (1956) 3460 548 657 868 1020 1900 4510 5140 7200 13000
2021-01-23 10:30 3.82 1360 29200 (1974) 351 (1956) 3460 548 657 868 1020 1900 4510 5140 7200 13000
2021-01-23 10:00 3.83 1380 29200 (1974) 351 (1956) 3460 548 657 868 1020 1900 4510 5140 7200 13000
2021-01-23 09:30 3.83 1380 29200 (1974) 351 (1956) 3460 548 657 868 1020 1900 4510 5140 7200 13000
2021-01-23 09:00 3.82 1360 29200 (1974) 351 (1956) 3460 548 657 868 1020 1900 4510 5140 7200 13000
2021-01-23 08:30 3.82 1360 29200 (1974) 351 (1956) 3460 548 657 868 1020 1900 4510 5140 7200 13000
2021-01-23 08:00 3.83 1380 29200 (1974) 351 (1956) 3460 548 657 868 1020 1900 4510 5140 7200 13000
2021-01-23 07:30 3.83 1380 29200 (1974) 351 (1956) 3460 548 657 868 1020 1900 4510 5140 7200 13000
2021-01-23 07:00 3.83 1380 29200 (1974) 351 (1956) 3460 548 657 868 1020 1900 4510 5140 7200 13000
2021-01-23 06:30 3.83 1380 29200 (1974) 351 (1956) 3460 548 657 868 1020 1900 4510 5140 7200 13000
2021-01-23 06:00 3.83 1380 29200 (1974) 351 (1956) 3460 548 657 868 1020 1900 4510 5140 7200 13000
2021-01-23 05:30 3.83 1380 29200 (1974) 351 (1956) 3460 548 657 868 1020 1900 4510 5140 7200 13000
2021-01-23 05:00 3.83 1380 29200 (1974) 351 (1956) 3460 548 657 868 1020 1900 4510 5140 7200 13000
2021-01-23 04:30 3.84 1390 29200 (1974) 351 (1956) 3460 548 657 868 1020 1900 4510 5140 7200 13000
2021-01-23 04:00 3.83 1380 29200 (1974) 351 (1956) 3460 548 657 868 1020 1900 4510 5140 7200 13000
2021-01-23 03:30 3.83 1380 29200 (1974) 351 (1956) 3460 548 657 868 1020 1900 4510 5140 7200 13000
2021-01-23 03:00 3.83 1380 29200 (1974) 351 (1956) 3460 548 657 868 1020 1900 4510 5140 7200 13000
2021-01-23 02:30 3.84 1390 29200 (1974) 351 (1956) 3460 548 657 868 1020 1900 4510 5140 7200 13000
2021-01-23 02:00 3.84 1390 29200 (1974) 351 (1956) 3460 548 657 868 1020 1900 4510 5140 7200 13000
2021-01-23 01:30 3.83 1380 29200 (1974) 351 (1956) 3460 548 657 868 1020 1900 4510 5140 7200 13000
2021-01-23 01:00 3.84 1390 29200 (1974) 351 (1956) 3460 548 657 868 1020 1900 4510 5140 7200 13000
2021-01-23 00:30 3.84 1390 29200 (1974) 351 (1956) 3460 548 657 868 1020 1900 4510 5140 7200 13000
2021-01-23 00:00 3.83 1380 29200 (1974) 351 (1956) 3460 548 657 868 1020 1900 4510 5140 7200 13000
2021-01-22 23:30 3.83 1380 28900 (1974) 372 (1956) 3270 536 644 918 996 1840 4140 4950 7290 11100
2021-01-22 23:00 3.83 1380 28900 (1974) 372 (1956) 3270 536 644 918 996 1840 4140 4950 7290 11100
2021-01-22 22:30 3.84 1390 28900 (1974) 372 (1956) 3270 536 644 918 996 1840 4140 4950 7290 11100
2021-01-22 22:00 3.84 1390 28900 (1974) 372 (1956) 3270 536 644 918 996 1840 4140 4950 7290 11100
2021-01-22 21:30 3.84 1390 28900 (1974) 372 (1956) 3270 536 644 918 996 1840 4140 4950 7290 11100
2021-01-22 21:00 3.84 1390 28900 (1974) 372 (1956) 3270 536 644 918 996 1840 4140 4950 7290 11100
2021-01-22 20:30 3.84 1390 28900 (1974) 372 (1956) 3270 536 644 918 996 1840 4140 4950 7290 11100
2021-01-22 20:00 3.84 1390 28900 (1974) 372 (1956) 3270 536 644 918 996 1840 4140 4950 7290 11100
2021-01-22 19:30 3.84 1390 28900 (1974) 372 (1956) 3270 536 644 918 996 1840 4140 4950 7290 11100
2021-01-22 19:00 3.85 1400 28900 (1974) 372 (1956) 3270 536 644 918 996 1840 4140 4950 7290 11100
2021-01-22 18:30 3.85 1400 28900 (1974) 372 (1956) 3270 536 644 918 996 1840 4140 4950 7290 11100
2021-01-22 18:00 3.85 1400 28900 (1974) 372 (1956) 3270 536 644 918 996 1840 4140 4950 7290 11100
2021-01-22 17:30 3.85 1400 28900 (1974) 372 (1956) 3270 536 644 918 996 1840 4140 4950 7290 11100
2021-01-22 17:00 3.85 1400 28900 (1974) 372 (1956) 3270 536 644 918 996 1840 4140 4950 7290 11100
2021-01-22 16:30 3.85 1400 28900 (1974) 372 (1956) 3270 536 644 918 996 1840 4140 4950 7290 11100
2021-01-22 16:00 3.85 1400 28900 (1974) 372 (1956) 3270 536 644 918 996 1840 4140 4950 7290 11100
2021-01-22 15:30 3.85 1400 28900 (1974) 372 (1956) 3270 536 644 918 996 1840 4140 4950 7290 11100
2021-01-22 15:00 3.85 1400 28900 (1974) 372 (1956) 3270 536 644 918 996 1840 4140 4950 7290 11100
2021-01-22 14:30 3.85 1400 28900 (1974) 372 (1956) 3270 536 644 918 996 1840 4140 4950 7290 11100
2021-01-22 14:00 3.85 1400 28900 (1974) 372 (1956) 3270 536 644 918 996 1840 4140 4950 7290 11100
2021-01-22 13:30 3.85 1400 28900 (1974) 372 (1956) 3270 536 644 918 996 1840 4140 4950 7290 11100
2021-01-22 13:00 3.85 1400 28900 (1974) 372 (1956) 3270 536 644 918 996 1840 4140 4950 7290 11100
2021-01-22 12:30 3.85 1400 28900 (1974) 372 (1956) 3270 536 644 918 996 1840 4140 4950 7290 11100
2021-01-22 12:00 3.85 1400 28900 (1974) 372 (1956) 3270 536 644 918 996 1840 4140 4950 7290 11100
2021-01-22 11:30 3.86 1410 28900 (1974) 372 (1956) 3270 536 644 918 996 1840 4140 4950 7290 11100
2021-01-22 11:00 3.86 1410 28900 (1974) 372 (1956) 3270 536 644 918 996 1840 4140 4950 7290 11100
2021-01-22 10:30 3.85 1400 28900 (1974) 372 (1956) 3270 536 644 918 996 1840 4140 4950 7290 11100
2021-01-22 10:00 3.86 1410 28900 (1974) 372 (1956) 3270 536 644 918 996 1840 4140 4950 7290 11100
2021-01-22 09:30 3.86 1410 28900 (1974) 372 (1956) 3270 536 644 918 996 1840 4140 4950 7290 11100
2021-01-22 09:00 3.86 1410 28900 (1974) 372 (1956) 3270 536 644 918 996 1840 4140 4950 7290 11100
2021-01-22 08:30 3.86 1410 28900 (1974) 372 (1956) 3270 536 644 918 996 1840 4140 4950 7290 11100
2021-01-22 08:00 3.86 1410 28900 (1974) 372 (1956) 3270 536 644 918 996 1840 4140 4950 7290 11100
2021-01-22 07:30 3.86 1410 28900 (1974) 372 (1956) 3270 536 644 918 996 1840 4140 4950 7290 11100
2021-01-22 07:00 3.87 1430 28900 (1974) 372 (1956) 3270 536 644 918 996 1840 4140 4950 7290 11100
2021-01-22 06:30 3.86 1410 28900 (1974) 372 (1956) 3270 536 644 918 996 1840 4140 4950 7290 11100
2021-01-22 06:00 3.87 1430 28900 (1974) 372 (1956) 3270 536 644 918 996 1840 4140 4950 7290 11100
2021-01-22 05:30 3.86 1410 28900 (1974) 372 (1956) 3270 536 644 918 996 1840 4140 4950 7290 11100
2021-01-22 05:00 3.87 1430 28900 (1974) 372 (1956) 3270 536 644 918 996 1840 4140 4950 7290 11100
2021-01-22 04:30 3.87 1430 28900 (1974) 372 (1956) 3270 536 644 918 996 1840 4140 4950 7290 11100
2021-01-22 04:00 3.87 1430 28900 (1974) 372 (1956) 3270 536 644 918 996 1840 4140 4950 7290 11100
2021-01-22 03:30 3.86 1410 28900 (1974) 372 (1956) 3270 536 644 918 996 1840 4140 4950 7290 11100
2021-01-22 03:00 3.87 1430 28900 (1974) 372 (1956) 3270 536 644 918 996 1840 4140 4950 7290 11100
2021-01-22 02:30 3.87 1430 28900 (1974) 372 (1956) 3270 536 644 918 996 1840 4140 4950 7290 11100
2021-01-22 02:00 3.87 1430 28900 (1974) 372 (1956) 3270 536 644 918 996 1840 4140 4950 7290 11100
2021-01-22 01:30 3.87 1430 28900 (1974) 372 (1956) 3270 536 644 918 996 1840 4140 4950 7290 11100
2021-01-22 01:00 3.87 1430 28900 (1974) 372 (1956) 3270 536 644 918 996 1840 4140 4950 7290 11100
2021-01-22 00:30 3.87 1430 28900 (1974) 372 (1956) 3270 536 644 918 996 1840 4140 4950 7290 11100
2021-01-22 00:00 3.87 1430 28900 (1974) 372 (1956) 3270 536 644 918 996 1840 4140 4950 7290 11100
2021-01-21 23:30 3.87 1430 24600 (1974) 351 (1956) 3320 503 633 906 977 1870 3680 4630 6800 11800
2021-01-21 23:00 3.88 1440 24600 (1974) 351 (1956) 3320 503 633 906 977 1870 3680 4630 6800 11800
2021-01-21 22:30 3.88 1440 24600 (1974) 351 (1956) 3320 503 633 906 977 1870 3680 4630 6800 11800
2021-01-21 22:00 3.88 1440 24600 (1974) 351 (1956) 3320 503 633 906 977 1870 3680 4630 6800 11800
2021-01-21 21:30 3.88 1440 24600 (1974) 351 (1956) 3320 503 633 906 977 1870 3680 4630 6800 11800
2021-01-21 21:00 3.88 1440 24600 (1974) 351 (1956) 3320 503 633 906 977 1870 3680 4630 6800 11800
2021-01-21 20:30 3.87 1430 24600 (1974) 351 (1956) 3320 503 633 906 977 1870 3680 4630 6800 11800
2021-01-21 20:00 3.88 1440 24600 (1974) 351 (1956) 3320 503 633 906 977 1870 3680 4630 6800 11800
2021-01-21 19:30 3.88 1440 24600 (1974) 351 (1956) 3320 503 633 906 977 1870 3680 4630 6800 11800
2021-01-21 19:00 3.88 1440 24600 (1974) 351 (1956) 3320 503 633 906 977 1870 3680 4630 6800 11800
2021-01-21 18:30 3.88 1440 24600 (1974) 351 (1956) 3320 503 633 906 977 1870 3680 4630 6800 11800
2021-01-21 18:00 3.88 1440 24600 (1974) 351 (1956) 3320 503 633 906 977 1870 3680 4630 6800 11800
2021-01-21 17:30 3.89 1450 24600 (1974) 351 (1956) 3320 503 633 906 977 1870 3680 4630 6800 11800
2021-01-21 17:00 3.89 1450 24600 (1974) 351 (1956) 3320 503 633 906 977 1870 3680 4630 6800 11800
2021-01-21 16:30 3.89 1450 24600 (1974) 351 (1956) 3320 503 633 906 977 1870 3680 4630 6800 11800
2021-01-21 16:00 3.88 1440 24600 (1974) 351 (1956) 3320 503 633 906 977 1870 3680 4630 6800 11800
2021-01-21 15:30 3.89 1450 24600 (1974) 351 (1956) 3320 503 633 906 977 1870 3680 4630 6800 11800
2021-01-21 15:00 3.89 1450 24600 (1974) 351 (1956) 3320 503 633 906 977 1870 3680 4630 6800 11800
2021-01-21 14:30 3.89 1450 24600 (1974) 351 (1956) 3320 503 633 906 977 1870 3680 4630 6800 11800
2021-01-21 14:00 3.89 1450 24600 (1974) 351 (1956) 3320 503 633 906 977 1870 3680 4630 6800 11800
2021-01-21 13:30 3.89 1450 24600 (1974) 351 (1956) 3320 503 633 906 977 1870 3680 4630 6800 11800
2021-01-21 13:00 3.89 1450 24600 (1974) 351 (1956) 3320 503 633 906 977 1870 3680 4630 6800 11800
2021-01-21 12:30 3.89 1450 24600 (1974) 351 (1956) 3320 503 633 906 977 1870 3680 4630 6800 11800
2021-01-21 12:00 3.89 1450 24600 (1974) 351 (1956) 3320 503 633 906 977 1870 3680 4630 6800 11800
2021-01-21 11:30 3.89 1450 24600 (1974) 351 (1956) 3320 503 633 906 977 1870 3680 4630 6800 11800
2021-01-21 11:00 3.90 1470 24600 (1974) 351 (1956) 3320 503 633 906 977 1870 3680 4630 6800 11800
2021-01-21 10:30 3.90 1470 24600 (1974) 351 (1956) 3320 503 633 906 977 1870 3680 4630 6800 11800
2021-01-21 10:00 3.90 1470 24600 (1974) 351 (1956) 3320 503 633 906 977 1870 3680 4630 6800 11800
2021-01-21 09:30 3.90 1470 24600 (1974) 351 (1956) 3320 503 633 906 977 1870 3680 4630 6800 11800
2021-01-21 09:00 3.89 1450 24600 (1974) 351 (1956) 3320 503 633 906 977 1870 3680 4630 6800 11800
2021-01-21 08:30 3.90 1470 24600 (1974) 351 (1956) 3320 503 633 906 977 1870 3680 4630 6800 11800
2021-01-21 08:00 3.90 1470 24600 (1974) 351 (1956) 3320 503 633 906 977 1870 3680 4630 6800 11800
2021-01-21 07:30 3.90 1470 24600 (1974) 351 (1956) 3320 503 633 906 977 1870 3680 4630 6800 11800
2021-01-21 07:00 3.90 1470 24600 (1974) 351 (1956) 3320 503 633 906 977 1870 3680 4630 6800 11800
2021-01-21 06:30 3.90 1470 24600 (1974) 351 (1956) 3320 503 633 906 977 1870 3680 4630 6800 11800
2021-01-21 06:00 3.90 1470 24600 (1974) 351 (1956) 3320 503 633 906 977 1870 3680 4630 6800 11800
2021-01-21 05:30 3.91 1480 24600 (1974) 351 (1956) 3320 503 633 906 977 1870 3680 4630 6800 11800
2021-01-21 05:00 3.90 1470 24600 (1974) 351 (1956) 3320 503 633 906 977 1870 3680 4630 6800 11800
2021-01-21 04:30 3.91 1480 24600 (1974) 351 (1956) 3320 503 633 906 977 1870 3680 4630 6800 11800
2021-01-21 04:00 3.90 1470 24600 (1974) 351 (1956) 3320 503 633 906 977 1870 3680 4630 6800 11800
2021-01-21 03:30 3.91 1480 24600 (1974) 351 (1956) 3320 503 633 906 977 1870 3680 4630 6800 11800
2021-01-21 03:00 3.91 1480 24600 (1974) 351 (1956) 3320 503 633 906 977 1870 3680 4630 6800 11800
2021-01-21 02:30 3.91 1480 24600 (1974) 351 (1956) 3320 503 633 906 977 1870 3680 4630 6800 11800
2021-01-21 02:00 3.91 1480 24600 (1974) 351 (1956) 3320 503 633 906 977 1870 3680 4630 6800 11800
2021-01-21 01:30 3.91 1480 24600 (1974) 351 (1956) 3320 503 633 906 977 1870 3680 4630 6800 11800
2021-01-21 01:00 3.91 1480 24600 (1974) 351 (1956) 3320 503 633 906 977 1870 3680 4630 6800 11800
2021-01-21 00:30 3.92 1490 24600 (1974) 351 (1956) 3320 503 633 906 977 1870 3680 4630 6800 11800
2021-01-21 00:00 3.91 1480 24600 (1974) 351 (1956) 3320 503 633 906 977 1870 3680 4630 6800 11800
2021-01-20 23:30 3.92 1490 28900 (2020) 372 (1956) 3150 502 643 901 971 1680 3220 4490 7160 11300
2021-01-20 23:00 3.91 1480 28900 (2020) 372 (1956) 3150 502 643 901 971 1680 3220 4490 7160 11300
2021-01-20 22:30 3.92 1490 28900 (2020) 372 (1956) 3150 502 643 901 971 1680 3220 4490 7160 11300
2021-01-20 22:00 3.92 1490 28900 (2020) 372 (1956) 3150 502 643 901 971 1680 3220 4490 7160 11300
2021-01-20 21:30 3.92 1490 28900 (2020) 372 (1956) 3150 502 643 901 971 1680 3220 4490 7160 11300
2021-01-20 21:00 3.92 1490 28900 (2020) 372 (1956) 3150 502 643 901 971 1680 3220 4490 7160 11300
2021-01-20 20:30 3.92 1490 28900 (2020) 372 (1956) 3150 502 643 901 971 1680 3220 4490 7160 11300
2021-01-20 20:00 3.92 1490 28900 (2020) 372 (1956) 3150 502 643 901 971 1680 3220 4490 7160 11300
2021-01-20 19:30 3.93 1510 28900 (2020) 372 (1956) 3150 502 643 901 971 1680 3220 4490 7160 11300
2021-01-20 19:00 3.92 1490 28900 (2020) 372 (1956) 3150 502 643 901 971 1680 3220 4490 7160 11300
2021-01-20 18:30 3.92 1490 28900 (2020) 372 (1956) 3150 502 643 901 971 1680 3220 4490 7160 11300
2021-01-20 18:00 3.93 1510 28900 (2020) 372 (1956) 3150 502 643 901 971 1680 3220 4490 7160 11300
2021-01-20 17:30 3.92 1490 28900 (2020) 372 (1956) 3150 502 643 901 971 1680 3220 4490 7160 11300
2021-01-20 17:00 3.92 1490 28900 (2020) 372 (1956) 3150 502 643 901 971 1680 3220 4490 7160 11300
2021-01-20 16:30 3.92 1490 28900 (2020) 372 (1956) 3150 502 643 901 971 1680 3220 4490 7160 11300
2021-01-20 16:00 3.92 1490 28900 (2020) 372 (1956) 3150 502 643 901 971 1680 3220 4490 7160 11300
2021-01-20 15:30 3.92 1490 28900 (2020) 372 (1956) 3150 502 643 901 971 1680 3220 4490 7160 11300
2021-01-20 15:00 3.93 1510 28900 (2020) 372 (1956) 3150 502 643 901 971 1680 3220 4490 7160 11300
2021-01-20 14:30 3.93 1510 28900 (2020) 372 (1956) 3150 502 643 901 971 1680 3220 4490 7160 11300
2021-01-20 14:00 3.93 1510 28900 (2020) 372 (1956) 3150 502 643 901 971 1680 3220 4490 7160 11300
2021-01-20 13:30 3.94 1520 28900 (2020) 372 (1956) 3150 502 643 901 971 1680 3220 4490 7160 11300
2021-01-20 13:00 3.93 1510 28900 (2020) 372 (1956) 3150 502 643 901 971 1680 3220 4490 7160 11300
2021-01-20 12:30 3.93 1510 28900 (2020) 372 (1956) 3150 502 643 901 971 1680 3220 4490 7160 11300
2021-01-20 12:00 3.94 1520 28900 (2020) 372 (1956) 3150 502 643 901 971 1680 3220 4490 7160 11300
2021-01-20 11:30 3.93 1510 28900 (2020) 372 (1956) 3150 502 643 901 971 1680 3220 4490 7160 11300
2021-01-20 11:00 3.93 1510 28900 (2020) 372 (1956) 3150 502 643 901 971 1680 3220 4490 7160 11300
2021-01-20 10:30 3.94 1520 28900 (2020) 372 (1956) 3150 502 643 901 971 1680 3220 4490 7160 11300
2021-01-20 10:00 3.93 1510 28900 (2020) 372 (1956) 3150 502 643 901 971 1680 3220 4490 7160 11300
2021-01-20 09:30 3.94 1520 28900 (2020) 372 (1956) 3150 502 643 901 971 1680 3220 4490 7160 11300
2021-01-20 09:00 3.94 1520 28900 (2020) 372 (1956) 3150 502 643 901 971 1680 3220 4490 7160 11300
2021-01-20 08:30 3.94 1520 28900 (2020) 372 (1956) 3150 502 643 901 971 1680 3220 4490 7160 11300
2021-01-20 08:00 3.95 1530 28900 (2020) 372 (1956) 3150 502 643 901 971 1680 3220 4490 7160 11300
2021-01-20 07:30 3.95 1530 28900 (2020) 372 (1956) 3150 502 643 901 971 1680 3220 4490 7160 11300
2021-01-20 07:00 3.94 1520 28900 (2020) 372 (1956) 3150 502 643 901 971 1680 3220 4490 7160 11300
2021-01-20 06:30 3.94 1520 28900 (2020) 372 (1956) 3150 502 643 901 971 1680 3220 4490 7160 11300
2021-01-20 06:00 3.95 1530 28900 (2020) 372 (1956) 3150 502 643 901 971 1680 3220 4490 7160 11300
2021-01-20 05:30 3.95 1530 28900 (2020) 372 (1956) 3150 502 643 901 971 1680 3220 4490 7160 11300
2021-01-20 05:00 3.95 1530 28900 (2020) 372 (1956) 3150 502 643 901 971 1680 3220 4490 7160 11300
2021-01-20 04:30 3.95 1530 28900 (2020) 372 (1956) 3150 502 643 901 971 1680 3220 4490 7160 11300
2021-01-20 04:00 3.95 1530 28900 (2020) 372 (1956) 3150 502 643 901 971 1680 3220 4490 7160 11300
2021-01-20 03:30 3.95 1530 28900 (2020) 372 (1956) 3150 502 643 901 971 1680 3220 4490 7160 11300
2021-01-20 03:00 3.95 1530 28900 (2020) 372 (1956) 3150 502 643 901 971 1680 3220 4490 7160 11300
2021-01-20 02:30 3.96 1540 28900 (2020) 372 (1956) 3150 502 643 901 971 1680 3220 4490 7160 11300
2021-01-20 02:00 3.95 1530 28900 (2020) 372 (1956) 3150 502 643 901 971 1680 3220 4490 7160 11300
2021-01-20 01:30 3.95 1530 28900 (2020) 372 (1956) 3150 502 643 901 971 1680 3220 4490 7160 11300
2021-01-20 01:00 3.95 1530 28900 (2020) 372 (1956) 3150 502 643 901 971 1680 3220 4490 7160 11300
2021-01-20 00:30 3.95 1530 28900 (2020) 372 (1956) 3150 502 643 901 971 1680 3220 4490 7160 11300
2021-01-20 00:00 3.95 1530 28900 (2020) 372 (1956) 3150 502 643 901 971 1680 3220 4490 7160 11300
2021-01-19 23:30 3.96 1540 25600 (2020) 388 (1956) 3000 486 646 866 945 1670 3160 3530 7880 10400
2021-01-19 23:00 3.96 1540 25600 (2020) 388 (1956) 3000 486 646 866 945 1670 3160 3530 7880 10400
2021-01-19 22:30 3.96 1540 25600 (2020) 388 (1956) 3000 486 646 866 945 1670 3160 3530 7880 10400
2021-01-19 22:00 3.96 1540 25600 (2020) 388 (1956) 3000 486 646 866 945 1670 3160 3530 7880 10400
2021-01-19 21:30 3.96 1540 25600 (2020) 388 (1956) 3000 486 646 866 945 1670 3160 3530 7880 10400
2021-01-19 21:00 3.97 1560 25600 (2020) 388 (1956) 3000 486 646 866 945 1670 3160 3530 7880 10400
2021-01-19 20:30 3.96 1540 25600 (2020) 388 (1956) 3000 486 646 866 945 1670 3160 3530 7880 10400
2021-01-19 20:00 3.96 1540 25600 (2020) 388 (1956) 3000 486 646 866 945 1670 3160 3530 7880 10400
2021-01-19 19:30 3.97 1560 25600 (2020) 388 (1956) 3000 486 646 866 945 1670 3160 3530 7880 10400
2021-01-19 19:00 3.96 1540 25600 (2020) 388 (1956) 3000 486 646 866 945 1670 3160 3530 7880 10400
2021-01-19 18:30 3.97 1560 25600 (2020) 388 (1956) 3000 486 646 866 945 1670 3160 3530 7880 10400
2021-01-19 18:00 3.97 1560 25600 (2020) 388 (1956) 3000 486 646 866 945 1670 3160 3530 7880 10400
2021-01-19 17:30 3.97 1560 25600 (2020) 388 (1956) 3000 486 646 866 945 1670 3160 3530 7880 10400
2021-01-19 17:00 3.98 1570 25600 (2020) 388 (1956) 3000 486 646 866 945 1670 3160 3530 7880 10400
2021-01-19 16:30 3.98 1570 25600 (2020) 388 (1956) 3000 486 646 866 945 1670 3160 3530 7880 10400
2021-01-19 16:00 3.97 1560 25600 (2020) 388 (1956) 3000 486 646 866 945 1670 3160 3530 7880 10400
2021-01-19 15:30 3.98 1570 25600 (2020) 388 (1956) 3000 486 646 866 945 1670 3160 3530 7880 10400
2021-01-19 15:00 3.97 1560 25600 (2020) 388 (1956) 3000 486 646 866 945 1670 3160 3530 7880 10400
2021-01-19 14:30 3.98 1570 25600 (2020) 388 (1956) 3000 486 646 866 945 1670 3160 3530 7880 10400
2021-01-19 14:00 3.97 1560 25600 (2020) 388 (1956) 3000 486 646 866 945 1670 3160 3530 7880 10400
2021-01-19 13:30 3.98 1570 25600 (2020) 388 (1956) 3000 486 646 866 945 1670 3160 3530 7880 10400
2021-01-19 13:00 3.98 1570 25600 (2020) 388 (1956) 3000 486 646 866 945 1670 3160 3530 7880 10400
2021-01-19 12:30 3.98 1570 25600 (2020) 388 (1956) 3000 486 646 866 945 1670 3160 3530 7880 10400
2021-01-19 12:00 3.98 1570 25600 (2020) 388 (1956) 3000 486 646 866 945 1670 3160 3530 7880 10400
2021-01-19 11:30 3.98 1570 25600 (2020) 388 (1956) 3000 486 646 866 945 1670 3160 3530 7880 10400
2021-01-19 11:00 3.98 1570 25600 (2020) 388 (1956) 3000 486 646 866 945 1670 3160 3530 7880 10400
2021-01-19 10:30 3.98 1570 25600 (2020) 388 (1956) 3000 486 646 866 945 1670 3160 3530 7880 10400
2021-01-19 10:00 3.99 1580 25600 (2020) 388 (1956) 3000 486 646 866 945 1670 3160 3530 7880 10400
2021-01-19 09:30 3.98 1570 25600 (2020) 388 (1956) 3000 486 646 866 945 1670 3160 3530 7880 10400
2021-01-19 09:00 3.98 1570 25600 (2020) 388 (1956) 3000 486 646 866 945 1670 3160 3530 7880 10400
2021-01-19 08:30 3.99 1580 25600 (2020) 388 (1956) 3000 486 646 866 945 1670 3160 3530 7880 10400
2021-01-19 08:00 3.98 1570 25600 (2020) 388 (1956) 3000 486 646 866 945 1670 3160 3530 7880 10400
2021-01-19 07:30 3.98 1570 25600 (2020) 388 (1956) 3000 486 646 866 945 1670 3160 3530 7880 10400
2021-01-19 07:00 3.98 1570 25600 (2020) 388 (1956) 3000 486 646 866 945 1670 3160 3530 7880 10400
2021-01-19 06:30 3.98 1570 25600 (2020) 388 (1956) 3000 486 646 866 945 1670 3160 3530 7880 10400
2021-01-19 06:00 3.99 1580 25600 (2020) 388 (1956) 3000 486 646 866 945 1670 3160 3530 7880 10400
2021-01-19 05:30 3.99 1580 25600 (2020) 388 (1956) 3000 486 646 866 945 1670 3160 3530 7880 10400
2021-01-19 05:00 3.99 1580 25600 (2020) 388 (1956) 3000 486 646 866 945 1670 3160 3530 7880 10400
2021-01-19 04:30 3.99 1580 25600 (2020) 388 (1956) 3000 486 646 866 945 1670 3160 3530 7880 10400
2021-01-19 04:00 3.99 1580 25600 (2020) 388 (1956) 3000 486 646 866 945 1670 3160 3530 7880 10400
2021-01-19 03:30 3.99 1580 25600 (2020) 388 (1956) 3000 486 646 866 945 1670 3160 3530 7880 10400
2021-01-19 03:00 3.99 1580 25600 (2020) 388 (1956) 3000 486 646 866 945 1670 3160 3530 7880 10400
2021-01-19 02:30 3.99 1580 25600 (2020) 388 (1956) 3000 486 646 866 945 1670 3160 3530 7880 10400
2021-01-19 02:00 3.99 1580 25600 (2020) 388 (1956) 3000 486 646 866 945 1670 3160 3530 7880 10400
2021-01-19 01:30 4.00 1590 25600 (2020) 388 (1956) 3000 486 646 866 945 1670 3160 3530 7880 10400
2021-01-19 01:00 4.00 1590 25600 (2020) 388 (1956) 3000 486 646 866 945 1670 3160 3530 7880 10400
2021-01-19 00:30 4.00 1590 25600 (2020) 388 (1956) 3000 486 646 866 945 1670 3160 3530 7880 10400
2021-01-19 00:00 4.00 1590 25600 (2020) 388 (1956) 3000 486 646 866 945 1670 3160 3530 7880 10400
2021-01-18 23:30 3.99 1580 18100 (1937) 372 (1956) 2960 491 625 865 931 1640 3030 3740 7460 13400
2021-01-18 23:00 4.00 1590 18100 (1937) 372 (1956) 2960 491 625 865 931 1640 3030 3740 7460 13400
2021-01-18 22:30 4.00 1590 18100 (1937) 372 (1956) 2960 491 625 865 931 1640 3030 3740 7460 13400
2021-01-18 22:00 4.00 1590 18100 (1937) 372 (1956) 2960 491 625 865 931 1640 3030 3740 7460 13400
2021-01-18 21:30 4.00 1590 18100 (1937) 372 (1956) 2960 491 625 865 931 1640 3030 3740 7460 13400
2021-01-18 21:00 4.00 1590 18100 (1937) 372 (1956) 2960 491 625 865 931 1640 3030 3740 7460 13400
2021-01-18 20:30 4.01 1610 18100 (1937) 372 (1956) 2960 491 625 865 931 1640 3030 3740 7460 13400
2021-01-18 20:00 4.01 1610 18100 (1937) 372 (1956) 2960 491 625 865 931 1640 3030 3740 7460 13400
2021-01-18 19:30 4.00 1590 18100 (1937) 372 (1956) 2960 491 625 865 931 1640 3030 3740 7460 13400
2021-01-18 19:00 4.01 1610 18100 (1937) 372 (1956) 2960 491 625 865 931 1640 3030 3740 7460 13400
2021-01-18 18:30 4.01 1610 18100 (1937) 372 (1956) 2960 491 625 865 931 1640 3030 3740 7460 13400
2021-01-18 18:00 4.00 1590 18100 (1937) 372 (1956) 2960 491 625 865 931 1640 3030 3740 7460 13400
2021-01-18 17:30 4.01 1610 18100 (1937) 372 (1956) 2960 491 625 865 931 1640 3030 3740 7460 13400
2021-01-18 17:00 4.01 1610 18100 (1937) 372 (1956) 2960 491 625 865 931 1640 3030 3740 7460 13400
2021-01-18 16:30 4.01 1610 18100 (1937) 372 (1956) 2960 491 625 865 931 1640 3030 3740 7460 13400
2021-01-18 16:00 4.01 1610 18100 (1937) 372 (1956) 2960 491 625 865 931 1640 3030 3740 7460 13400
2021-01-18 15:30 4.01 1610 18100 (1937) 372 (1956) 2960 491 625 865 931 1640 3030 3740 7460 13400
2021-01-18 15:00 4.01 1610 18100 (1937) 372 (1956) 2960 491 625 865 931 1640 3030 3740 7460 13400
2021-01-18 14:30 4.02 1620 18100 (1937) 372 (1956) 2960 491 625 865 931 1640 3030 3740 7460 13400
2021-01-18 14:00 4.01 1610 18100 (1937) 372 (1956) 2960 491 625 865 931 1640 3030 3740 7460 13400
2021-01-18 13:30 4.01 1610 18100 (1937) 372 (1956) 2960 491 625 865 931 1640 3030 3740 7460 13400
2021-01-18 13:00 4.01 1610 18100 (1937) 372 (1956) 2960 491 625 865 931 1640 3030 3740 7460 13400
2021-01-18 12:30 4.02 1620 18100 (1937) 372 (1956) 2960 491 625 865 931 1640 3030 3740 7460 13400
2021-01-18 12:00 4.02 1620 18100 (1937) 372 (1956) 2960 491 625 865 931 1640 3030 3740 7460 13400
2021-01-18 11:30 4.02 1620 18100 (1937) 372 (1956) 2960 491 625 865 931 1640 3030 3740 7460 13400
2021-01-18 11:00 4.02 1620 18100 (1937) 372 (1956) 2960 491 625 865 931 1640 3030 3740 7460 13400
2021-01-18 10:30 4.02 1620 18100 (1937) 372 (1956) 2960 491 625 865 931 1640 3030 3740 7460 13400
2021-01-18 10:00 4.02 1620 18100 (1937) 372 (1956) 2960 491 625 865 931 1640 3030 3740 7460 13400
2021-01-18 09:30 4.02 1620 18100 (1937) 372 (1956) 2960 491 625 865 931 1640 3030 3740 7460 13400
2021-01-18 09:00 4.02 1620 18100 (1937) 372 (1956) 2960 491 625 865 931 1640 3030 3740 7460 13400
2021-01-18 08:30 4.03 1630 18100 (1937) 372 (1956) 2960 491 625 865 931 1640 3030 3740 7460 13400
2021-01-18 08:00 4.03 1630 18100 (1937) 372 (1956) 2960 491 625 865 931 1640 3030 3740 7460 13400
2021-01-18 07:30 4.03 1630 18100 (1937) 372 (1956) 2960 491 625 865 931 1640 3030 3740 7460 13400
2021-01-18 07:00 4.03 1630 18100 (1937) 372 (1956) 2960 491 625 865 931 1640 3030 3740 7460 13400
2021-01-18 06:30 4.03 1630 18100 (1937) 372 (1956) 2960 491 625 865 931 1640 3030 3740 7460 13400
2021-01-18 06:00 4.03 1630 18100 (1937) 372 (1956) 2960 491 625 865 931 1640 3030 3740 7460 13400
2021-01-18 05:30 4.03 1630 18100 (1937) 372 (1956) 2960 491 625 865 931 1640 3030 3740 7460 13400
2021-01-18 05:00 4.03 1630 18100 (1937) 372 (1956) 2960 491 625 865 931 1640 3030 3740 7460 13400
2021-01-18 04:30 4.03 1630 18100 (1937) 372 (1956) 2960 491 625 865 931 1640 3030 3740 7460 13400
2021-01-18 04:00 4.03 1630 18100 (1937) 372 (1956) 2960 491 625 865 931 1640 3030 3740 7460 13400
2021-01-18 03:30 4.03 1630 18100 (1937) 372 (1956) 2960 491 625 865 931 1640 3030 3740 7460 13400
2021-01-18 03:00 4.03 1630 18100 (1937) 372 (1956) 2960 491 625 865 931 1640 3030 3740 7460 13400
2021-01-18 02:30 4.03 1630 18100 (1937) 372 (1956) 2960 491 625 865 931 1640 3030 3740 7460 13400
2021-01-18 02:00 4.03 1630 18100 (1937) 372 (1956) 2960 491 625 865 931 1640 3030 3740 7460 13400
2021-01-18 01:30 4.03 1630 18100 (1937) 372 (1956) 2960 491 625 865 931 1640 3030 3740 7460 13400
2021-01-18 01:00 4.03 1630 18100 (1937) 372 (1956) 2960 491 625 865 931 1640 3030 3740 7460 13400
2021-01-18 00:30 4.04 1640 18100 (1937) 372 (1956) 2960 491 625 865 931 1640 3030 3740 7460 13400
2021-01-18 00:00 4.04 1640 18100 (1937) 372 (1956) 2960 491 625 865 931 1640 3030 3740 7460 13400
2021-01-17 23:30 4.04 1640 36500 (1930) 344 (1956) 3540 494 621 872 961 1700 2760 3130 6850 22900
2021-01-17 23:00 4.04 1640 36500 (1930) 344 (1956) 3540 494 621 872 961 1700 2760 3130 6850 22900
2021-01-17 22:30 4.04 1640 36500 (1930) 344 (1956) 3540 494 621 872 961 1700 2760 3130 6850 22900
2021-01-17 22:00 4.04 1640 36500 (1930) 344 (1956) 3540 494 621 872 961 1700 2760 3130 6850 22900
2021-01-17 21:30 4.04 1640 36500 (1930) 344 (1956) 3540 494 621 872 961 1700 2760 3130 6850 22900
2021-01-17 21:00 4.05 1660 36500 (1930) 344 (1956) 3540 494 621 872 961 1700 2760 3130 6850 22900
2021-01-17 20:30 4.05 1660 36500 (1930) 344 (1956) 3540 494 621 872 961 1700 2760 3130 6850 22900
2021-01-17 20:00 4.05 1660 36500 (1930) 344 (1956) 3540 494 621 872 961 1700 2760 3130 6850 22900
2021-01-17 19:30 4.04 1640 36500 (1930) 344 (1956) 3540 494 621 872 961 1700 2760 3130 6850 22900
2021-01-17 19:00 4.05 1660 36500 (1930) 344 (1956) 3540 494 621 872 961 1700 2760 3130 6850 22900
2021-01-17 18:30 4.05 1660 36500 (1930) 344 (1956) 3540 494 621 872 961 1700 2760 3130 6850 22900
2021-01-17 18:00 4.05 1660 36500 (1930) 344 (1956) 3540 494 621 872 961 1700 2760 3130 6850 22900
2021-01-17 17:30 4.05 1660 36500 (1930) 344 (1956) 3540 494 621 872 961 1700 2760 3130 6850 22900
2021-01-17 17:00 4.06 1670 36500 (1930) 344 (1956) 3540 494 621 872 961 1700 2760 3130 6850 22900
2021-01-17 16:30 4.06 1670 36500 (1930) 344 (1956) 3540 494 621 872 961 1700 2760 3130 6850 22900
2021-01-17 16:00 4.06 1670 36500 (1930) 344 (1956) 3540 494 621 872 961 1700 2760 3130 6850 22900
2021-01-17 15:30 4.06 1670 36500 (1930) 344 (1956) 3540 494 621 872 961 1700 2760 3130 6850 22900
2021-01-17 15:00 4.05 1660 36500 (1930) 344 (1956) 3540 494 621 872 961 1700 2760 3130 6850 22900
2021-01-17 14:30 4.06 1670 36500 (1930) 344 (1956) 3540 494 621 872 961 1700 2760 3130 6850 22900
2021-01-17 14:00 4.06 1670 36500 (1930) 344 (1956) 3540 494 621 872 961 1700 2760 3130 6850 22900
2021-01-17 13:30 4.06 1670 36500 (1930) 344 (1956) 3540 494 621 872 961 1700 2760 3130 6850 22900
2021-01-17 13:00 4.07 1680 36500 (1930) 344 (1956) 3540 494 621 872 961 1700 2760 3130 6850 22900
2021-01-17 12:30 4.06 1670 36500 (1930) 344 (1956) 3540 494 621 872 961 1700 2760 3130 6850 22900
2021-01-17 12:00 4.06 1670 36500 (1930) 344 (1956) 3540 494 621 872 961 1700 2760 3130 6850 22900
2021-01-17 11:30 4.07 1680 36500 (1930) 344 (1956) 3540 494 621 872 961 1700 2760 3130 6850 22900
2021-01-17 11:00 4.06 1670 36500 (1930) 344 (1956) 3540 494 621 872 961 1700 2760 3130 6850 22900
2021-01-17 10:30 4.06 1670 36500 (1930) 344 (1956) 3540 494 621 872 961 1700 2760 3130 6850 22900
2021-01-17 10:00 4.06 1670 36500 (1930) 344 (1956) 3540 494 621 872 961 1700 2760 3130 6850 22900
2021-01-17 09:30 4.07 1680 36500 (1930) 344 (1956) 3540 494 621 872 961 1700 2760 3130 6850 22900
2021-01-17 09:00 4.07 1680 36500 (1930) 344 (1956) 3540 494 621 872 961 1700 2760 3130 6850 22900
2021-01-17 08:30 4.07 1680 36500 (1930) 344 (1956) 3540 494 621 872 961 1700 2760 3130 6850 22900
2021-01-17 08:00 4.07 1680 36500 (1930) 344 (1956) 3540 494 621 872 961 1700 2760 3130 6850 22900
2021-01-17 07:30 4.07 1680 36500 (1930) 344 (1956) 3540 494 621 872 961 1700 2760 3130 6850 22900
2021-01-17 07:00 4.07 1680 36500 (1930) 344 (1956) 3540 494 621 872 961 1700 2760 3130 6850 22900
2021-01-17 06:30 4.07 1680 36500 (1930) 344 (1956) 3540 494 621 872 961 1700 2760 3130 6850 22900
2021-01-17 06:00 4.07 1680 36500 (1930) 344 (1956) 3540 494 621 872 961 1700 2760 3130 6850 22900
2021-01-17 05:30 4.07 1680 36500 (1930) 344 (1956) 3540 494 621 872 961 1700 2760 3130 6850 22900
2021-01-17 05:00 4.07 1680 36500 (1930) 344 (1956) 3540 494 621 872 961 1700 2760 3130 6850 22900
2021-01-17 04:30 4.07 1680 36500 (1930) 344 (1956) 3540 494 621 872 961 1700 2760 3130 6850 22900
2021-01-17 04:00 4.07 1680 36500 (1930) 344 (1956) 3540 494 621 872 961 1700 2760 3130 6850 22900
2021-01-17 03:30 4.07 1680 36500 (1930) 344 (1956) 3540 494 621 872 961 1700 2760 3130 6850 22900
2021-01-17 03:00 4.06 1670 36500 (1930) 344 (1956) 3540 494 621 872 961 1700 2760 3130 6850 22900
2021-01-17 02:30 4.07 1680 36500 (1930) 344 (1956) 3540 494 621 872 961 1700 2760 3130 6850 22900
2021-01-17 02:00 4.07 1680 36500 (1930) 344 (1956) 3540 494 621 872 961 1700 2760 3130 6850 22900
2021-01-17 01:30 4.08 1690 36500 (1930) 344 (1956) 3540 494 621 872 961 1700 2760 3130 6850 22900
2021-01-16 22:30 4.07 1680 42200 (1930) 337 (1956) 4010 529 619 882 970 1660 2630 3030 9980 28800
2021-01-16 22:00 4.08 1690 42200 (1930) 337 (1956) 4010 529 619 882 970 1660 2630 3030 9980 28800
2021-01-16 21:30 4.07 1680 42200 (1930) 337 (1956) 4010 529 619 882 970 1660 2630 3030 9980 28800
2021-01-16 21:00 4.09 1710 42200 (1930) 337 (1956) 4010 529 619 882 970 1660 2630 3030 9980 28800
2021-01-16 20:30 4.08 1690 42200 (1930) 337 (1956) 4010 529 619 882 970 1660 2630 3030 9980 28800
2021-01-16 20:00 4.08 1690 42200 (1930) 337 (1956) 4010 529 619 882 970 1660 2630 3030 9980 28800
2021-01-16 19:30 4.08 1690 42200 (1930) 337 (1956) 4010 529 619 882 970 1660 2630 3030 9980 28800
2021-01-16 19:00 4.09 1710 42200 (1930) 337 (1956) 4010 529 619 882 970 1660 2630 3030 9980 28800
2021-01-16 18:30 4.09 1710 42200 (1930) 337 (1956) 4010 529 619 882 970 1660 2630 3030 9980 28800
2021-01-16 18:00 4.09 1710 42200 (1930) 337 (1956) 4010 529 619 882 970 1660 2630 3030 9980 28800
2021-01-16 17:30 4.08 1690 42200 (1930) 337 (1956) 4010 529 619 882 970 1660 2630 3030 9980 28800
2021-01-16 17:00 4.09 1710 42200 (1930) 337 (1956) 4010 529 619 882 970 1660 2630 3030 9980 28800
2021-01-16 16:30 4.09 1710 42200 (1930) 337 (1956) 4010 529 619 882 970 1660 2630 3030 9980 28800
2021-01-16 16:00 4.08 1690 42200 (1930) 337 (1956) 4010 529 619 882 970 1660 2630 3030 9980 28800
2021-01-16 15:30 4.09 1710 42200 (1930) 337 (1956) 4010 529 619 882 970 1660 2630 3030 9980 28800
2021-01-16 15:00 4.09 1710 42200 (1930) 337 (1956) 4010 529 619 882 970 1660 2630 3030 9980 28800
2021-01-16 14:30 4.09 1710 42200 (1930) 337 (1956) 4010 529 619 882 970 1660 2630 3030 9980 28800
2021-01-16 14:00 4.10 1720 42200 (1930) 337 (1956) 4010 529 619 882 970 1660 2630 3030 9980 28800
2021-01-16 13:30 4.09 1710 42200 (1930) 337 (1956) 4010 529 619 882 970 1660 2630 3030 9980 28800
2021-01-16 13:00 4.08 1690 42200 (1930) 337 (1956) 4010 529 619 882 970 1660 2630 3030 9980 28800
2021-01-16 12:30 4.09 1710 42200 (1930) 337 (1956) 4010 529 619 882 970 1660 2630 3030 9980 28800
2021-01-16 12:00 4.09 1710 42200 (1930) 337 (1956) 4010 529 619 882 970 1660 2630 3030 9980 28800
2021-01-16 11:30 4.08 1690 42200 (1930) 337 (1956) 4010 529 619 882 970 1660 2630 3030 9980 28800
2021-01-16 11:00 4.09 1710 42200 (1930) 337 (1956) 4010 529 619 882 970 1660 2630 3030 9980 28800
2021-01-16 10:30 4.09 1710 42200 (1930) 337 (1956) 4010 529 619 882 970 1660 2630 3030 9980 28800
2021-01-16 10:00 4.10 1720 42200 (1930) 337 (1956) 4010 529 619 882 970 1660 2630 3030 9980 28800
2021-01-16 09:30 4.09 1710 42200 (1930) 337 (1956) 4010 529 619 882 970 1660 2630 3030 9980 28800
2021-01-16 09:00 4.09 1710 42200 (1930) 337 (1956) 4010 529 619 882 970 1660 2630 3030 9980 28800
2021-01-16 08:30 4.10 1720 42200 (1930) 337 (1956) 4010 529 619 882 970 1660 2630 3030 9980 28800
2021-01-16 08:00 4.09 1710 42200 (1930) 337 (1956) 4010 529 619 882 970 1660 2630 3030 9980 28800
2021-01-16 07:30 4.10 1720 42200 (1930) 337 (1956) 4010 529 619 882 970 1660 2630 3030 9980 28800
2021-01-16 07:00 4.10 1720 42200 (1930) 337 (1956) 4010 529 619 882 970 1660 2630 3030 9980 28800
2021-01-16 06:30 4.10 1720 42200 (1930) 337 (1956) 4010 529 619 882 970 1660 2630 3030 9980 28800
2021-01-16 06:00 4.10 1720 42200 (1930) 337 (1956) 4010 529 619 882 970 1660 2630 3030 9980 28800
2021-01-16 05:30 4.10 1720 42200 (1930) 337 (1956) 4010 529 619 882 970 1660 2630 3030 9980 28800
2021-01-16 05:00 4.10 1720 42200 (1930) 337 (1956) 4010 529 619 882 970 1660 2630 3030 9980 28800
2021-01-16 04:30 4.10 1720 42200 (1930) 337 (1956) 4010 529 619 882 970 1660 2630 3030 9980 28800
2021-01-16 04:00 4.10 1720 42200 (1930) 337 (1956) 4010 529 619 882 970 1660 2630 3030 9980 28800
2021-01-16 03:30 4.10 1720 42200 (1930) 337 (1956) 4010 529 619 882 970 1660 2630 3030 9980 28800
2021-01-16 03:00 4.10 1720 42200 (1930) 337 (1956) 4010 529 619 882 970 1660 2630 3030 9980 28800
2021-01-16 02:30 4.11 1730 42200 (1930) 337 (1956) 4010 529 619 882 970 1660 2630 3030 9980 28800
2021-01-16 02:00 4.11 1730 42200 (1930) 337 (1956) 4010 529 619 882 970 1660 2630 3030 9980 28800
2021-01-16 01:30 4.11 1730 42200 (1930) 337 (1956) 4010 529 619 882 970 1660 2630 3030 9980 28800
2021-01-16 01:00 4.11 1730 42200 (1930) 337 (1956) 4010 529 619 882 970 1660 2630 3030 9980 28800
2021-01-16 00:30 4.11 1730 42200 (1930) 337 (1956) 4010 529 619 882 970 1660 2630 3030 9980 28800
2021-01-16 00:00 4.11 1730 42200 (1930) 337 (1956) 4010 529 619 882 970 1660 2630 3030 9980 28800
2021-01-15 23:30 4.11 1730 39400 (2005) 372 (1956) 4180 490 628 883 959 1650 2670 3550 9590 26600
2021-01-15 23:00 4.11 1730 39400 (2005) 372 (1956) 4180 490 628 883 959 1650 2670 3550 9590 26600
2021-01-15 22:30 4.11 1730 39400 (2005) 372 (1956) 4180 490 628 883 959 1650 2670 3550 9590 26600
2021-01-15 22:00 4.11 1730 39400 (2005) 372 (1956) 4180 490 628 883 959 1650 2670 3550 9590 26600
2021-01-15 21:30 4.11 1730 39400 (2005) 372 (1956) 4180 490 628 883 959 1650 2670 3550 9590 26600
2021-01-15 21:00 4.12 1740 39400 (2005) 372 (1956) 4180 490 628 883 959 1650 2670 3550 9590 26600
2021-01-15 20:30 4.11 1730 39400 (2005) 372 (1956) 4180 490 628 883 959 1650 2670 3550 9590 26600
2021-01-15 20:00 4.12 1740 39400 (2005) 372 (1956) 4180 490 628 883 959 1650 2670 3550 9590 26600
2021-01-15 19:30 4.11 1730 39400 (2005) 372 (1956) 4180 490 628 883 959 1650 2670 3550 9590 26600
2021-01-15 19:00 4.12 1740 39400 (2005) 372 (1956) 4180 490 628 883 959 1650 2670 3550 9590 26600
2021-01-15 18:30 4.12 1740 39400 (2005) 372 (1956) 4180 490 628 883 959 1650 2670 3550 9590 26600
2021-01-15 18:00 4.12 1740 39400 (2005) 372 (1956) 4180 490 628 883 959 1650 2670 3550 9590 26600
2021-01-15 17:30 4.12 1740 39400 (2005) 372 (1956) 4180 490 628 883 959 1650 2670 3550 9590 26600
2021-01-15 17:00 4.12 1740 39400 (2005) 372 (1956) 4180 490 628 883 959 1650 2670 3550 9590 26600
2021-01-15 16:30 4.12 1740 39400 (2005) 372 (1956) 4180 490 628 883 959 1650 2670 3550 9590 26600
2021-01-15 16:00 4.12 1740 39400 (2005) 372 (1956) 4180 490 628 883 959 1650 2670 3550 9590 26600
2021-01-15 15:30 4.12 1740 39400 (2005) 372 (1956) 4180 490 628 883 959 1650 2670 3550 9590 26600
2021-01-15 15:00 4.11 1730 39400 (2005) 372 (1956) 4180 490 628 883 959 1650 2670 3550 9590 26600
2021-01-15 14:30 4.11 1730 39400 (2005) 372 (1956) 4180 490 628 883 959 1650 2670 3550 9590 26600
2021-01-15 14:00 4.12 1740 39400 (2005) 372 (1956) 4180 490 628 883 959 1650 2670 3550 9590 26600
2021-01-15 13:30 4.12 1740 39400 (2005) 372 (1956) 4180 490 628 883 959 1650 2670 3550 9590 26600
2021-01-15 13:00 4.12 1740 39400 (2005) 372 (1956) 4180 490 628 883 959 1650 2670 3550 9590 26600
2021-01-15 12:30 4.11 1730 39400 (2005) 372 (1956) 4180 490 628 883 959 1650 2670 3550 9590 26600
2021-01-15 12:00 4.12 1740 39400 (2005) 372 (1956) 4180 490 628 883 959 1650 2670 3550 9590 26600
2021-01-15 11:30 4.12 1740 39400 (2005) 372 (1956) 4180 490 628 883 959 1650 2670 3550 9590 26600
2021-01-15 11:00 4.12 1740 39400 (2005) 372 (1956) 4180 490 628 883 959 1650 2670 3550 9590 26600
2021-01-15 10:30 4.12 1740 39400 (2005) 372 (1956) 4180 490 628 883 959 1650 2670 3550 9590 26600
2021-01-15 10:00 4.12 1740 39400 (2005) 372 (1956) 4180 490 628 883 959 1650 2670 3550 9590 26600
2021-01-15 09:30 4.13 1760 39400 (2005) 372 (1956) 4180 490 628 883 959 1650 2670 3550 9590 26600
2021-01-15 09:00 4.12 1740 39400 (2005) 372 (1956) 4180 490 628 883 959 1650 2670 3550 9590 26600
2021-01-15 08:30 4.13 1760 39400 (2005) 372 (1956) 4180 490 628 883 959 1650 2670 3550 9590 26600
2021-01-15 08:00 4.12 1740 39400 (2005) 372 (1956) 4180 490 628 883 959 1650 2670 3550 9590 26600
2021-01-15 07:30 4.13 1760 39400 (2005) 372 (1956) 4180 490 628 883 959 1650 2670 3550 9590 26600
2021-01-15 07:00 4.13 1760 39400 (2005) 372 (1956) 4180 490 628 883 959 1650 2670 3550 9590 26600
2021-01-15 06:30 4.13 1760 39400 (2005) 372 (1956) 4180 490 628 883 959 1650 2670 3550 9590 26600
2021-01-15 06:00 4.13 1760 39400 (2005) 372 (1956) 4180 490 628 883 959 1650 2670 3550 9590 26600
2021-01-15 05:30 4.13 1760 39400 (2005) 372 (1956) 4180 490 628 883 959 1650 2670 3550 9590 26600
2021-01-15 05:00 4.14 1770 39400 (2005) 372 (1956) 4180 490 628 883 959 1650 2670 3550 9590 26600
2021-01-15 04:30 4.13 1760 39400 (2005) 372 (1956) 4180 490 628 883 959 1650 2670 3550 9590 26600
2021-01-15 04:00 4.13 1760 39400 (2005) 372 (1956) 4180 490 628 883 959 1650 2670 3550 9590 26600
2021-01-15 03:30 4.14 1770 39400 (2005) 372 (1956) 4180 490 628 883 959 1650 2670 3550 9590 26600
2021-01-15 03:00 4.14 1770 39400 (2005) 372 (1956) 4180 490 628 883 959 1650 2670 3550 9590 26600
2021-01-15 02:30 4.14 1770 39400 (2005) 372 (1956) 4180 490 628 883 959 1650 2670 3550 9590 26600
2021-01-15 02:00 4.14 1770 39400 (2005) 372 (1956) 4180 490 628 883 959 1650 2670 3550 9590 26600
2021-01-15 01:30 4.14 1770 39400 (2005) 372 (1956) 4180 490 628 883 959 1650 2670 3550 9590 26600
2021-01-15 01:00 4.14 1770 39400 (2005) 372 (1956) 4180 490 628 883 959 1650 2670 3550 9590 26600
2021-01-15 00:30 4.14 1770 39400 (2005) 372 (1956) 4180 490 628 883 959 1650 2670 3550 9590 26600
2021-01-15 00:00 4.14 1770 39400 (2005) 372 (1956) 4180 490 628 883 959 1650 2670 3550 9590 26600
2021-01-14 23:30 4.14 1770 51800 (2020) 372 (1956) 3970 505 637 873 999 1590 2640 3050 7810 25700
2021-01-14 23:00 4.15 1780 51800 (2020) 372 (1956) 3970 505 637 873 999 1590 2640 3050 7810 25700
2021-01-14 22:30 4.15 1780 51800 (2020) 372 (1956) 3970 505 637 873 999 1590 2640 3050 7810 25700
2021-01-14 22:00 4.14 1770 51800 (2020) 372 (1956) 3970 505 637 873 999 1590 2640 3050 7810 25700
2021-01-14 21:30 4.15 1780 51800 (2020) 372 (1956) 3970 505 637 873 999 1590 2640 3050 7810 25700
2021-01-14 21:00 4.14 1770 51800 (2020) 372 (1956) 3970 505 637 873 999 1590 2640 3050 7810 25700
2021-01-14 20:30 4.15 1780 51800 (2020) 372 (1956) 3970 505 637 873 999 1590 2640 3050 7810 25700
2021-01-14 20:00 4.15 1780 51800 (2020) 372 (1956) 3970 505 637 873 999 1590 2640 3050 7810 25700
2021-01-14 19:30 4.16 1790 51800 (2020) 372 (1956) 3970 505 637 873 999 1590 2640 3050 7810 25700
2021-01-14 19:00 4.16 1790 51800 (2020) 372 (1956) 3970 505 637 873 999 1590 2640 3050 7810 25700
2021-01-14 18:30 4.15 1780 51800 (2020) 372 (1956) 3970 505 637 873 999 1590 2640 3050 7810 25700
2021-01-14 18:00 4.16 1790 51800 (2020) 372 (1956) 3970 505 637 873 999 1590 2640 3050 7810 25700
2021-01-14 17:30 4.15 1780 51800 (2020) 372 (1956) 3970 505 637 873 999 1590 2640 3050 7810 25700
2021-01-14 17:00 4.16 1790 51800 (2020) 372 (1956) 3970 505 637 873 999 1590 2640 3050 7810 25700
2021-01-14 16:30 4.16 1790 51800 (2020) 372 (1956) 3970 505 637 873 999 1590 2640 3050 7810 25700
2021-01-14 16:00 4.16 1790 51800 (2020) 372 (1956) 3970 505 637 873 999 1590 2640 3050 7810 25700
2021-01-14 15:30 4.16 1790 51800 (2020) 372 (1956) 3970 505 637 873 999 1590 2640 3050 7810 25700
2021-01-14 15:00 4.17 1810 51800 (2020) 372 (1956) 3970 505 637 873 999 1590 2640 3050 7810 25700
2021-01-14 14:30 4.18 1820 51800 (2020) 372 (1956) 3970 505 637 873 999 1590 2640 3050 7810 25700
2021-01-14 14:00 4.17 1810 51800 (2020) 372 (1956) 3970 505 637 873 999 1590 2640 3050 7810 25700
2021-01-14 13:30 4.16 1790 51800 (2020) 372 (1956) 3970 505 637 873 999 1590 2640 3050 7810 25700
2021-01-14 13:00 4.17 1810 51800 (2020) 372 (1956) 3970 505 637 873 999 1590 2640 3050 7810 25700
2021-01-14 12:30 4.17 1810 51800 (2020) 372 (1956) 3970 505 637 873 999 1590 2640 3050 7810 25700
2021-01-14 12:00 4.16 1790 51800 (2020) 372 (1956) 3970 505 637 873 999 1590 2640 3050 7810 25700
2021-01-14 11:30 4.16 1790 51800 (2020) 372 (1956) 3970 505 637 873 999 1590 2640 3050 7810 25700
2021-01-14 11:00 4.17 1810 51800 (2020) 372 (1956) 3970 505 637 873 999 1590 2640 3050 7810 25700
2021-01-14 10:30 4.17 1810 51800 (2020) 372 (1956) 3970 505 637 873 999 1590 2640 3050 7810 25700
2021-01-14 10:00 4.17 1810 51800 (2020) 372 (1956) 3970 505 637 873 999 1590 2640 3050 7810 25700
2021-01-14 09:30 4.18 1820 51800 (2020) 372 (1956) 3970 505 637 873 999 1590 2640 3050 7810 25700
2021-01-14 09:00 4.17 1810 51800 (2020) 372 (1956) 3970 505 637 873 999 1590 2640 3050 7810 25700
2021-01-14 08:30 4.18 1820 51800 (2020) 372 (1956) 3970 505 637 873 999 1590 2640 3050 7810 25700
2021-01-14 08:00 4.17 1810 51800 (2020) 372 (1956) 3970 505 637 873 999 1590 2640 3050 7810 25700
2021-01-14 07:30 4.18 1820 51800 (2020) 372 (1956) 3970 505 637 873 999 1590 2640 3050 7810 25700
2021-01-14 07:00 4.18 1820 51800 (2020) 372 (1956) 3970 505 637 873 999 1590 2640 3050 7810 25700
2021-01-14 06:30 4.18 1820 51800 (2020) 372 (1956) 3970 505 637 873 999 1590 2640 3050 7810 25700
2021-01-14 06:00 4.18 1820 51800 (2020) 372 (1956) 3970 505 637 873 999 1590 2640 3050 7810 25700
2021-01-14 05:30 4.19 1830 51800 (2020) 372 (1956) 3970 505 637 873 999 1590 2640 3050 7810 25700
2021-01-14 05:00 4.18 1820 51800 (2020) 372 (1956) 3970 505 637 873 999 1590 2640 3050 7810 25700
2021-01-14 04:30 4.18 1820 51800 (2020) 372 (1956) 3970 505 637 873 999 1590 2640 3050 7810 25700
2021-01-14 04:00 4.19 1830 51800 (2020) 372 (1956) 3970 505 637 873 999 1590 2640 3050 7810 25700
2021-01-14 03:30 4.19 1830 51800 (2020) 372 (1956) 3970 505 637 873 999 1590 2640 3050 7810 25700
2021-01-14 03:00 4.19 1830 51800 (2020) 372 (1956) 3970 505 637 873 999 1590 2640 3050 7810 25700
2021-01-14 02:30 4.19 1830 51800 (2020) 372 (1956) 3970 505 637 873 999 1590 2640 3050 7810 25700
2021-01-14 02:00 4.20 1840 51800 (2020) 372 (1956) 3970 505 637 873 999 1590 2640 3050 7810 25700
2021-01-14 01:30 4.20 1840 51800 (2020) 372 (1956) 3970 505 637 873 999 1590 2640 3050 7810 25700
2021-01-14 01:00 4.20 1840 51800 (2020) 372 (1956) 3970 505 637 873 999 1590 2640 3050 7810 25700
2021-01-14 00:30 4.20 1840 51800 (2020) 372 (1956) 3970 505 637 873 999 1590 2640 3050 7810 25700
2021-01-14 00:00 4.21 1860 51800 (2020) 372 (1956) 3970 505 637 873 999 1590 2640 3050 7810 25700
2021-01-13 23:30 4.20 1840 48400 (2020) 356 (1977) 3510 460 647 871 1030 1520 2810 3270 8070 17500
2021-01-13 23:00 4.21 1860 48400 (2020) 356 (1977) 3510 460 647 871 1030 1520 2810 3270 8070 17500
2021-01-13 22:30 4.20 1840 48400 (2020) 356 (1977) 3510 460 647 871 1030 1520 2810 3270 8070 17500
2021-01-13 22:00 4.21 1860 48400 (2020) 356 (1977) 3510 460 647 871 1030 1520 2810 3270 8070 17500
2021-01-13 21:30 4.20 1840 48400 (2020) 356 (1977) 3510 460 647 871 1030 1520 2810 3270 8070 17500
2021-01-13 21:00 4.20 1840 48400 (2020) 356 (1977) 3510 460 647 871 1030 1520 2810 3270 8070 17500
2021-01-13 20:30 4.21 1860 48400 (2020) 356 (1977) 3510 460 647 871 1030 1520 2810 3270 8070 17500
2021-01-13 20:00 4.21 1860 48400 (2020) 356 (1977) 3510 460 647 871 1030 1520 2810 3270 8070 17500
2021-01-13 19:30 4.22 1870 48400 (2020) 356 (1977) 3510 460 647 871 1030 1520 2810 3270 8070 17500
2021-01-13 19:00 4.21 1860 48400 (2020) 356 (1977) 3510 460 647 871 1030 1520 2810 3270 8070 17500
2021-01-13 18:30 4.22 1870 48400 (2020) 356 (1977) 3510 460 647 871 1030 1520 2810 3270 8070 17500
2021-01-13 18:00 4.22 1870 48400 (2020) 356 (1977) 3510 460 647 871 1030 1520 2810 3270 8070 17500
2021-01-13 17:30 4.22 1870 48400 (2020) 356 (1977) 3510 460 647 871 1030 1520 2810 3270 8070 17500
2021-01-13 17:00 4.23 1880 48400 (2020) 356 (1977) 3510 460 647 871 1030 1520 2810 3270 8070 17500
2021-01-13 16:30 4.23 1880 48400 (2020) 356 (1977) 3510 460 647 871 1030 1520 2810 3270 8070 17500
2021-01-13 16:00 4.23 1880 48400 (2020) 356 (1977) 3510 460 647 871 1030 1520 2810 3270 8070 17500
2021-01-13 15:30 4.23 1880 48400 (2020) 356 (1977) 3510 460 647 871 1030 1520 2810 3270 8070 17500
2021-01-13 15:00 4.22 1870 48400 (2020) 356 (1977) 3510 460 647 871 1030 1520 2810 3270 8070 17500
2021-01-13 14:30 4.23 1880 48400 (2020) 356 (1977) 3510 460 647 871 1030 1520 2810 3270 8070 17500
2021-01-13 14:00 4.24 1900 48400 (2020) 356 (1977) 3510 460 647 871 1030 1520 2810 3270 8070 17500
2021-01-13 13:30 4.23 1880 48400 (2020) 356 (1977) 3510 460 647 871 1030 1520 2810 3270 8070 17500
2021-01-13 13:00 4.24 1900 48400 (2020) 356 (1977) 3510 460 647 871 1030 1520 2810 3270 8070 17500
2021-01-13 12:30 4.24 1900 48400 (2020) 356 (1977) 3510 460 647 871 1030 1520 2810 3270 8070 17500
2021-01-13 12:00 4.24 1900 48400 (2020) 356 (1977) 3510 460 647 871 1030 1520 2810 3270 8070 17500
2021-01-13 11:30 4.24 1900 48400 (2020) 356 (1977) 3510 460 647 871 1030 1520 2810 3270 8070 17500
2021-01-13 11:00 4.25 1910 48400 (2020) 356 (1977) 3510 460 647 871 1030 1520 2810 3270 8070 17500
2021-01-13 10:30 4.25 1910 48400 (2020) 356 (1977) 3510 460 647 871 1030 1520 2810 3270 8070 17500
2021-01-13 10:00 4.25 1910 48400 (2020) 356 (1977) 3510 460 647 871 1030 1520 2810 3270 8070 17500
2021-01-13 09:30 4.25 1910 48400 (2020) 356 (1977) 3510 460 647 871 1030 1520 2810 3270 8070 17500
2021-01-13 09:00 4.25 1910 48400 (2020) 356 (1977) 3510 460 647 871 1030 1520 2810 3270 8070 17500
2021-01-13 08:30 4.26 1920 48400 (2020) 356 (1977) 3510 460 647 871 1030 1520 2810 3270 8070 17500
2021-01-13 08:00 4.26 1920 48400 (2020) 356 (1977) 3510 460 647 871 1030 1520 2810 3270 8070 17500
2021-01-13 07:30 4.26 1920 48400 (2020) 356 (1977) 3510 460 647 871 1030 1520 2810 3270 8070 17500
2021-01-13 07:00 4.26 1920 48400 (2020) 356 (1977) 3510 460 647 871 1030 1520 2810 3270 8070 17500
2021-01-13 06:30 4.26 1920 48400 (2020) 356 (1977) 3510 460 647 871 1030 1520 2810 3270 8070 17500
2021-01-13 06:00 4.27 1940 48400 (2020) 356 (1977) 3510 460 647 871 1030 1520 2810 3270 8070 17500
2021-01-13 05:30 4.27 1940 48400 (2020) 356 (1977) 3510 460 647 871 1030 1520 2810 3270 8070 17500
2021-01-13 05:00 4.28 1950 48400 (2020) 356 (1977) 3510 460 647 871 1030 1520 2810 3270 8070 17500
2021-01-13 04:30 4.28 1950 48400 (2020) 356 (1977) 3510 460 647 871 1030 1520 2810 3270 8070 17500
2021-01-13 04:00 4.27 1940 48400 (2020) 356 (1977) 3510 460 647 871 1030 1520 2810 3270 8070 17500
2021-01-13 03:30 4.27 1940 48400 (2020) 356 (1977) 3510 460 647 871 1030 1520 2810 3270 8070 17500
2021-01-13 03:00 4.28 1950 48400 (2020) 356 (1977) 3510 460 647 871 1030 1520 2810 3270 8070 17500
2021-01-13 02:30 4.28 1950 48400 (2020) 356 (1977) 3510 460 647 871 1030 1520 2810 3270 8070 17500
2021-01-13 02:00 4.28 1950 48400 (2020) 356 (1977) 3510 460 647 871 1030 1520 2810 3270 8070 17500
2021-01-13 01:30 4.28 1950 48400 (2020) 356 (1977) 3510 460 647 871 1030 1520 2810 3270 8070 17500
2021-01-13 01:00 4.28 1950 48400 (2020) 356 (1977) 3510 460 647 871 1030 1520 2810 3270 8070 17500
2021-01-13 00:30 4.29 1960 48400 (2020) 356 (1977) 3510 460 647 871 1030 1520 2810 3270 8070 17500
2021-01-13 00:00 4.29 1960 48400 (2020) 356 (1977) 3510 460 647 871 1030 1520 2810 3270 8070 17500
2021-01-12 23:30 4.29 1960 37000 (2020) 380 (1956) 2810 495 650 862 1000 1410 2600 3520 5030 8220
2021-01-12 23:00 4.29 1960 37000 (2020) 380 (1956) 2810 495 650 862 1000 1410 2600 3520 5030 8220
2021-01-12 22:30 4.30 1980 37000 (2020) 380 (1956) 2810 495 650 862 1000 1410<